Wetterdaten: Mittwoch, 02.10.2019
Datum Zeit Temp. A. Pool Temp. Temp. 5cm Feuchte A. Luftdruck Regen Wind Richtung Richtung Sonnenschein ET UV Solar Taupunkt Windchill Windben Empfang
02.10.2019 00:00 13,1 C 13,3 C 11,7 C 87 % 1003,5 hPa 0,0 l/m 4,4 km/h (1 Bft) S 179 0 min 0,000 mm 0,0 UV-I 0 W/m 11,0 C 13,1 C 6,4 km/h (2 Bft) 95,65 %
02.10.2019 00:02 13,1 C 13,3 C 11,7 C 87 % 1003,6 hPa 0,0 l/m 4,8 km/h (1 Bft) S 179 0 min 0,000 mm 0,0 UV-I 0 W/m 11,0 C 13,1 C 4,8 km/h (1 Bft) 97,73 %
02.10.2019 00:04 13,1 C 13,3 C 12,2 C 87 % 1003,6 hPa 0,0 l/m 5,7 km/h (1 Bft) S 175 0 min 0,000 mm 0,0 UV-I 0 W/m 11,0 C 13,1 C 8,0 km/h (2 Bft) 100,00 %
02.10.2019 00:06 13,2 C 13,3 C 12,2 C 88 % 1003,6 hPa 0,0 l/m 6,4 km/h (2 Bft) S-SW 193 0 min 0,000 mm 0,0 UV-I 0 W/m 11,3 C 13,2 C 8,0 km/h (2 Bft) 100,00 %
02.10.2019 00:08 13,4 C 13,3 C 12,8 C 88 % 1003,6 hPa 0,0 l/m 6,4 km/h (2 Bft) S 181 0 min 0,000 mm 0,0 UV-I 0 W/m 11,5 C 13,4 C 9,7 km/h (2 Bft) 100,00 %
02.10.2019 00:10 13,7 C 13,3 C 12,8 C 88 % 1003,6 hPa 0,0 l/m 6,4 km/h (2 Bft) S-SW 200 0 min 0,000 mm 0,0 UV-I 0 W/m 11,7 C 13,7 C 8,0 km/h (2 Bft) 100,00 %
02.10.2019 00:12 13,8 C 13,3 C 13,3 C 87 % 1003,6 hPa 0,0 l/m 6,9 km/h (2 Bft) S-SW 196 0 min 0,000 mm 0,0 UV-I 0 W/m 11,7 C 13,5 C 9,7 km/h (2 Bft) 100,00 %
02.10.2019 00:14 14,1 C 13,3 C 13,3 C 86 % 1003,6 hPa 0,0 l/m 6,9 km/h (2 Bft) SW 214 0 min 0,000 mm 0,0 UV-I 0 W/m 11,8 C 13,8 C 9,7 km/h (2 Bft) 97,87 %
02.10.2019 00:16 14,1 C 13,3 C 13,3 C 86 % 1003,6 hPa 0,0 l/m 4,4 km/h (1 Bft) S-SW 209 0 min 0,000 mm 0,0 UV-I 0 W/m 11,8 C 14,1 C 6,4 km/h (2 Bft) 98,00 %
02.10.2019 00:18 14,2 C 13,3 C 13,3 C 85 % 1003,6 hPa 0,0 l/m 5,7 km/h (1 Bft) S 191 0 min 0,000 mm 0,0 UV-I 0 W/m 11,7 C 14,2 C 8,0 km/h (2 Bft) 97,56 %
02.10.2019 00:20 14,2 C 13,3 C 13,9 C 85 % 1003,6 hPa 0,0 l/m 4,8 km/h (1 Bft) S-SW 209 0 min 0,000 mm 0,0 UV-I 0 W/m 11,7 C 14,2 C 6,4 km/h (2 Bft) 98,11 %
02.10.2019 00:22 14,2 C 13,3 C 13,9 C 85 % 1003,6 hPa 0,0 l/m 5,9 km/h (2 Bft) S-SW 199 0 min 0,000 mm 0,0 UV-I 0 W/m 11,7 C 14,2 C 8,0 km/h (2 Bft) 97,56 %
02.10.2019 00:24 14,2 C 13,3 C 13,9 C 85 % 1003,6 hPa 0,0 l/m 5,2 km/h (1 Bft) SW 215 0 min 0,000 mm 0,0 UV-I 0 W/m 11,7 C 14,2 C 8,0 km/h (2 Bft) 96,00 %
02.10.2019 00:26 14,2 C 13,3 C 13,9 C 85 % 1003,6 hPa 0,0 l/m 6,1 km/h (2 Bft) SW 220 0 min 0,000 mm 0,0 UV-I 0 W/m 11,7 C 14,2 C 8,0 km/h (2 Bft) 94,00 %
02.10.2019 00:28 14,2 C 13,3 C 13,9 C 85 % 1003,6 hPa 0,0 l/m 6,1 km/h (2 Bft) SW 214 0 min 0,000 mm 0,0 UV-I 0 W/m 11,7 C 14,2 C 8,0 km/h (2 Bft) 98,00 %
02.10.2019 00:30 14,2 C 13,3 C 13,9 C 85 % 1003,6 hPa 0,0 l/m 5,9 km/h (2 Bft) SW 216 0 min 0,000 mm 0,0 UV-I 0 W/m 11,7 C 14,2 C 8,0 km/h (2 Bft) 97,73 %
02.10.2019 00:32 14,3 C 13,3 C 13,9 C 85 % 1003,6 hPa 0,0 l/m 4,9 km/h (1 Bft) S-SW 208 0 min 0,000 mm 0,0 UV-I 0 W/m 11,8 C 14,3 C 6,4 km/h (2 Bft) 94,00 %
02.10.2019 00:34 14,3 C 13,3 C 13,9 C 85 % 1003,6 hPa 0,0 l/m 6,4 km/h (2 Bft) S-SW 200 0 min 0,000 mm 0,0 UV-I 0 W/m 11,8 C 14,3 C 8,0 km/h (2 Bft) 97,87 %
02.10.2019 00:36 14,3 C 13,3 C 14,4 C 85 % 1003,6 hPa 0,0 l/m 6,2 km/h (2 Bft) S-SW 194 0 min 0,000 mm 0,0 UV-I 0 W/m 11,8 C 14,3 C 8,0 km/h (2 Bft) 97,73 %
02.10.2019 00:38 14,4 C 13,3 C 14,4 C 85 % 1003,6 hPa 0,0 l/m 5,3 km/h (1 Bft) S-SW 208 0 min 0,000 mm 0,0 UV-I 0 W/m 11,9 C 14,4 C 8,0 km/h (2 Bft) 100,00 %
02.10.2019 00:40 14,5 C 13,3 C 14,4 C 84 % 1003,5 hPa 0,0 l/m 6,1 km/h (2 Bft) SW 218 0 min 0,000 mm 0,0 UV-I 0 W/m 11,8 C 14,5 C 8,0 km/h (2 Bft) 100,00 %
02.10.2019 00:42 14,6 C 13,3 C 14,4 C 84 % 1003,5 hPa 0,0 l/m 5,4 km/h (1 Bft) SW 218 0 min 0,000 mm 0,0 UV-I 0 W/m 11,9 C 14,6 C 6,4 km/h (2 Bft) 97,73 %
02.10.2019 00:44 14,7 C 13,3 C 14,4 C 83 % 1003,6 hPa 0,0 l/m 5,7 km/h (1 Bft) S-SW 209 0 min 0,000 mm 0,0 UV-I 0 W/m 11,8 C 14,7 C 8,0 km/h (2 Bft) 97,87 %
02.10.2019 00:46 14,8 C 13,3 C 14,4 C 83 % 1003,6 hPa 0,0 l/m 4,1 km/h (1 Bft) S-SW 209 0 min 0,000 mm 0,0 UV-I 0 W/m 11,9 C 14,8 C 6,4 km/h (2 Bft) 97,44 %
02.10.2019 00:48 14,8 C 13,3 C 14,4 C 83 % 1003,6 hPa 0,0 l/m 5,3 km/h (1 Bft) SW 219 0 min 0,000 mm 0,0 UV-I 0 W/m 11,9 C 14,8 C 8,0 km/h (2 Bft) 98,11 %
02.10.2019 00:50 14,8 C 13,3 C 14,4 C 82 % 1003,6 hPa 0,0 l/m 5,8 km/h (2 Bft) S-SW 206 0 min 0,000 mm 0,0 UV-I 0 W/m 11,8 C 14,8 C 9,7 km/h (2 Bft) 97,56 %
02.10.2019 00:52 14,9 C 13,3 C 14,4 C 82 % 1003,6 hPa 0,0 l/m 6,0 km/h (2 Bft) S-SW 211 0 min 0,000 mm 0,0 UV-I 0 W/m 11,9 C 14,9 C 8,0 km/h (2 Bft) 95,74 %
02.10.2019 00:54 14,9 C 13,3 C 14,4 C 82 % 1003,6 hPa 0,0 l/m 6,9 km/h (2 Bft) S-SW 207 0 min 0,000 mm 0,0 UV-I 0 W/m 11,9 C 14,6 C 9,7 km/h (2 Bft) 95,74 %
02.10.2019 00:56 14,9 C 13,3 C 14,4 C 82 % 1003,6 hPa 0,0 l/m 6,5 km/h (2 Bft) S-SW 207 0 min 0,000 mm 0,0 UV-I 0 W/m 11,9 C 14,9 C 8,0 km/h (2 Bft) 96,23 %
02.10.2019 00:58 14,9 C 13,3 C 14,4 C 82 % 1003,6 hPa 0,0 l/m 6,6 km/h (2 Bft) SW 226 0 min 0,000 mm 0,0 UV-I 0 W/m 11,9 C 14,8 C 9,7 km/h (2 Bft) 96,00 %
02.10.2019 01:00 14,9 C 13,3 C 14,4 C 82 % 1003,6 hPa 0,0 l/m 7,7 km/h (2 Bft) SW 227 0 min 0,025 mm 0,0 UV-I 0 W/m 11,9 C 14,2 C 11,3 km/h (2 Bft) 93,62 %
02.10.2019 01:02 14,9 C 13,3 C 14,4 C 82 % 1003,6 hPa 0,0 l/m 6,3 km/h (2 Bft) S-SW 211 0 min 0,000 mm 0,0 UV-I 0 W/m 11,9 C 14,9 C 11,3 km/h (2 Bft) 97,14 %
02.10.2019 01:04 14,9 C 13,3 C 14,4 C 82 % 1003,7 hPa 0,0 l/m 8,0 km/h (2 Bft) S-SW 197 0 min 0,000 mm 0,0 UV-I 0 W/m 11,9 C 14,0 C 11,3 km/h (2 Bft) 98,21 %
02.10.2019 01:06 14,9 C 13,3 C 14,4 C 82 % 1003,8 hPa 0,0 l/m 10,6 km/h (2 Bft) S-SW 209 0 min 0,000 mm 0,0 UV-I 0 W/m 11,9 C 12,7 C 16,1 km/h (3 Bft) 97,87 %
02.10.2019 01:08 15,0 C 13,3 C 15,0 C 82 % 1003,7 hPa 0,0 l/m 8,1 km/h (2 Bft) S 184 0 min 0,000 mm 0,0 UV-I 0 W/m 12,0 C 14,0 C 14,5 km/h (3 Bft) 96,00 %
02.10.2019 01:10 15,1 C 13,3 C 15,0 C 82 % 1003,6 hPa 0,0 l/m 13,3 km/h (3 Bft) SW 219 0 min 0,000 mm 0,0 UV-I 0 W/m 12,0 C 11,9 C 22,5 km/h (4 Bft) 92,68 %
02.10.2019 01:12 15,2 C 13,3 C 15,0 C 81 % 1003,6 hPa 0,0 l/m 12,3 km/h (3 Bft) SW 218 0 min 0,000 mm 0,0 UV-I 0 W/m 12,0 C 12,4 C 17,7 km/h (3 Bft) 98,00 %
02.10.2019 01:14 15,3 C 13,3 C 15,0 C 80 % 1003,7 hPa 0,0 l/m 8,8 km/h (2 Bft) SW 221 0 min 0,000 mm 0,0 UV-I 0 W/m 11,9 C 14,0 C 12,9 km/h (3 Bft) 97,37 %
02.10.2019 01:16 15,4 C 13,3 C 15,0 C 80 % 1003,7 hPa 0,0 l/m 7,9 km/h (2 Bft) SW 229 0 min 0,000 mm 0,0 UV-I 0 W/m 12,0 C 14,6 C 11,3 km/h (2 Bft) 96,23 %
02.10.2019 01:18 15,4 C 13,3 C 15,0 C 79 % 1003,9 hPa 0,0 l/m 7,7 km/h (2 Bft) W-SW 248 0 min 0,000 mm 0,0 UV-I 0 W/m 11,8 C 14,7 C 11,3 km/h (2 Bft) 97,62 %
02.10.2019 01:20 15,4 C 13,3 C 15,0 C 79 % 1003,9 hPa 0,0 l/m 9,0 km/h (2 Bft) W 270 0 min 0,000 mm 0,0 UV-I 0 W/m 11,8 C 14,0 C 12,9 km/h (3 Bft) 91,43 %
02.10.2019 01:22 15,4 C 13,3 C 15,0 C 79 % 1004,0 hPa 0,0 l/m 10,2 km/h (2 Bft) W 265 0 min 0,000 mm 0,0 UV-I 0 W/m 11,8 C 13,5 C 17,7 km/h (3 Bft) 95,52 %
02.10.2019 01:24 15,4 C 13,3 C 15,0 C 79 % 1004,0 hPa 0,0 l/m 12,9 km/h (3 Bft) W-SW 247 0 min 0,000 mm 0,0 UV-I 0 W/m 11,8 C 12,4 C 20,9 km/h (4 Bft) 89,74 %
02.10.2019 01:26 15,5 C 13,3 C 15,0 C 78 % 1004,0 hPa 0,0 l/m 12,6 km/h (3 Bft) W 269 0 min 0,000 mm 0,0 UV-I 0 W/m 11,7 C 12,6 C 16,1 km/h (3 Bft) 95,74 %
02.10.2019 01:28 15,5 C 13,3 C 14,4 C 78 % 1004,1 hPa 0,0 l/m 10,8 km/h (2 Bft) W 265 0 min 0,000 mm 0,0 UV-I 0 W/m 11,7 C 13,3 C 17,7 km/h (3 Bft) 94,00 %
02.10.2019 01:30 15,4 C 13,3 C 14,4 C 78 % 1004,1 hPa 0,0 l/m 10,5 km/h (2 Bft) W 272 0 min 0,000 mm 0,0 UV-I 0 W/m 11,6 C 13,3 C 16,1 km/h (3 Bft) 96,00 %
02.10.2019 01:32 15,3 C 13,3 C 14,4 C 79 % 1004,1 hPa 0,0 l/m 13,3 km/h (3 Bft) W-SW 253 0 min 0,000 mm 0,0 UV-I 0 W/m 11,7 C 12,1 C 17,7 km/h (3 Bft) 89,66 %
02.10.2019 01:34 15,3 C 13,3 C 14,4 C 79 % 1004,1 hPa 0,0 l/m 11,9 km/h (2 Bft) W 271 0 min 0,000 mm 0,0 UV-I 0 W/m 11,7 C 12,7 C 16,1 km/h (3 Bft) 96,92 %
02.10.2019 01:36 15,3 C 13,3 C 14,4 C 79 % 1004,2 hPa 0,0 l/m 10,6 km/h (2 Bft) W-SW 256 0 min 0,000 mm 0,0 UV-I 0 W/m 11,7 C 13,2 C 16,1 km/h (3 Bft) 94,74 %
02.10.2019 01:38 15,2 C 13,3 C 14,4 C 79 % 1004,2 hPa 0,0 l/m 10,4 km/h (2 Bft) W-SW 258 0 min 0,000 mm 0,0 UV-I 0 W/m 11,6 C 13,2 C 16,1 km/h (3 Bft) 92,45 %
02.10.2019 01:40 15,2 C 13,3 C 14,4 C 79 % 1004,2 hPa 0,0 l/m 11,3 km/h (2 Bft) W-SW 252 0 min 0,000 mm 0,0 UV-I 0 W/m 11,6 C 12,8 C 17,7 km/h (3 Bft) 92,00 %
02.10.2019 01:42 15,3 C 13,3 C 15,0 C 79 % 1004,3 hPa 0,0 l/m 10,8 km/h (2 Bft) SW 229 0 min 0,000 mm 0,0 UV-I 0 W/m 11,7 C 13,1 C 16,1 km/h (3 Bft) 94,74 %
02.10.2019 01:44 15,3 C 13,3 C 15,0 C 79 % 1004,3 hPa 0,0 l/m 10,8 km/h (2 Bft) W-SW 237 0 min 0,000 mm 0,0 UV-I 0 W/m 11,7 C 13,1 C 16,1 km/h (3 Bft) 91,07 %
02.10.2019 01:46 15,2 C 13,3 C 15,0 C 79 % 1004,2 hPa 0,0 l/m 9,4 km/h (2 Bft) SW 233 0 min 0,000 mm 0,0 UV-I 0 W/m 11,6 C 13,6 C 16,1 km/h (3 Bft) 92,11 %
02.10.2019 01:48 15,2 C 13,3 C 15,0 C 79 % 1004,3 hPa 0,0 l/m 10,8 km/h (2 Bft) W-SW 241 0 min 0,000 mm 0,0 UV-I 0 W/m 11,6 C 13,0 C 16,1 km/h (3 Bft) 91,49 %
02.10.2019 01:50 15,2 C 13,3 C 15,0 C 79 % 1004,3 hPa 0,0 l/m 9,9 km/h (2 Bft) W 262 0 min 0,000 mm 0,0 UV-I 0 W/m 11,6 C 13,4 C 14,5 km/h (3 Bft) 93,62 %
02.10.2019 01:52 15,2 C 13,3 C 15,0 C 79 % 1004,4 hPa 0,0 l/m 7,3 km/h (2 Bft) W-SW 254 0 min 0,000 mm 0,0 UV-I 0 W/m 11,6 C 14,7 C 11,3 km/h (2 Bft) 91,49 %
02.10.2019 01:54 15,2 C 13,3 C 15,0 C 79 % 1004,4 hPa 0,0 l/m 7,5 km/h (2 Bft) W-SW 253 0 min 0,000 mm 0,0 UV-I 0 W/m 11,6 C 14,6 C 12,9 km/h (3 Bft) 93,62 %
02.10.2019 01:56 15,1 C 13,3 C 15,0 C 79 % 1004,5 hPa 0,0 l/m 9,6 km/h (2 Bft) SW 232 0 min 0,000 mm 0,0 UV-I 0 W/m 11,5 C 13,4 C 12,9 km/h (3 Bft) 92,86 %
02.10.2019 01:58 15,1 C 13,3 C 15,0 C 79 % 1004,5 hPa 0,0 l/m 9,2 km/h (2 Bft) W-SW 255 0 min 0,000 mm 0,0 UV-I 0 W/m 11,5 C 13,6 C 14,5 km/h (3 Bft) 100,00 %
02.10.2019 02:00 15,2 C 13,3 C 15,0 C 79 % 1004,5 hPa 0,0 l/m 9,2 km/h (2 Bft) SW 230 0 min 0,000 mm 0,0 UV-I 0 W/m 11,6 C 13,7 C 14,5 km/h (3 Bft) 97,73 %
02.10.2019 02:02 15,2 C 13,3 C 15,0 C 79 % 1004,4 hPa 0,0 l/m 9,0 km/h (2 Bft) SW 236 0 min 0,026 mm 0,0 UV-I 0 W/m 11,6 C 13,8 C 12,9 km/h (3 Bft) 98,18 %
02.10.2019 02:04 15,2 C 13,3 C 15,0 C 79 % 1004,4 hPa 0,0 l/m 8,9 km/h (2 Bft) W-SW 247 0 min 0,000 mm 0,0 UV-I 0 W/m 11,6 C 13,9 C 11,3 km/h (2 Bft) 100,00 %
02.10.2019 02:06 15,2 C 13,3 C 15,0 C 79 % 1004,4 hPa 0,0 l/m 9,2 km/h (2 Bft) SW 224 0 min 0,000 mm 0,0 UV-I 0 W/m 11,6 C 13,7 C 12,9 km/h (3 Bft) 100,00 %
02.10.2019 02:08 15,2 C 13,3 C 15,0 C 79 % 1004,5 hPa 0,0 l/m 8,6 km/h (2 Bft) SW 225 0 min 0,000 mm 0,0 UV-I 0 W/m 11,6 C 14,0 C 14,5 km/h (3 Bft) 100,00 %
02.10.2019 02:10 15,2 C 13,3 C 15,0 C 79 % 1004,5 hPa 0,0 l/m 10,6 km/h (2 Bft) SW 224 0 min 0,000 mm 0,0 UV-I 0 W/m 11,6 C 13,1 C 17,7 km/h (3 Bft) 100,00 %
02.10.2019 02:12 15,2 C 13,3 C 15,0 C 79 % 1004,5 hPa 0,0 l/m 10,9 km/h (2 Bft) W-SW 244 0 min 0,000 mm 0,0 UV-I 0 W/m 11,6 C 12,9 C 14,5 km/h (3 Bft) 100,00 %
02.10.2019 02:14 15,2 C 13,3 C 15,0 C 79 % 1004,5 hPa 0,0 l/m 10,6 km/h (2 Bft) SW 218 0 min 0,000 mm 0,0 UV-I 0 W/m 11,6 C 13,1 C 17,7 km/h (3 Bft) 97,87 %
02.10.2019 02:16 15,2 C 13,3 C 15,0 C 79 % 1004,4 hPa 0,0 l/m 12,4 km/h (3 Bft) W-SW 243 0 min 0,000 mm 0,0 UV-I 0 W/m 11,6 C 12,3 C 17,7 km/h (3 Bft) 100,00 %
02.10.2019 02:18 15,2 C 13,3 C 15,0 C 79 % 1004,4 hPa 0,0 l/m 12,9 km/h (3 Bft) W-SW 245 0 min 0,000 mm 0,0 UV-I 0 W/m 11,6 C 12,2 C 17,7 km/h (3 Bft) 100,00 %
02.10.2019 02:20 15,2 C 13,3 C 15,0 C 79 % 1004,5 hPa 0,0 l/m 13,8 km/h (3 Bft) SW 232 0 min 0,000 mm 0,0 UV-I 0 W/m 11,6 C 11,8 C 19,3 km/h (3 Bft) 100,00 %
02.10.2019 02:22 15,2 C 13,3 C 15,0 C 79 % 1004,5 hPa 0,0 l/m 13,9 km/h (3 Bft) W-SW 238 0 min 0,000 mm 0,0 UV-I 0 W/m 11,6 C 11,8 C 19,3 km/h (3 Bft) 100,00 %
02.10.2019 02:24 15,2 C 13,3 C 15,0 C 79 % 1004,5 hPa 0,0 l/m 11,1 km/h (2 Bft) W-SW 248 0 min 0,000 mm 0,0 UV-I 0 W/m 11,6 C 12,9 C 17,7 km/h (3 Bft) 100,00 %
02.10.2019 02:26 15,3 C 13,3 C 15,0 C 79 % 1004,5 hPa 0,0 l/m 13,1 km/h (3 Bft) SW 229 0 min 0,000 mm 0,0 UV-I 0 W/m 11,7 C 12,2 C 17,7 km/h (3 Bft) 100,00 %
02.10.2019 02:28 15,3 C 13,3 C 15,0 C 79 % 1004,5 hPa 0,0 l/m 10,2 km/h (2 Bft) W 277 0 min 0,000 mm 0,0 UV-I 0 W/m 11,7 C 13,4 C 12,9 km/h (3 Bft) 97,37 %
02.10.2019 02:30 15,3 C 13,3 C 15,0 C 79 % 1004,5 hPa 0,0 l/m 8,2 km/h (2 Bft) W-SW 243 0 min 0,000 mm 0,0 UV-I 0 W/m 11,7 C 14,3 C 12,9 km/h (3 Bft) 100,00 %
02.10.2019 02:32 15,3 C 13,3 C 15,0 C 79 % 1004,5 hPa 0,0 l/m 7,7 km/h (2 Bft) SW 225 0 min 0,000 mm 0,0 UV-I 0 W/m 11,7 C 14,6 C 12,9 km/h (3 Bft) 100,00 %
02.10.2019 02:34 15,3 C 13,3 C 15,0 C 79 % 1004,5 hPa 0,0 l/m 10,1 km/h (2 Bft) W-SW 243 0 min 0,000 mm 0,0 UV-I 0 W/m 11,7 C 13,4 C 14,5 km/h (3 Bft) 100,00 %
02.10.2019 02:36 15,3 C 13,3 C 15,0 C 79 % 1004,4 hPa 0,0 l/m 9,4 km/h (2 Bft) SW 214 0 min 0,000 mm 0,0 UV-I 0 W/m 11,7 C 13,7 C 14,5 km/h (3 Bft) 97,87 %
02.10.2019 02:38 15,4 C 13,3 C 15,0 C 78 % 1004,4 hPa 0,0 l/m 8,6 km/h (2 Bft) W-SW 242 0 min 0,000 mm 0,0 UV-I 0 W/m 11,6 C 14,2 C 16,1 km/h (3 Bft) 100,00 %
02.10.2019 02:40 15,4 C 13,3 C 15,0 C 78 % 1004,4 hPa 0,0 l/m 7,6 km/h (2 Bft) W 259 0 min 0,000 mm 0,0 UV-I 0 W/m 11,6 C 14,7 C 11,3 km/h (2 Bft) 100,00 %
02.10.2019 02:42 15,5 C 13,3 C 15,0 C 78 % 1004,3 hPa 0,0 l/m 7,9 km/h (2 Bft) S-SW 209 0 min 0,000 mm 0,0 UV-I 0 W/m 11,7 C 14,7 C 12,9 km/h (3 Bft) 100,00 %
02.10.2019 02:44 15,6 C 13,3 C 15,0 C 78 % 1004,2 hPa 0,0 l/m 7,8 km/h (2 Bft) S-SW 211 0 min 0,000 mm 0,0 UV-I 0 W/m 11,8 C 14,8 C 11,3 km/h (2 Bft) 100,00 %
02.10.2019 02:46 15,6 C 13,3 C 15,0 C 78 % 1004,2 hPa 0,0 l/m 8,6 km/h (2 Bft) W-SW 244 0 min 0,000 mm 0,0 UV-I 0 W/m 11,8 C 14,4 C 12,9 km/h (3 Bft) 100,00 %
02.10.2019 02:48 15,6 C 13,3 C 15,0 C 78 % 1004,2 hPa 0,0 l/m 7,9 km/h (2 Bft) W-SW 242 0 min 0,000 mm 0,0 UV-I 0 W/m 11,8 C 14,8 C 11,3 km/h (2 Bft) 100,00 %
02.10.2019 02:50 15,6 C 13,3 C 15,0 C 78 % 1004,2 hPa 0,0 l/m 7,4 km/h (2 Bft) W-SW 251 0 min 0,000 mm 0,0 UV-I 0 W/m 11,8 C 15,1 C 11,3 km/h (2 Bft) 100,00 %
02.10.2019 02:52 15,5 C 13,3 C 15,0 C 78 % 1004,2 hPa 0,0 l/m 6,2 km/h (2 Bft) SW 236 0 min 0,000 mm 0,0 UV-I 0 W/m 11,7 C 15,5 C 9,7 km/h (2 Bft) 98,00 %
02.10.2019 02:54 15,5 C 13,3 C 15,0 C 78 % 1004,2 hPa 0,0 l/m 9,2 km/h (2 Bft) W-SW 249 0 min 0,000 mm 0,0 UV-I 0 W/m 11,7 C 14,0 C 12,9 km/h (3 Bft) 100,00 %
02.10.2019 02:56 15,4 C 13,3 C 15,0 C 79 % 1004,2 hPa 0,0 l/m 8,4 km/h (2 Bft) W-SW 244 0 min 0,000 mm 0,0 UV-I 0 W/m 11,8 C 14,3 C 12,9 km/h (3 Bft) 100,00 %
02.10.2019 02:58 15,4 C 13,3 C 15,0 C 79 % 1004,2 hPa 0,0 l/m 7,0 km/h (2 Bft) W-SW 242 0 min 0,000 mm 0,0 UV-I 0 W/m 11,8 C 15,1 C 12,9 km/h (3 Bft) 100,00 %
02.10.2019 03:00 15,4 C 13,3 C 15,0 C 79 % 1004,2 hPa 0,0 l/m 6,0 km/h (2 Bft) SW 230 0 min 0,025 mm 0,0 UV-I 0 W/m 11,8 C 15,4 C 9,7 km/h (2 Bft) 100,00 %
02.10.2019 03:02 15,4 C 13,3 C 15,0 C 79 % 1004,1 hPa 0,0 l/m 7,1 km/h (2 Bft) SW 232 0 min 0,000 mm 0,0 UV-I 0 W/m 11,8 C 15,0 C 12,9 km/h (3 Bft) 97,14 %
02.10.2019 03:04 15,4 C 13,3 C 15,0 C 79 % 1004,1 hPa 0,0 l/m 8,0 km/h (2 Bft) W-SW 239 0 min 0,000 mm 0,0 UV-I 0 W/m 11,8 C 14,5 C 14,5 km/h (3 Bft) 98,00 %
02.10.2019 03:06 15,4 C 13,3 C 15,0 C 79 % 1004,1 hPa 0,0 l/m 7,4 km/h (2 Bft) W-SW 238 0 min 0,000 mm 0,0 UV-I 0 W/m 11,8 C 14,8 C 12,9 km/h (3 Bft) 95,74 %
02.10.2019 03:08 15,4 C 13,3 C 15,0 C 79 % 1004,1 hPa 0,0 l/m 6,4 km/h (2 Bft) W-SW 257 0 min 0,000 mm 0,0 UV-I 0 W/m 11,8 C 15,4 C 11,3 km/h (2 Bft) 97,87 %
02.10.2019 03:10 15,4 C 13,3 C 15,0 C 79 % 1004,2 hPa 0,0 l/m 6,5 km/h (2 Bft) W-SW 250 0 min 0,000 mm 0,0 UV-I 0 W/m 11,8 C 15,4 C 9,7 km/h (2 Bft) 96,00 %
02.10.2019 03:12 15,4 C 13,3 C 15,0 C 79 % 1004,1 hPa 0,0 l/m 5,8 km/h (2 Bft) W-SW 242 0 min 0,000 mm 0,0 UV-I 0 W/m 11,8 C 15,4 C 8,0 km/h (2 Bft) 98,00 %
02.10.2019 03:14 15,4 C 13,3 C 15,0 C 79 % 1004,1 hPa 0,0 l/m 4,5 km/h (1 Bft) W-SW 257 0 min 0,000 mm 0,0 UV-I 0 W/m 11,8 C 15,4 C 6,4 km/h (2 Bft) 98,00 %
02.10.2019 03:16 15,4 C 13,3 C 15,0 C 79 % 1004,1 hPa 0,0 l/m 3,9 km/h (1 Bft) W-SW 244 0 min 0,000 mm 0,0 UV-I 0 W/m 11,8 C 15,4 C 6,4 km/h (2 Bft) 97,44 %
02.10.2019 03:18 15,4 C 13,3 C 15,0 C 79 % 1004,1 hPa 0,0 l/m 3,6 km/h (1 Bft) W-SW 244 0 min 0,000 mm 0,0 UV-I 0 W/m 11,8 C 15,4 C 6,4 km/h (2 Bft) 98,11 %
02.10.2019 03:20 15,4 C 13,3 C 15,0 C 80 % 1004,2 hPa 0,0 l/m 3,9 km/h (1 Bft) SW 215 0 min 0,000 mm 0,0 UV-I 0 W/m 12,0 C 15,4 C 4,8 km/h (1 Bft) 96,00 %
02.10.2019 03:22 15,4 C 13,3 C 15,0 C 80 % 1004,2 hPa 0,0 l/m 3,1 km/h (1 Bft) S-SW 209 0 min 0,000 mm 0,0 UV-I 0 W/m 12,0 C 15,4 C 4,8 km/h (1 Bft) 95,12 %
02.10.2019 03:24 15,3 C 13,3 C 15,0 C 80 % 1004,2 hPa 0,0 l/m 5,5 km/h (1 Bft) S-SO 160 0 min 0,000 mm 0,0 UV-I 0 W/m 11,9 C 15,3 C 8,0 km/h (2 Bft) 90,57 %
02.10.2019 03:26 15,2 C 13,3 C 15,0 C 80 % 1004,2 hPa 0,0 l/m 6,3 km/h (2 Bft) S-SO 153 0 min 0,000 mm 0,0 UV-I 0 W/m 11,8 C 15,2 C 8,0 km/h (2 Bft) 95,45 %
02.10.2019 03:28 15,2 C 13,3 C 15,0 C 81 % 1004,2 hPa 0,0 l/m 6,2 km/h (2 Bft) S 173 0 min 0,000 mm 0,0 UV-I 0 W/m 12,0 C 15,2 C 8,0 km/h (2 Bft) 97,87 %
02.10.2019 03:30 15,2 C 13,3 C 15,0 C 81 % 1004,2 hPa 0,0 l/m 6,5 km/h (2 Bft) S 174 0 min 0,000 mm 0,0 UV-I 0 W/m 12,0 C 15,2 C 9,7 km/h (2 Bft) 97,56 %
02.10.2019 03:32 15,2 C 13,3 C 15,0 C 81 % 1004,1 hPa 0,0 l/m 4,9 km/h (1 Bft) S-SO 167 0 min 0,000 mm 0,0 UV-I 0 W/m 12,0 C 15,2 C 8,0 km/h (2 Bft) 96,23 %
02.10.2019 03:34 15,3 C 13,3 C 15,0 C 80 % 1004,2 hPa 0,0 l/m 6,9 km/h (2 Bft) SO 142 0 min 0,000 mm 0,0 UV-I 0 W/m 11,9 C 15,0 C 11,3 km/h (2 Bft) 97,87 %
02.10.2019 03:36 15,3 C 13,3 C 15,0 C 80 % 1004,2 hPa 0,0 l/m 6,5 km/h (2 Bft) S-SO 165 0 min 0,000 mm 0,0 UV-I 0 W/m 11,9 C 15,3 C 9,7 km/h (2 Bft) 94,74 %
02.10.2019 03:38 15,3 C 13,3 C 15,0 C 80 % 1004,2 hPa 0,0 l/m 7,9 km/h (2 Bft) S-SO 158 0 min 0,000 mm 0,0 UV-I 0 W/m 11,9 C 14,5 C 11,3 km/h (2 Bft) 98,00 %
02.10.2019 03:40 15,4 C 13,3 C 15,0 C 80 % 1004,2 hPa 0,0 l/m 8,1 km/h (2 Bft) SO 140 0 min 0,000 mm 0,0 UV-I 0 W/m 12,0 C 14,5 C 11,3 km/h (2 Bft) 97,73 %
02.10.2019 03:42 15,4 C 13,3 C 15,0 C 80 % 1004,2 hPa 0,0 l/m 7,7 km/h (2 Bft) SO 145 0 min 0,000 mm 0,0 UV-I 0 W/m 12,0 C 14,7 C 11,3 km/h (2 Bft) 96,43 %
02.10.2019 03:44 15,4 C 13,3 C 15,0 C 80 % 1004,2 hPa 0,0 l/m 8,9 km/h (2 Bft) S-SO 165 0 min 0,000 mm 0,0 UV-I 0 W/m 12,0 C 14,1 C 11,3 km/h (2 Bft) 100,00 %
02.10.2019 03:46 15,4 C 13,3 C 15,0 C 80 % 1004,1 hPa 0,0 l/m 7,9 km/h (2 Bft) S-SO 164 0 min 0,000 mm 0,0 UV-I 0 W/m 12,0 C 14,6 C 11,3 km/h (2 Bft) 95,45 %
02.10.2019 03:48 15,4 C 13,3 C 15,0 C 80 % 1004,1 hPa 0,0 l/m 7,2 km/h (2 Bft) S-SO 166 0 min 0,000 mm 0,0 UV-I 0 W/m 12,0 C 15,0 C 8,0 km/h (2 Bft) 98,00 %
02.10.2019 03:50 15,5 C 13,3 C 15,6 C 80 % 1004,1 hPa 0,0 l/m 6,8 km/h (2 Bft) S-SO 160 0 min 0,000 mm 0,0 UV-I 0 W/m 12,1 C 15,3 C 11,3 km/h (2 Bft) 97,44 %
02.10.2019 03:52 15,6 C 13,3 C 15,6 C 79 % 1004,1 hPa 0,0 l/m 5,8 km/h (2 Bft) S-SO 167 0 min 0,000 mm 0,0 UV-I 0 W/m 12,0 C 15,6 C 9,7 km/h (2 Bft) 98,18 %
02.10.2019 03:54 15,7 C 13,3 C 15,6 C 79 % 1004,0 hPa 0,0 l/m 4,8 km/h (1 Bft) S 185 0 min 0,000 mm 0,0 UV-I 0 W/m 12,1 C 15,7 C 8,0 km/h (2 Bft) 98,08 %
02.10.2019 03:56 15,7 C 13,3 C 15,6 C 79 % 1004,0 hPa 0,0 l/m 3,0 km/h (1 Bft) S-SW 193 0 min 0,000 mm 0,0 UV-I 0 W/m 12,1 C 15,7 C 4,8 km/h (1 Bft) 100,00 %
02.10.2019 03:58 15,7 C 13,3 C 15,0 C 79 % 1003,9 hPa 0,0 l/m 4,0 km/h (1 Bft) S-SW 200 0 min 0,000 mm 0,0 UV-I 0 W/m 12,1 C 15,7 C 6,4 km/h (2 Bft) 100,00 %
02.10.2019 04:00 15,7 C 13,3 C 15,0 C 79 % 1004,0 hPa 0,0 l/m 5,2 km/h (1 Bft) S 190 0 min 0,026 mm 0,0 UV-I 0 W/m 12,1 C 15,7 C 8,0 km/h (2 Bft) 100,00 %
02.10.2019 04:02 15,7 C 13,3 C 15,0 C 79 % 1004,0 hPa 0,0 l/m 4,6 km/h (1 Bft) S-SW 197 0 min 0,000 mm 0,0 UV-I 0 W/m 12,1 C 15,7 C 6,4 km/h (2 Bft) 100,00 %
02.10.2019 04:04 15,8 C 13,3 C 15,0 C 79 % 1004,0 hPa 0,0 l/m 5,9 km/h (2 Bft) SW 231 0 min 0,000 mm 0,0 UV-I 0 W/m 12,2 C 15,8 C 9,7 km/h (2 Bft) 98,11 %
02.10.2019 04:06 15,8 C 13,3 C 15,0 C 79 % 1004,0 hPa 0,0 l/m 5,8 km/h (2 Bft) S 171 0 min 0,000 mm 0,0 UV-I 0 W/m 12,2 C 15,8 C 8,0 km/h (2 Bft) 97,87 %
02.10.2019 04:08 15,8 C 13,3 C 15,0 C 79 % 1004,0 hPa 0,0 l/m 4,4 km/h (1 Bft) S-SW 211 0 min 0,000 mm 0,0 UV-I 0 W/m 12,2 C 15,8 C 6,4 km/h (2 Bft) 100,00 %
02.10.2019 04:10 15,8 C 13,3 C 15,0 C 79 % 1004,0 hPa 0,0 l/m 6,5 km/h (2 Bft) W-SW 245 0 min 0,000 mm 0,0 UV-I 0 W/m 12,2 C 15,8 C 9,7 km/h (2 Bft) 100,00 %
02.10.2019 04:12 15,8 C 13,3 C 15,0 C 79 % 1003,9 hPa 0,0 l/m 5,1 km/h (1 Bft) W-SW 244 0 min 0,000 mm 0,0 UV-I 0 W/m 12,2 C 15,8 C 8,0 km/h (2 Bft) 100,00 %
02.10.2019 04:14 15,7 C 13,3 C 15,0 C 79 % 1003,8 hPa 0,0 l/m 4,7 km/h (1 Bft) W-SW 245 0 min 0,000 mm 0,0 UV-I 0 W/m 12,1 C 15,7 C 6,4 km/h (2 Bft) 100,00 %
02.10.2019 04:16 15,6 C 13,3 C 15,0 C 80 % 1003,8 hPa 0,0 l/m 4,1 km/h (1 Bft) W-SW 245 0 min 0,000 mm 0,0 UV-I 0 W/m 12,2 C 15,6 C 4,8 km/h (1 Bft) 100,00 %
02.10.2019 04:18 15,4 C 13,3 C 15,0 C 80 % 1003,7 hPa 0,0 l/m 3,4 km/h (1 Bft) W-SW 245 0 min 0,000 mm 0,0 UV-I 0 W/m 12,0 C 15,4 C 6,4 km/h (2 Bft) 97,87 %
02.10.2019 04:20 15,3 C 13,3 C 15,0 C 81 % 1003,7 hPa 0,0 l/m 4,7 km/h (1 Bft) W-SW 243 0 min 0,000 mm 0,0 UV-I 0 W/m 12,1 C 15,3 C 6,4 km/h (2 Bft) 100,00 %
02.10.2019 04:22 15,2 C 13,3 C 15,0 C 81 % 1003,7 hPa 0,0 l/m 4,0 km/h (1 Bft) W-SW 242 0 min 0,000 mm 0,0 UV-I 0 W/m 12,0 C 15,2 C 4,8 km/h (1 Bft) 100,00 %
02.10.2019 04:24 15,1 C 13,3 C 15,0 C 82 % 1003,7 hPa 0,0 l/m 3,0 km/h (1 Bft) W-SW 245 0 min 0,000 mm 0,0 UV-I 0 W/m 12,0 C 15,1 C 4,8 km/h (1 Bft) 100,00 %
02.10.2019 04:26 15,1 C 13,3 C 15,0 C 82 % 1003,7 hPa 0,0 l/m 4,0 km/h (1 Bft) W-SW 250 0 min 0,000 mm 0,0 UV-I 0 W/m 12,0 C 15,1 C 6,4 km/h (2 Bft) 98,00 %
02.10.2019 04:28 15,1 C 13,3 C 15,0 C 82 % 1003,7 hPa 0,0 l/m 3,4 km/h (1 Bft) SW 233 0 min 0,000 mm 0,0 UV-I 0 W/m 12,0 C 15,1 C 6,4 km/h (2 Bft) 97,73 %
02.10.2019 04:30 15,2 C 13,3 C 15,0 C 82 % 1003,7 hPa 0,0 l/m 3,5 km/h (1 Bft) W-SW 238 0 min 0,000 mm 0,0 UV-I 0 W/m 12,1 C 15,2 C 4,8 km/h (1 Bft) 96,15 %
02.10.2019 04:32 15,2 C 13,3 C 15,0 C 82 % 1003,7 hPa 0,0 l/m 3,7 km/h (1 Bft) W-SW 243 0 min 0,000 mm 0,0 UV-I 0 W/m 12,1 C 15,2 C 6,4 km/h (2 Bft) 97,87 %
02.10.2019 04:34 15,3 C 13,3 C 15,0 C 82 % 1003,7 hPa 0,0 l/m 3,7 km/h (1 Bft) W 271 0 min 0,000 mm 0,0 UV-I 0 W/m 12,2 C 15,3 C 8,0 km/h (2 Bft) 97,92 %
02.10.2019 04:36 15,3 C 13,3 C 14,4 C 82 % 1003,8 hPa 0,0 l/m 4,9 km/h (1 Bft) W 266 0 min 0,000 mm 0,0 UV-I 0 W/m 12,2 C 15,3 C 8,0 km/h (2 Bft) 97,56 %
02.10.2019 04:38 15,4 C 13,3 C 15,0 C 81 % 1003,8 hPa 0,0 l/m 4,8 km/h (1 Bft) W 264 0 min 0,000 mm 0,0 UV-I 0 W/m 12,2 C 15,4 C 9,7 km/h (2 Bft) 98,00 %
02.10.2019 04:40 15,5 C 13,3 C 15,0 C 81 % 1003,8 hPa 0,0 l/m 4,9 km/h (1 Bft) W-SW 258 0 min 0,000 mm 0,0 UV-I 0 W/m 12,3 C 15,5 C 9,7 km/h (2 Bft) 98,00 %
02.10.2019 04:42 15,5 C 13,3 C 15,0 C 81 % 1003,8 hPa 0,0 l/m 5,4 km/h (1 Bft) W-SW 244 0 min 0,000 mm 0,0 UV-I 0 W/m 12,3 C 15,5 C 11,3 km/h (2 Bft) 97,37 %
02.10.2019 04:44 15,6 C 13,3 C 15,0 C 80 % 1003,9 hPa 0,0 l/m 6,9 km/h (2 Bft) SW 234 0 min 0,000 mm 0,0 UV-I 0 W/m 12,2 C 15,3 C 12,9 km/h (3 Bft) 98,11 %
02.10.2019 04:46 15,6 C 13,3 C 15,0 C 80 % 1003,9 hPa 0,0 l/m 5,5 km/h (1 Bft) SW 232 0 min 0,000 mm 0,0 UV-I 0 W/m 12,2 C 15,6 C 11,3 km/h (2 Bft) 97,87 %
02.10.2019 04:48 15,6 C 13,3 C 15,0 C 80 % 1003,9 hPa 0,0 l/m 6,8 km/h (2 Bft) W 265 0 min 0,000 mm 0,0 UV-I 0 W/m 12,2 C 15,4 C 11,3 km/h (2 Bft) 93,62 %
02.10.2019 04:50 15,6 C 13,3 C 15,0 C 80 % 1003,9 hPa 0,0 l/m 6,5 km/h (2 Bft) W-SW 252 0 min 0,000 mm 0,0 UV-I 0 W/m 12,2 C 15,6 C 9,7 km/h (2 Bft) 97,87 %
02.10.2019 04:52 15,6 C 13,3 C 15,0 C 80 % 1004,0 hPa 0,0 l/m 6,7 km/h (2 Bft) W-SW 250 0 min 0,000 mm 0,0 UV-I 0 W/m 12,2 C 15,4 C 11,3 km/h (2 Bft) 100,00 %
02.10.2019 04:54 15,7 C 13,3 C 15,0 C 80 % 1004,0 hPa 0,0 l/m 7,0 km/h (2 Bft) W-SW 246 0 min 0,000 mm 0,0 UV-I 0 W/m 12,3 C 15,4 C 12,9 km/h (3 Bft) 97,87 %
02.10.2019 04:56 15,7 C 13,3 C 15,6 C 80 % 1004,0 hPa 0,0 l/m 7,6 km/h (2 Bft) W 263 0 min 0,000 mm 0,0 UV-I 0 W/m 12,3 C 15,0 C 11,3 km/h (2 Bft) 97,56 %
02.10.2019 04:58 15,7 C 13,3 C 15,0 C 80 % 1003,9 hPa 0,0 l/m 9,9 km/h (2 Bft) W-SW 251 0 min 0,000 mm 0,0 UV-I 0 W/m 12,3 C 13,9 C 14,5 km/h (3 Bft) 95,74 %
02.10.2019 05:00 15,7 C 13,3 C 15,6 C 80 % 1003,9 hPa 0,0 l/m 9,9 km/h (2 Bft) W 269 0 min 0,025 mm 0,0 UV-I 0 W/m 12,3 C 13,9 C 12,9 km/h (3 Bft) 98,00 %
02.10.2019 05:02 15,8 C 13,3 C 15,6 C 80 % 1003,8 hPa 0,0 l/m 8,8 km/h (2 Bft) W 276 0 min 0,000 mm 0,0 UV-I 0 W/m 12,4 C 14,5 C 14,5 km/h (3 Bft) 98,00 %
02.10.2019 05:04 15,8 C 13,3 C 15,6 C 79 % 1003,8 hPa 0,0 l/m 9,5 km/h (2 Bft) W-SW 253 0 min 0,000 mm 0,0 UV-I 0 W/m 12,2 C 14,2 C 14,5 km/h (3 Bft) 97,87 %
02.10.2019 05:06 15,9 C 13,3 C 15,6 C 79 % 1003,7 hPa 0,0 l/m 7,8 km/h (2 Bft) W 265 0 min 0,000 mm 0,0 UV-I 0 W/m 12,3 C 15,1 C 12,9 km/h (3 Bft) 97,44 %
02.10.2019 05:09 15,9 C 13,3 C 15,6 C 79 % 1003,8 hPa 0,0 l/m 11,5 km/h (2 Bft) W-NW 290 0 min 0,000 mm 0,0 UV-I 0 W/m 12,3 C 13,5 C 17,7 km/h (3 Bft) 97,01 %
02.10.2019 05:10 15,9 C 13,3 C 15,6 C 79 % 1003,8 hPa 0,0 l/m 14,8 km/h (3 Bft) W 266 0 min 0,000 mm 0,0 UV-I 0 W/m 12,3 C 12,3 C 17,7 km/h (3 Bft) 100,00 %
02.10.2019 05:12 15,9 C 13,3 C 15,6 C 79 % 1003,7 hPa 0,0 l/m 16,4 km/h (3 Bft) W 267 0 min 0,000 mm 0,0 UV-I 0 W/m 12,3 C 11,9 C 24,1 km/h (4 Bft) 98,36 %
02.10.2019 05:14 15,9 C 13,3 C 15,6 C 78 % 1003,8 hPa 0,0 l/m 19,3 km/h (3 Bft) W 268 0 min 0,000 mm 0,0 UV-I 0 W/m 12,1 C 11,1 C 30,6 km/h (5 Bft) 94,00 %
02.10.2019 05:16 15,9 C 13,3 C 15,6 C 78 % 1003,8 hPa 0,0 l/m 19,4 km/h (3 Bft) W 271 0 min 0,000 mm 0,0 UV-I 0 W/m 12,1 C 11,1 C 27,4 km/h (4 Bft) 98,00 %
02.10.2019 05:18 16,0 C 13,3 C 15,6 C 78 % 1003,8 hPa 0,0 l/m 20,4 km/h (4 Bft) W-SW 256 0 min 0,000 mm 0,0 UV-I 0 W/m 12,2 C 10,9 C 30,6 km/h (5 Bft) 97,56 %
02.10.2019 05:20 15,9 C 13,3 C 15,6 C 78 % 1003,8 hPa 0,0 l/m 19,9 km/h (4 Bft) W-SW 250 0 min 0,000 mm 0,0 UV-I 0 W/m 12,1 C 10,9 C 27,4 km/h (4 Bft) 97,87 %
02.10.2019 05:22 15,9 C 13,3 C 15,6 C 78 % 1003,8 hPa 0,0 l/m 22,4 km/h (4 Bft) W-SW 258 0 min 0,000 mm 0,0 UV-I 0 W/m 12,1 C 10,4 C 32,2 km/h (5 Bft) 96,00 %
02.10.2019 05:24 15,9 C 13,3 C 15,6 C 79 % 1003,8 hPa 0,0 l/m 18,1 km/h (3 Bft) W 281 0 min 0,000 mm 0,0 UV-I 0 W/m 12,3 C 11,4 C 30,6 km/h (5 Bft) 95,12 %
02.10.2019 05:26 15,9 C 13,3 C 15,6 C 79 % 1003,8 hPa 0,0 l/m 16,5 km/h (3 Bft) SW 232 0 min 0,000 mm 0,0 UV-I 0 W/m 12,3 C 11,8 C 25,7 km/h (4 Bft) 96,00 %
02.10.2019 05:28 15,8 C 13,3 C 15,6 C 79 % 1003,8 hPa 0,0 l/m 16,7 km/h (3 Bft) W-NW 285 0 min 0,000 mm 0,0 UV-I 0 W/m 12,2 C 11,7 C 25,7 km/h (4 Bft) 92,68 %
02.10.2019 05:30 15,8 C 13,3 C 15,6 C 80 % 1003,8 hPa 0,0 l/m 18,3 km/h (3 Bft) W 276 0 min 0,000 mm 0,0 UV-I 0 W/m 12,4 C 11,2 C 30,6 km/h (5 Bft) 91,49 %
02.10.2019 05:32 15,7 C 13,3 C 15,6 C 80 % 1003,7 hPa 0,0 l/m 16,3 km/h (3 Bft) W-SW 241 0 min 0,000 mm 0,0 UV-I 0 W/m 12,3 C 11,6 C 22,5 km/h (4 Bft) 93,62 %
02.10.2019 05:34 15,7 C 13,3 C 15,6 C 80 % 1003,8 hPa 0,0 l/m 14,9 km/h (3 Bft) W 267 0 min 0,000 mm 0,0 UV-I 0 W/m 12,3 C 12,1 C 22,5 km/h (4 Bft) 96,00 %
02.10.2019 05:36 15,6 C 13,3 C 15,6 C 80 % 1003,8 hPa 0,0 l/m 15,2 km/h (3 Bft) W 271 0 min 0,000 mm 0,0 UV-I 0 W/m 12,2 C 11,9 C 22,5 km/h (4 Bft) 94,34 %
02.10.2019 05:38 15,6 C 13,3 C 15,6 C 81 % 1003,8 hPa 0,0 l/m 14,2 km/h (3 Bft) W 277 0 min 0,000 mm 0,0 UV-I 0 W/m 12,3 C 12,2 C 20,9 km/h (4 Bft) 95,12 %
02.10.2019 05:40 15,6 C 13,3 C 15,6 C 81 % 1003,8 hPa 0,0 l/m 14,7 km/h (3 Bft) W 273 0 min 0,000 mm 0,0 UV-I 0 W/m 12,3 C 12,0 C 22,5 km/h (4 Bft) 95,74 %
02.10.2019 05:42 15,6 C 13,3 C 15,6 C 81 % 1003,8 hPa 0,0 l/m 13,6 km/h (3 Bft) W 264 0 min 0,000 mm 0,0 UV-I 0 W/m 12,3 C 12,4 C 17,7 km/h (3 Bft) 94,00 %
02.10.2019 05:44 15,6 C 13,3 C 15,6 C 81 % 1003,8 hPa 0,0 l/m 15,8 km/h (3 Bft) W-SW 255 0 min 0,000 mm 0,0 UV-I 0 W/m 12,3 C 11,7 C 24,1 km/h (4 Bft) 95,74 %
02.10.2019 05:46 15,6 C 13,3 C 15,6 C 81 % 1003,8 hPa 0,0 l/m 14,9 km/h (3 Bft) W 262 0 min 0,000 mm 0,0 UV-I 0 W/m 12,3 C 12,0 C 24,1 km/h (4 Bft) 94,44 %
02.10.2019 05:48 15,5 C 13,3 C 15,6 C 81 % 1003,8 hPa 0,0 l/m 17,7 km/h (3 Bft) W-SW 258 0 min 0,000 mm 0,0 UV-I 0 W/m 12,3 C 11,0 C 29,0 km/h (5 Bft) 94,34 %
02.10.2019 05:50 15,5 C 13,3 C 15,6 C 81 % 1003,8 hPa 0,0 l/m 17,7 km/h (3 Bft) W-SW 254 0 min 0,000 mm 0,0 UV-I 0 W/m 12,3 C 11,0 C 25,7 km/h (4 Bft) 95,45 %
02.10.2019 05:52 15,4 C 13,3 C 15,0 C 81 % 1003,8 hPa 0,0 l/m 14,2 km/h (3 Bft) W-SW 237 0 min 0,000 mm 0,0 UV-I 0 W/m 12,2 C 11,9 C 20,9 km/h (4 Bft) 96,43 %
02.10.2019 05:54 15,4 C 13,3 C 15,0 C 82 % 1003,8 hPa 0,0 l/m 13,8 km/h (3 Bft) SW 233 0 min 0,000 mm 0,0 UV-I 0 W/m 12,3 C 12,1 C 22,5 km/h (4 Bft) 92,11 %
02.10.2019 05:56 15,3 C 13,3 C 15,0 C 82 % 1003,7 hPa 0,0 l/m 12,3 km/h (3 Bft) W-SW 252 0 min 0,000 mm 0,0 UV-I 0 W/m 12,2 C 12,5 C 17,7 km/h (3 Bft) 96,00 %
02.10.2019 05:58 15,3 C 13,3 C 15,0 C 83 % 1003,8 hPa 0,0 l/m 13,0 km/h (3 Bft) SW 228 0 min 0,000 mm 0,0 UV-I 0 W/m 12,4 C 12,2 C 19,3 km/h (3 Bft) 95,74 %
02.10.2019 06:00 15,3 C 13,3 C 15,0 C 83 % 1003,7 hPa 0,0 l/m 15,2 km/h (3 Bft) W-SW 247 0 min 0,051 mm 0,0 UV-I 0 W/m 12,4 C 11,5 C 27,4 km/h (4 Bft) 95,45 %
02.10.2019 06:02 15,2 C 13,3 C 15,0 C 83 % 1003,7 hPa 0,0 l/m 17,2 km/h (3 Bft) W-SW 253 0 min 0,000 mm 0,0 UV-I 0 W/m 12,3 C 10,8 C 24,1 km/h (4 Bft) 94,34 %
02.10.2019 06:04 15,2 C 13,3 C 15,0 C 83 % 1003,7 hPa 0,0 l/m 19,8 km/h (3 Bft) W 259 0 min 0,000 mm 0,0 UV-I 0 W/m 12,3 C 10,1 C 29,0 km/h (5 Bft) 95,12 %
02.10.2019 06:06 15,2 C 13,3 C 15,0 C 83 % 1003,8 hPa 0,0 l/m 17,1 km/h (3 Bft) W-SW 241 0 min 0,000 mm 0,0 UV-I 0 W/m 12,3 C 10,8 C 25,7 km/h (4 Bft) 98,11 %
02.10.2019 06:08 15,2 C 13,3 C 15,0 C 83 % 1003,8 hPa 0,0 l/m 18,9 km/h (3 Bft) W-SW 240 0 min 0,000 mm 0,0 UV-I 0 W/m 12,3 C 10,3 C 29,0 km/h (5 Bft) 97,56 %
02.10.2019 06:10 15,1 C 13,3 C 14,4 C 84 % 1003,7 hPa 0,0 l/m 19,7 km/h (3 Bft) W 260 0 min 0,000 mm 0,0 UV-I 0 W/m 12,4 C 10,0 C 27,4 km/h (4 Bft) 96,43 %
02.10.2019 06:12 15,0 C 13,3 C 14,4 C 84 % 1003,7 hPa 0,0 l/m 17,1 km/h (3 Bft) W 279 0 min 0,000 mm 0,0 UV-I 0 W/m 12,3 C 10,5 C 24,1 km/h (4 Bft) 100,00 %
02.10.2019 06:14 14,9 C 13,3 C 13,9 C 85 % 1003,7 hPa 0,0 l/m 19,0 km/h (3 Bft) W 267 0 min 0,000 mm 0,0 UV-I 0 W/m 12,4 C 9,9 C 27,4 km/h (4 Bft) 94,00 %
02.10.2019 06:16 14,8 C 13,3 C 13,9 C 85 % 1003,6 hPa 0,0 l/m 17,6 km/h (3 Bft) W-SW 240 0 min 0,000 mm 0,0 UV-I 0 W/m 12,3 C 10,1 C 24,1 km/h (4 Bft) 98,00 %
02.10.2019 06:18 14,7 C 13,3 C 13,9 C 85 % 1003,7 hPa 0,0 l/m 16,6 km/h (3 Bft) W 266 0 min 0,000 mm 0,0 UV-I 0 W/m 12,2 C 10,3 C 22,5 km/h (4 Bft) 97,87 %
02.10.2019 06:20 14,6 C 13,3 C 13,9 C 86 % 1003,7 hPa 0,0 l/m 15,0 km/h (3 Bft) SW 217 0 min 0,000 mm 0,0 UV-I 0 W/m 12,3 C 10,7 C 22,5 km/h (4 Bft) 100,00 %
02.10.2019 06:22 14,6 C 13,3 C 13,9 C 86 % 1003,7 hPa 0,0 l/m 16,2 km/h (3 Bft) W-SW 255 0 min 0,000 mm 0,0 UV-I 0 W/m 12,3 C 10,3 C 25,7 km/h (4 Bft) 100,00 %
02.10.2019 06:24 14,5 C 13,3 C 13,9 C 86 % 1003,7 hPa 0,0 l/m 14,2 km/h (3 Bft) W 265 0 min 0,000 mm 0,0 UV-I 0 W/m 12,2 C 10,9 C 20,9 km/h (4 Bft) 100,00 %
02.10.2019 06:26 14,4 C 13,3 C 13,9 C 86 % 1003,7 hPa 0,0 l/m 16,1 km/h (3 Bft) W-SW 242 0 min 0,000 mm 0,0 UV-I 0 W/m 12,1 C 10,1 C 24,1 km/h (4 Bft) 100,00 %
02.10.2019 06:28 14,4 C 13,3 C 13,9 C 87 % 1003,6 hPa 0,0 l/m 15,9 km/h (3 Bft) W-SW 247 0 min 0,000 mm 0,0 UV-I 0 W/m 12,3 C 10,2 C 24,1 km/h (4 Bft) 100,00 %
02.10.2019 06:30 14,4 C 13,3 C 13,9 C 87 % 1003,6 hPa 0,0 l/m 14,2 km/h (3 Bft) W 273 0 min 0,000 mm 0,0 UV-I 0 W/m 12,3 C 10,7 C 20,9 km/h (4 Bft) 100,00 %
02.10.2019 06:32 14,4 C 13,3 C 13,9 C 87 % 1003,6 hPa 0,0 l/m 15,6 km/h (3 Bft) SW 235 0 min 0,000 mm 0,0 UV-I 0 W/m 12,3 C 10,3 C 22,5 km/h (4 Bft) 100,00 %
02.10.2019 06:34 14,3 C 13,3 C 14,4 C 87 % 1003,6 hPa 0,0 l/m 16,5 km/h (3 Bft) SW 231 0 min 0,000 mm 0,0 UV-I 0 W/m 12,2 C 9,9 C 25,7 km/h (4 Bft) 98,00 %
02.10.2019 06:36 14,3 C 13,3 C 14,4 C 87 % 1003,6 hPa 0,0 l/m 16,7 km/h (3 Bft) SW 232 0 min 0,000 mm 0,0 UV-I 0 W/m 12,2 C 9,8 C 22,5 km/h (4 Bft) 97,87 %
02.10.2019 06:38 14,3 C 13,3 C 14,4 C 87 % 1003,5 hPa 0,0 l/m 15,7 km/h (3 Bft) SW 229 0 min 0,000 mm 0,0 UV-I 0 W/m 12,2 C 10,1 C 22,5 km/h (4 Bft) 97,56 %
02.10.2019 06:40 14,4 C 13,3 C 14,4 C 87 % 1003,5 hPa 0,0 l/m 13,2 km/h (3 Bft) SW 236 0 min 0,000 mm 0,0 UV-I 0 W/m 12,3 C 11,1 C 19,3 km/h (3 Bft) 100,00 %
02.10.2019 06:42 14,4 C 13,3 C 14,4 C 87 % 1003,5 hPa 0,0 l/m 17,1 km/h (3 Bft) W 263 0 min 0,000 mm 0,0 UV-I 0 W/m 12,3 C 9,8 C 27,4 km/h (4 Bft) 100,00 %
02.10.2019 06:44 14,4 C 13,3 C 14,4 C 87 % 1003,4 hPa 0,0 l/m 20,0 km/h (4 Bft) W-SW 240 0 min 0,000 mm 0,0 UV-I 0 W/m 12,3 C 9,0 C 29,0 km/h (5 Bft) 100,00 %
02.10.2019 06:46 14,5 C 13,3 C 14,4 C 86 % 1003,4 hPa 0,0 l/m 20,0 km/h (4 Bft) W-SW 246 0 min 0,000 mm 0,0 UV-I 0 W/m 12,2 C 9,1 C 35,4 km/h (5 Bft) 100,00 %
02.10.2019 06:48 14,6 C 13,3 C 14,4 C 86 % 1003,5 hPa 0,0 l/m 18,5 km/h (3 Bft) W-SW 239 0 min 0,000 mm 0,0 UV-I 0 W/m 12,3 C 9,6 C 27,4 km/h (4 Bft) 100,00 %
02.10.2019 06:50 14,6 C 13,3 C 14,4 C 86 % 1003,4 hPa 0,0 l/m 21,2 km/h (4 Bft) W-SW 241 0 min 0,000 mm 0,0 UV-I 0 W/m 12,3 C 8,9 C 35,4 km/h (5 Bft) 100,00 %
02.10.2019 06:52 14,6 C 13,3 C 14,4 C 86 % 1003,4 hPa 0,0 l/m 21,8 km/h (4 Bft) W-SW 254 0 min 0,000 mm 0,0 UV-I 0 W/m 12,3 C 8,8 C 32,2 km/h (5 Bft) 97,62 %
02.10.2019 06:54 14,6 C 13,3 C 14,4 C 86 % 1003,4 hPa 0,0 l/m 17,4 km/h (3 Bft) W-SW 242 0 min 0,000 mm 0,0 UV-I 0 W/m 12,3 C 10,0 C 24,1 km/h (4 Bft) 100,00 %
02.10.2019 06:56 14,6 C 13,3 C 14,4 C 86 % 1003,5 hPa 0,0 l/m 19,6 km/h (3 Bft) W-SW 238 0 min 0,000 mm 0,0 UV-I 0 W/m 12,3 C 9,3 C 29,0 km/h (5 Bft) 100,00 %
02.10.2019 06:58 14,6 C 13,3 C 14,4 C 86 % 1003,3 hPa 0,0 l/m 16,7 km/h (3 Bft) W 274 0 min 0,000 mm 0,0 UV-I 0 W/m 12,3 C 10,2 C 24,1 km/h (4 Bft) 100,00 %
02.10.2019 07:00 14,5 C 13,3 C 14,4 C 86 % 1003,3 hPa 0,0 l/m 17,8 km/h (3 Bft) SW 224 0 min 0,025 mm 0,0 UV-I 3 W/m 12,2 C 9,7 C 29,0 km/h (5 Bft) 97,87 %
02.10.2019 07:02 14,5 C 13,3 C 14,4 C 86 % 1003,2 hPa 0,0 l/m 19,4 km/h (3 Bft) W-SW 258 0 min 0,000 mm 0,0 UV-I 5 W/m 12,2 C 9,3 C 27,4 km/h (4 Bft) 100,00 %
02.10.2019 07:04 14,5 C 13,3 C 14,4 C 86 % 1003,2 hPa 0,0 l/m 17,6 km/h (3 Bft) W-NW 282 0 min 0,000 mm 0,0 UV-I 5 W/m 12,2 C 9,8 C 30,6 km/h (5 Bft) 100,00 %
02.10.2019 07:06 14,5 C 13,3 C 14,4 C 86 % 1003,3 hPa 0,0 l/m 18,2 km/h (3 Bft) W-SW 240 0 min 0,000 mm 0,0 UV-I 5 W/m 12,2 C 9,6 C 29,0 km/h (5 Bft) 100,00 %
02.10.2019 07:08 14,5 C 13,3 C 14,4 C 86 % 1003,3 hPa 0,0 l/m 17,7 km/h (3 Bft) W-NW 288 0 min 0,000 mm 0,0 UV-I 5 W/m 12,2 C 9,7 C 29,0 km/h (5 Bft) 97,37 %
02.10.2019 07:10 14,5 C 13,3 C 14,4 C 86 % 1003,3 hPa 0,0 l/m 18,2 km/h (3 Bft) W-SW 252 0 min 0,000 mm 0,0 UV-I 5 W/m 12,2 C 9,6 C 27,4 km/h (4 Bft) 98,00 %
02.10.2019 07:12 14,4 C 13,3 C 14,4 C 86 % 1003,3 hPa 0,0 l/m 19,4 km/h (3 Bft) W-SW 252 0 min 0,000 mm 0,0 UV-I 6 W/m 12,1 C 9,1 C 32,2 km/h (5 Bft) 100,00 %
02.10.2019 07:14 14,4 C 13,3 C 13,9 C 86 % 1003,3 hPa 0,0 l/m 18,9 km/h (3 Bft) W 274 0 min 0,000 mm 0,0 UV-I 6 W/m 12,1 C 9,3 C 27,4 km/h (4 Bft) 100,00 %
02.10.2019 07:16 14,4 C 13,3 C 13,9 C 86 % 1003,4 hPa 0,0 l/m 22,8 km/h (4 Bft) SW 226 0 min 0,000 mm 0,0 UV-I 5 W/m 12,1 C 8,3 C 32,2 km/h (5 Bft) 100,00 %
02.10.2019 07:18 14,4 C 13,3 C 13,9 C 86 % 1003,4 hPa 0,0 l/m 19,2 km/h (3 Bft) SW 227 0 min 0,000 mm 0,0 UV-I 5 W/m 12,1 C 9,2 C 29,0 km/h (5 Bft) 100,00 %
02.10.2019 07:20 14,4 C 13,3 C 13,9 C 86 % 1003,5 hPa 0,0 l/m 20,5 km/h (4 Bft) SW 223 0 min 0,000 mm 0,0 UV-I 5 W/m 12,1 C 8,8 C 29,0 km/h (5 Bft) 98,04 %
02.10.2019 07:22 14,3 C 13,3 C 13,3 C 87 % 1003,5 hPa 0,0 l/m 17,3 km/h (3 Bft) W-SW 251 0 min 0,000 mm 0,0 UV-I 5 W/m 12,2 C 9,6 C 27,4 km/h (4 Bft) 93,18 %
02.10.2019 07:24 14,3 C 13,3 C 13,3 C 87 % 1003,6 hPa 0,0 l/m 15,2 km/h (3 Bft) SW 229 0 min 0,000 mm 0,0 UV-I 6 W/m 12,2 C 10,3 C 24,1 km/h (4 Bft) 94,00 %
02.10.2019 07:26 14,2 C 13,3 C 13,3 C 87 % 1003,5 hPa 0,0 l/m 13,9 km/h (3 Bft) W-SW 254 0 min 0,000 mm 0,0 UV-I 7 W/m 12,1 C 10,6 C 24,1 km/h (4 Bft) 92,68 %
02.10.2019 07:28 14,2 C 13,3 C 13,3 C 87 % 1003,7 hPa 0,0 l/m 17,8 km/h (3 Bft) W-SW 247 0 min 0,000 mm 0,0 UV-I 7 W/m 12,1 C 9,3 C 30,6 km/h (5 Bft) 96,23 %
02.10.2019 07:30 14,1 C 13,3 C 13,3 C 87 % 1003,5 hPa 0,0 l/m 19,3 km/h (3 Bft) SW 234 0 min 0,000 mm 0,0 UV-I 9 W/m 12,0 C 8,8 C 33,8 km/h (5 Bft) 95,74 %
02.10.2019 07:32 14,1 C 13,3 C 13,3 C 87 % 1003,4 hPa 0,0 l/m 17,0 km/h (3 Bft) W-SW 257 0 min 0,000 mm 0,0 UV-I 9 W/m 12,0 C 9,4 C 25,7 km/h (4 Bft) 91,49 %
02.10.2019 07:34 14,0 C 13,3 C 13,3 C 87 % 1003,4 hPa 0,0 l/m 18,7 km/h (3 Bft) W-SW 252 0 min 0,000 mm 0,0 UV-I 11 W/m 11,9 C 8,8 C 24,1 km/h (4 Bft) 94,34 %
02.10.2019 07:36 14,0 C 13,3 C 13,3 C 87 % 1003,4 hPa 0,0 l/m 15,0 km/h (3 Bft) S-SW 194 0 min 0,000 mm 0,0 UV-I 11 W/m 11,9 C 10,0 C 19,3 km/h (3 Bft) 93,33 %
02.10.2019 07:38 13,9 C 13,3 C 13,3 C 87 % 1003,4 hPa 0,0 l/m 17,3 km/h (3 Bft) W-SW 248 0 min 0,000 mm 0,0 UV-I 12 W/m 11,8 C 9,1 C 27,4 km/h (4 Bft) 95,12 %
02.10.2019 07:40 13,9 C 13,3 C 12,8 C 87 % 1003,4 hPa 0,0 l/m 15,9 km/h (3 Bft) SW 236 0 min 0,000 mm 0,0 UV-I 12 W/m 11,8 C 9,6 C 24,1 km/h (4 Bft) 96,23 %
02.10.2019 07:42 13,9 C 13,3 C 12,8 C 88 % 1003,5 hPa 0,0 l/m 10,5 km/h (2 Bft) W-SW 242 0 min 0,000 mm 0,0 UV-I 12 W/m 11,9 C 11,7 C 14,5 km/h (3 Bft) 92,11 %
02.10.2019 07:44 13,8 C 13,3 C 12,8 C 88 % 1003,5 hPa 0,0 l/m 9,4 km/h (2 Bft) W-SW 245 0 min 0,000 mm 0,0 UV-I 12 W/m 11,8 C 12,1 C 16,1 km/h (3 Bft) 96,00 %
02.10.2019 07:46 13,8 C 13,3 C 12,8 C 88 % 1003,6 hPa 0,2 l/m 11,8 km/h (2 Bft) W-SW 240 0 min 0,000 mm 0,0 UV-I 12 W/m 11,8 C 11,0 C 19,3 km/h (3 Bft) 95,74 %
02.10.2019 07:48 13,7 C 13,3 C 12,8 C 88 % 1003,6 hPa 0,0 l/m 14,9 km/h (3 Bft) SW 234 0 min 0,000 mm 0,0 UV-I 11 W/m 11,7 C 9,7 C 20,9 km/h (4 Bft) 96,23 %
02.10.2019 07:50 13,7 C 13,3 C 12,8 C 87 % 1003,6 hPa 0,0 l/m 14,5 km/h (3 Bft) SW 222 0 min 0,000 mm 0,0 UV-I 11 W/m 11,6 C 9,8 C 22,5 km/h (4 Bft) 97,56 %
02.10.2019 07:52 13,7 C 13,3 C 12,8 C 88 % 1003,7 hPa 0,0 l/m 14,2 km/h (3 Bft) W 263 0 min 0,000 mm 0,0 UV-I 12 W/m 11,7 C 9,9 C 20,9 km/h (4 Bft) 97,73 %
02.10.2019 07:54 13,6 C 13,3 C 12,8 C 88 % 1003,7 hPa 0,0 l/m 10,4 km/h (2 Bft) SW 225 0 min 0,000 mm 0,0 UV-I 12 W/m 11,6 C 11,4 C 16,1 km/h (3 Bft) 98,11 %
02.10.2019 07:56 13,6 C 13,3 C 12,8 C 88 % 1003,6 hPa 0,0 l/m 12,7 km/h (3 Bft) SW 234 0 min 0,000 mm 0,0 UV-I 13 W/m 11,6 C 10,4 C 19,3 km/h (3 Bft) 100,00 %
02.10.2019 07:58 13,6 C 13,3 C 12,8 C 88 % 1003,6 hPa 0,0 l/m 11,4 km/h (2 Bft) SW 224 0 min 0,000 mm 0,0 UV-I 15 W/m 11,6 C 10,9 C 20,9 km/h (4 Bft) 97,87 %
02.10.2019 08:00 13,5 C 13,3 C 12,8 C 88 % 1003,6 hPa 0,0 l/m 12,2 km/h (2 Bft) SW 221 0 min 0,026 mm 0,0 UV-I 18 W/m 11,6 C 10,5 C 20,9 km/h (4 Bft) 100,00 %
02.10.2019 08:02 13,5 C 13,3 C 12,8 C 87 % 1003,7 hPa 0,0 l/m 14,1 km/h (3 Bft) SW 216 0 min 0,000 mm 0,0 UV-I 21 W/m 11,4 C 9,7 C 19,3 km/h (3 Bft) 100,00 %
02.10.2019 08:04 13,4 C 13,3 C 12,8 C 88 % 1003,7 hPa 0,0 l/m 12,8 km/h (3 Bft) S-SW 200 0 min 0,000 mm 0,0 UV-I 21 W/m 11,5 C 10,1 C 19,3 km/h (3 Bft) 97,37 %
02.10.2019 08:06 13,4 C 13,3 C 12,8 C 87 % 1003,6 hPa 0,0 l/m 11,2 km/h (2 Bft) S-SW 213 0 min 0,000 mm 0,0 UV-I 23 W/m 11,3 C 10,8 C 17,7 km/h (3 Bft) 100,00 %
02.10.2019 08:08 13,4 C 13,3 C 12,8 C 87 % 1003,6 hPa 0,0 l/m 11,2 km/h (2 Bft) SW 214 0 min 0,000 mm 0,0 UV-I 23 W/m 11,3 C 10,8 C 19,3 km/h (3 Bft) 100,00 %
02.10.2019 08:10 13,4 C 13,3 C 12,8 C 87 % 1003,7 hPa 0,0 l/m 10,1 km/h (2 Bft) SW 233 0 min 0,000 mm 0,0 UV-I 18 W/m 11,3 C 11,3 C 17,7 km/h (3 Bft) 98,18 %
02.10.2019 08:12 13,4 C 13,3 C 12,8 C 87 % 1003,7 hPa 0,0 l/m 10,3 km/h (2 Bft) SW 220 0 min 0,000 mm 0,0 UV-I 20 W/m 11,3 C 11,2 C 12,9 km/h (3 Bft) 98,00 %
02.10.2019 08:14 13,4 C 13,3 C 12,8 C 87 % 1003,7 hPa 0,0 l/m 12,5 km/h (3 Bft) SW 224 0 min 0,000 mm 0,0 UV-I 26 W/m 11,3 C 10,2 C 24,1 km/h (4 Bft) 98,00 %
02.10.2019 08:16 13,4 C 13,3 C 12,8 C 87 % 1003,7 hPa 0,0 l/m 10,2 km/h (2 Bft) SW 221 0 min 0,000 mm 0,0 UV-I 26 W/m 11,3 C 11,3 C 16,1 km/h (3 Bft) 100,00 %
02.10.2019 08:18 13,4 C 13,3 C 12,8 C 87 % 1003,7 hPa 0,0 l/m 11,5 km/h (2 Bft) SW 216 0 min 0,000 mm 0,0 UV-I 26 W/m 11,3 C 10,6 C 19,3 km/h (3 Bft) 100,00 %
02.10.2019 08:20 13,4 C 13,3 C 12,8 C 87 % 1003,7 hPa 0,0 l/m 9,5 km/h (2 Bft) S-SW 206 0 min 0,000 mm 0,0 UV-I 27 W/m 11,3 C 11,6 C 14,5 km/h (3 Bft) 100,00 %
02.10.2019 08:22 13,4 C 13,3 C 12,8 C 87 % 1003,7 hPa 0,0 l/m 8,2 km/h (2 Bft) W-SW 244 0 min 0,000 mm 0,0 UV-I 29 W/m 11,3 C 12,3 C 12,9 km/h (3 Bft) 100,00 %
02.10.2019 08:24 13,4 C 13,3 C 12,8 C 87 % 1003,7 hPa 0,0 l/m 9,8 km/h (2 Bft) SW 221 0 min 0,000 mm 0,0 UV-I 33 W/m 11,3 C 11,5 C 17,7 km/h (3 Bft) 100,00 %
02.10.2019 08:26 13,4 C 13,3 C 12,8 C 87 % 1003,7 hPa 0,0 l/m 9,2 km/h (2 Bft) S-SW 213 0 min 0,000 mm 0,0 UV-I 35 W/m 11,3 C 11,8 C 16,1 km/h (3 Bft) 100,00 %
02.10.2019 08:28 13,4 C 13,3 C 12,8 C 87 % 1003,7 hPa 0,0 l/m 9,7 km/h (2 Bft) W-SW 239 0 min 0,000 mm 0,0 UV-I 35 W/m 11,3 C 11,5 C 12,9 km/h (3 Bft) 100,00 %
02.10.2019 08:30 13,4 C 13,3 C 12,8 C 87 % 1003,8 hPa 0,0 l/m 12,4 km/h (3 Bft) SW 219 0 min 0,000 mm 0,0 UV-I 35 W/m 11,3 C 10,3 C 20,9 km/h (4 Bft) 98,21 %
02.10.2019 08:32 13,4 C 13,3 C 12,8 C 87 % 1003,8 hPa 0,0 l/m 11,1 km/h (2 Bft) SW 227 0 min 0,000 mm 0,0 UV-I 37 W/m 11,3 C 10,8 C 17,7 km/h (3 Bft) 100,00 %
02.10.2019 08:34 13,4 C 13,3 C 12,8 C 86 % 1003,8 hPa 0,0 l/m 15,6 km/h (3 Bft) SW 236 0 min 0,000 mm 0,0 UV-I 36 W/m 11,1 C 9,0 C 25,7 km/h (4 Bft) 100,00 %
02.10.2019 08:36 13,5 C 13,3 C 12,8 C 86 % 1003,9 hPa 0,0 l/m 10,6 km/h (2 Bft) W-SW 241 0 min 0,000 mm 0,0 UV-I 35 W/m 11,2 C 11,2 C 20,9 km/h (4 Bft) 100,00 %
02.10.2019 08:38 13,5 C 13,3 C 12,8 C 86 % 1003,9 hPa 0,0 l/m 14,8 km/h (3 Bft) W-SW 238 0 min 0,000 mm 0,0 UV-I 37 W/m 11,2 C 9,4 C 22,5 km/h (4 Bft) 97,56 %
02.10.2019 08:40 13,6 C 13,3 C 12,8 C 85 % 1004,0 hPa 0,0 l/m 11,8 km/h (2 Bft) W-SW 252 0 min 0,000 mm 0,0 UV-I 37 W/m 11,1 C 10,7 C 16,1 km/h (3 Bft) 100,00 %
02.10.2019 08:42 13,6 C 13,3 C 12,8 C 85 % 1004,0 hPa 0,0 l/m 10,9 km/h (2 Bft) S-SW 210 0 min 0,000 mm 0,0 UV-I 37 W/m 11,1 C 11,1 C 14,5 km/h (3 Bft) 100,00 %
02.10.2019 08:44 13,6 C 13,3 C 12,8 C 85 % 1004,0 hPa 0,0 l/m 10,7 km/h (2 Bft) SW 225 0 min 0,000 mm 0,0 UV-I 37 W/m 11,1 C 11,2 C 17,7 km/h (3 Bft) 98,11 %
02.10.2019 08:46 13,6 C 13,3 C 12,8 C 85 % 1004,0 hPa 0,0 l/m 13,1 km/h (3 Bft) S-SW 213 0 min 0,000 mm 0,0 UV-I 37 W/m 11,1 C 10,2 C 20,9 km/h (4 Bft) 100,00 %
02.10.2019 08:48 13,6 C 13,3 C 12,8 C 85 % 1004,0 hPa 0,0 l/m 13,4 km/h (3 Bft) SW 220 0 min 0,000 mm 0,0 UV-I 37 W/m 11,1 C 10,1 C 19,3 km/h (3 Bft) 97,22 %
02.10.2019 08:50 13,6 C 13,3 C 12,8 C 85 % 1004,0 hPa 0,0 l/m 11,2 km/h (2 Bft) S 186 0 min 0,000 mm 0,0 UV-I 37 W/m 11,1 C 11,0 C 14,5 km/h (3 Bft) 94,00 %
02.10.2019 08:52 13,6 C 13,3 C 12,8 C 85 % 1004,0 hPa 0,0 l/m 11,2 km/h (2 Bft) W-SW 239 0 min 0,000 mm 0,0 UV-I 37 W/m 11,1 C 11,0 C 19,3 km/h (3 Bft) 94,00 %
02.10.2019 08:54 13,6 C 13,3 C 12,8 C 85 % 1004,0 hPa 0,0 l/m 11,2 km/h (2 Bft) SW 221 0 min 0,000 mm 0,0 UV-I 38 W/m 11,1 C 11,0 C 17,7 km/h (3 Bft) 95,74 %
02.10.2019 08:56 13,6 C 13,3 C 12,8 C 85 % 1004,0 hPa 0,0 l/m 11,0 km/h (2 Bft) SW 219 0 min 0,000 mm 0,0 UV-I 40 W/m 11,1 C 11,1 C 16,1 km/h (3 Bft) 95,12 %
02.10.2019 08:58 13,5 C 13,3 C 12,8 C 85 % 1004,0 hPa 0,0 l/m 9,2 km/h (2 Bft) S-SW 213 0 min 0,000 mm 0,0 UV-I 42 W/m 11,0 C 11,9 C 16,1 km/h (3 Bft) 95,45 %
02.10.2019 09:00 13,6 C 13,3 C 12,8 C 85 % 1004,0 hPa 0,0 l/m 10,5 km/h (2 Bft) S-SW 203 0 min 0,025 mm 0,0 UV-I 45 W/m 11,1 C 11,3 C 17,7 km/h (3 Bft) 94,34 %
02.10.2019 09:02 13,6 C 13,3 C 12,8 C 86 % 1004,1 hPa 0,0 l/m 10,4 km/h (2 Bft) SW 224 0 min 0,000 mm 0,0 UV-I 47 W/m 11,3 C 11,4 C 16,1 km/h (3 Bft) 95,74 %
02.10.2019 09:06 13,6 C 13,3 C 13,3 C 86 % 1004,1 hPa 0,0 l/m 9,2 km/h (2 Bft) SW 227 0 min 0,000 mm 0,0 UV-I 47 W/m 11,3 C 12,0 C 14,5 km/h (3 Bft) 94,68 %
02.10.2019 09:08 13,6 C 13,3 C 13,3 C 86 % 1004,1 hPa 0,0 l/m 12,4 km/h (3 Bft) SW 221 0 min 0,000 mm 0,0 UV-I 47 W/m 11,3 C 10,5 C 17,7 km/h (3 Bft) 94,00 %
02.10.2019 09:10 13,6 C 13,3 C 13,3 C 86 % 1004,2 hPa 0,0 l/m 7,9 km/h (2 Bft) SW 232 0 min 0,000 mm 0,0 UV-I 47 W/m 11,3 C 12,7 C 12,9 km/h (3 Bft) 93,62 %
02.10.2019 09:15 13,6 C 13,3 C 13,3 C 86 % 1004,1 hPa 0,0 l/m 11,3 km/h (2 Bft) SW 225 0 min 0,000 mm 0,0 UV-I 48 W/m 11,3 C 11,0 C 22,5 km/h (4 Bft) 100,00 %
02.10.2019 09:16 13,6 C 13,3 C 13,3 C 86 % 1004,2 hPa 0,0 l/m 9,3 km/h (2 Bft) SW 218 0 min 0,000 mm 0,0 UV-I 47 W/m 11,3 C 11,9 C 9,7 km/h (2 Bft) 97,01 %
02.10.2019 09:18 13,6 C 13,3 C 13,3 C 86 % 1004,2 hPa 0,0 l/m 8,8 km/h (2 Bft) S-SW 202 0 min 0,000 mm 0,0 UV-I 53 W/m 11,3 C 12,2 C 16,1 km/h (3 Bft) 97,56 %
02.10.2019 09:20 13,7 C 13,3 C 13,3 C 86 % 1004,2 hPa 0,0 l/m 6,1 km/h (2 Bft) S-SW 210 0 min 0,000 mm 0,0 UV-I 57 W/m 11,4 C 13,7 C 11,3 km/h (2 Bft) 97,73 %
02.10.2019 09:22 13,7 C 13,3 C 13,3 C 86 % 1004,3 hPa 0,0 l/m 7,3 km/h (2 Bft) SW 215 0 min 0,000 mm 0,0 UV-I 60 W/m 11,4 C 13,2 C 11,3 km/h (2 Bft) 98,31 %
02.10.2019 09:24 13,7 C 13,3 C 13,3 C 86 % 1004,3 hPa 0,0 l/m 8,1 km/h (2 Bft) S-SW 213 0 min 0,000 mm 0,0 UV-I 64 W/m 11,4 C 12,7 C 12,9 km/h (3 Bft) 95,45 %
02.10.2019 09:26 13,7 C 13,3 C 13,3 C 86 % 1004,2 hPa 0,0 l/m 10,3 km/h (2 Bft) S-SW 207 0 min 0,000 mm 0,0 UV-I 66 W/m 11,4 C 11,5 C 14,5 km/h (3 Bft) 92,00 %
02.10.2019 09:28 13,7 C 13,3 C 13,3 C 86 % 1004,3 hPa 0,0 l/m 9,3 km/h (2 Bft) S-SW 200 0 min 0,000 mm 0,0 UV-I 65 W/m 11,4 C 12,0 C 12,9 km/h (3 Bft) 97,73 %
02.10.2019 09:30 13,7 C 13,3 C 13,9 C 87 % 1004,2 hPa 0,0 l/m 7,9 km/h (2 Bft) S-SW 198 0 min 0,000 mm 0,0 UV-I 65 W/m 11,6 C 12,8 C 12,9 km/h (3 Bft) 88,89 %
02.10.2019 09:32 13,7 C 13,3 C 13,3 C 86 % 1004,2 hPa 0,0 l/m 10,2 km/h (2 Bft) SW 223 0 min 0,000 mm 0,0 UV-I 67 W/m 11,4 C 11,6 C 12,9 km/h (3 Bft) 94,29 %
02.10.2019 09:34 13,7 C 13,3 C 13,3 C 86 % 1004,3 hPa 0,0 l/m 8,5 km/h (2 Bft) SW 232 0 min 0,000 mm 0,0 UV-I 69 W/m 11,4 C 12,5 C 11,3 km/h (2 Bft) 95,12 %
02.10.2019 09:36 13,7 C 13,3 C 13,3 C 87 % 1004,3 hPa 0,0 l/m 9,4 km/h (2 Bft) S-SW 208 0 min 0,000 mm 0,0 UV-I 70 W/m 11,6 C 12,0 C 12,9 km/h (3 Bft) 96,00 %
02.10.2019 09:38 13,7 C 13,3 C 13,3 C 87 % 1004,3 hPa 0,0 l/m 7,9 km/h (2 Bft) SW 218 0 min 0,000 mm 0,0 UV-I 69 W/m 11,6 C 12,8 C 11,3 km/h (2 Bft) 94,00 %
02.10.2019 09:40 13,7 C 13,3 C 13,3 C 87 % 1004,3 hPa 0,0 l/m 8,0 km/h (2 Bft) S-SW 201 0 min 0,000 mm 0,0 UV-I 67 W/m 11,6 C 12,7 C 12,9 km/h (3 Bft) 94,44 %
02.10.2019 09:42 13,7 C 13,3 C 13,3 C 87 % 1004,4 hPa 0,0 l/m 10,2 km/h (2 Bft) S-SW 207 0 min 0,000 mm 0,0 UV-I 65 W/m 11,6 C 11,6 C 14,5 km/h (3 Bft) 96,15 %
02.10.2019 09:44 13,7 C 13,3 C 13,3 C 88 % 1004,4 hPa 0,0 l/m 9,4 km/h (2 Bft) S-SW 213 0 min 0,000 mm 0,0 UV-I 66 W/m 11,7 C 12,0 C 14,5 km/h (3 Bft) 93,75 %
02.10.2019 09:46 13,7 C 13,3 C 13,3 C 88 % 1004,4 hPa 0,2 l/m 9,7 km/h (2 Bft) S-SW 200 0 min 0,000 mm 0,0 UV-I 70 W/m 11,7 C 11,8 C 12,9 km/h (3 Bft) 96,00 %
02.10.2019 09:48 13,7 C 13,3 C 13,9 C 88 % 1004,4 hPa 0,0 l/m 10,0 km/h (2 Bft) SW 215 0 min 0,000 mm 0,0 UV-I 74 W/m 11,7 C 11,7 C 12,9 km/h (3 Bft) 91,43 %
02.10.2019 09:50 13,6 C 13,3 C 13,9 C 88 % 1004,3 hPa 0,0 l/m 9,6 km/h (2 Bft) W-SW 239 0 min 0,000 mm 0,0 UV-I 81 W/m 11,6 C 11,8 C 12,9 km/h (3 Bft) 94,34 %
02.10.2019 09:52 13,6 C 13,3 C 13,9 C 88 % 1004,3 hPa 0,0 l/m 8,8 km/h (2 Bft) W-SW 238 0 min 0,000 mm 0,0 UV-I 89 W/m 11,6 C 12,2 C 11,3 km/h (2 Bft) 90,91 %
02.10.2019 09:54 13,6 C 13,3 C 13,9 C 88 % 1004,3 hPa 0,0 l/m 7,3 km/h (2 Bft) SW 216 0 min 0,000 mm 0,0 UV-I 95 W/m 11,6 C 13,0 C 12,9 km/h (3 Bft) 97,37 %
02.10.2019 09:56 13,6 C 13,3 C 13,9 C 88 % 1004,3 hPa 0,0 l/m 7,7 km/h (2 Bft) SW 234 0 min 0,000 mm 0,2 UV-I 101 W/m 11,6 C 12,8 C 11,3 km/h (2 Bft) 91,94 %
02.10.2019 09:58 13,6 C 13,3 C 13,9 C 88 % 1004,3 hPa 0,0 l/m 8,6 km/h (2 Bft) S-SW 211 0 min 0,000 mm 0,5 UV-I 105 W/m 11,6 C 12,3 C 11,3 km/h (2 Bft) 92,31 %
02.10.2019 10:00 13,6 C 13,3 C 13,9 C 88 % 1004,3 hPa 0,0 l/m 6,3 km/h (2 Bft) SW 225 0 min 0,051 mm 0,5 UV-I 107 W/m 11,6 C 13,6 C 9,7 km/h (2 Bft) 98,53 %
02.10.2019 10:02 13,7 C 13,3 C 13,9 C 89 % 1004,4 hPa 0,0 l/m 6,1 km/h (2 Bft) SW 234 0 min 0,000 mm 0,5 UV-I 107 W/m 11,9 C 13,7 C 9,7 km/h (2 Bft) 95,12 %
02.10.2019 10:04 13,7 C 13,3 C 14,4 C 89 % 1004,4 hPa 0,0 l/m 6,3 km/h (2 Bft) SW 215 0 min 0,000 mm 0,5 UV-I 108 W/m 11,9 C 13,7 C 9,7 km/h (2 Bft) 98,00 %
02.10.2019 10:06 13,7 C 13,3 C 13,9 C 89 % 1004,4 hPa 0,0 l/m 6,7 km/h (2 Bft) W-SW 247 0 min 0,000 mm 0,5 UV-I 111 W/m 11,9 C 13,5 C 9,7 km/h (2 Bft) 100,00 %
02.10.2019 10:08 13,7 C 13,3 C 13,9 C 89 % 1004,4 hPa 0,2 l/m 6,7 km/h (2 Bft) W-SW 242 0 min 0,000 mm 0,5 UV-I 116 W/m 11,9 C 13,5 C 9,7 km/h (2 Bft) 97,87 %
02.10.2019 10:10 13,7 C 13,3 C 13,9 C 89 % 1004,4 hPa 0,0 l/m 7,0 km/h (2 Bft) SW 215 0 min 0,000 mm 0,5 UV-I 118 W/m 11,9 C 13,3 C 9,7 km/h (2 Bft) 100,00 %
02.10.2019 10:12 13,7 C 13,3 C 13,9 C 89 % 1004,4 hPa 0,0 l/m 8,2 km/h (2 Bft) W-SW 247 0 min 0,000 mm 0,5 UV-I 115 W/m 11,9 C 12,6 C 12,9 km/h (3 Bft) 100,00 %
02.10.2019 10:14 13,7 C 13,3 C 14,4 C 90 % 1004,5 hPa 0,0 l/m 8,0 km/h (2 Bft) W-SW 257 0 min 0,000 mm 0,5 UV-I 114 W/m 12,1 C 12,7 C 11,3 km/h (2 Bft) 100,00 %
02.10.2019 10:16 13,7 C 13,3 C 14,4 C 90 % 1004,5 hPa 0,0 l/m 9,7 km/h (2 Bft) W-SW 246 0 min 0,000 mm 0,5 UV-I 116 W/m 12,1 C 11,8 C 14,5 km/h (3 Bft) 97,87 %
02.10.2019 10:18 13,7 C 13,3 C 14,4 C 90 % 1004,5 hPa 0,0 l/m 6,6 km/h (2 Bft) W-SW 258 0 min 0,000 mm 0,6 UV-I 119 W/m 12,1 C 13,6 C 11,3 km/h (2 Bft) 95,74 %
02.10.2019 10:20 13,7 C 13,3 C 14,4 C 90 % 1004,5 hPa 0,0 l/m 8,5 km/h (2 Bft) W-SW 258 0 min 0,000 mm 0,6 UV-I 120 W/m 12,1 C 12,5 C 14,5 km/h (3 Bft) 95,74 %
02.10.2019 10:22 13,7 C 13,3 C 14,4 C 90 % 1004,5 hPa 0,0 l/m 12,2 km/h (2 Bft) SW 233 0 min 0,000 mm 0,6 UV-I 118 W/m 12,1 C 10,7 C 17,7 km/h (3 Bft) 95,74 %
02.10.2019 10:24 13,7 C 13,3 C 14,4 C 90 % 1004,5 hPa 0,0 l/m 8,6 km/h (2 Bft) W 261 0 min 0,000 mm 0,6 UV-I 122 W/m 12,1 C 12,4 C 16,1 km/h (3 Bft) 98,00 %
02.10.2019 10:26 13,7 C 13,3 C 14,4 C 90 % 1004,5 hPa 0,0 l/m 9,6 km/h (2 Bft) W 259 0 min 0,000 mm 0,6 UV-I 129 W/m 12,1 C 11,9 C 14,5 km/h (3 Bft) 98,00 %
02.10.2019 10:28 13,7 C 13,3 C 14,4 C 90 % 1004,5 hPa 0,0 l/m 9,8 km/h (2 Bft) SW 235 0 min 0,000 mm 0,7 UV-I 135 W/m 12,1 C 11,8 C 16,1 km/h (3 Bft) 97,22 %
02.10.2019 10:30 13,7 C 13,3 C 14,4 C 90 % 1004,5 hPa 0,0 l/m 7,7 km/h (2 Bft) SW 236 0 min 0,000 mm 0,7 UV-I 139 W/m 12,1 C 12,9 C 14,5 km/h (3 Bft) 93,62 %
02.10.2019 10:32 13,7 C 13,3 C 14,4 C 89 % 1004,4 hPa 0,0 l/m 13,1 km/h (3 Bft) S-SW 209 0 min 0,000 mm 0,7 UV-I 139 W/m 11,9 C 10,3 C 20,9 km/h (4 Bft) 98,00 %
02.10.2019 10:34 13,8 C 13,3 C 14,4 C 89 % 1004,5 hPa 0,0 l/m 8,9 km/h (2 Bft) SW 215 0 min 0,000 mm 0,7 UV-I 139 W/m 12,0 C 12,3 C 14,5 km/h (3 Bft) 96,00 %
02.10.2019 10:36 13,8 C 13,3 C 14,4 C 89 % 1004,5 hPa 0,0 l/m 6,9 km/h (2 Bft) SW 229 0 min 0,000 mm 0,7 UV-I 135 W/m 12,0 C 13,5 C 11,3 km/h (2 Bft) 97,87 %
02.10.2019 10:38 13,8 C 13,3 C 14,4 C 89 % 1004,5 hPa 0,0 l/m 9,2 km/h (2 Bft) W-SW 238 0 min 0,000 mm 0,6 UV-I 115 W/m 12,0 C 12,2 C 12,9 km/h (3 Bft) 97,56 %
02.10.2019 10:40 13,8 C 13,3 C 14,4 C 89 % 1004,5 hPa 0,0 l/m 8,2 km/h (2 Bft) SW 227 0 min 0,000 mm 0,5 UV-I 91 W/m 12,0 C 12,7 C 12,9 km/h (3 Bft) 96,23 %
02.10.2019 10:42 13,8 C 13,9 C 14,4 C 89 % 1004,5 hPa 0,0 l/m 9,9 km/h (2 Bft) W-SW 238 0 min 0,000 mm 0,1 UV-I 74 W/m 12,0 C 11,8 C 14,5 km/h (3 Bft) 100,00 %
02.10.2019 10:44 13,8 C 13,3 C 13,9 C 89 % 1004,5 hPa 0,0 l/m 8,6 km/h (2 Bft) S-SO 161 0 min 0,000 mm 0,0 UV-I 61 W/m 12,0 C 12,5 C 12,9 km/h (3 Bft) 100,00 %
02.10.2019 10:46 13,8 C 13,3 C 13,9 C 89 % 1004,5 hPa 0,0 l/m 8,0 km/h (2 Bft) SW 215 0 min 0,000 mm 0,0 UV-I 49 W/m 12,0 C 12,8 C 12,9 km/h (3 Bft) 98,00 %
02.10.2019 10:48 13,8 C 13,3 C 13,9 C 89 % 1004,5 hPa 0,0 l/m 6,3 km/h (2 Bft) S 177 0 min 0,000 mm 0,0 UV-I 50 W/m 12,0 C 13,8 C 9,7 km/h (2 Bft) 100,00 %
02.10.2019 10:50 13,7 C 13,3 C 13,9 C 90 % 1004,5 hPa 0,0 l/m 8,8 km/h (2 Bft) S-SW 211 0 min 0,000 mm 0,0 UV-I 61 W/m 12,1 C 12,3 C 14,5 km/h (3 Bft) 100,00 %
02.10.2019 10:52 13,7 C 13,3 C 13,9 C 90 % 1004,5 hPa 0,0 l/m 8,3 km/h (2 Bft) SW 228 0 min 0,000 mm 0,1 UV-I 78 W/m 12,1 C 12,6 C 12,9 km/h (3 Bft) 100,00 %
02.10.2019 10:54 13,7 C 13,3 C 13,9 C 90 % 1004,5 hPa 0,2 l/m 7,3 km/h (2 Bft) S-SW 212 0 min 0,000 mm 0,5 UV-I 96 W/m 12,1 C 13,2 C 11,3 km/h (2 Bft) 100,00 %
02.10.2019 10:56 13,7 C 13,3 C 14,4 C 90 % 1004,6 hPa 0,0 l/m 7,5 km/h (2 Bft) SW 223 0 min 0,000 mm 0,6 UV-I 106 W/m 12,1 C 13,0 C 11,3 km/h (2 Bft) 100,00 %
02.10.2019 10:58 13,7 C 13,3 C 14,4 C 90 % 1004,6 hPa 0,0 l/m 7,5 km/h (2 Bft) S-SW 210 0 min 0,000 mm 0,6 UV-I 111 W/m 12,1 C 13,0 C 11,3 km/h (2 Bft) 100,00 %
02.10.2019 11:00 13,8 C 13,3 C 13,9 C 90 % 1004,6 hPa 0,0 l/m 11,4 km/h (2 Bft) SW 225 0 min 0,076 mm 0,6 UV-I 111 W/m 12,2 C 11,1 C 16,1 km/h (3 Bft) 100,00 %
02.10.2019 11:02 13,8 C 13,3 C 13,9 C 89 % 1004,5 hPa 0,0 l/m 10,2 km/h (2 Bft) W-SW 248 0 min 0,000 mm 0,6 UV-I 107 W/m 12,0 C 11,7 C 16,1 km/h (3 Bft) 100,00 %
02.10.2019 11:04 13,8 C 13,3 C 13,9 C 89 % 1004,5 hPa 0,0 l/m 9,2 km/h (2 Bft) S-SW 213 0 min 0,000 mm 0,6 UV-I 103 W/m 12,0 C 12,2 C 14,5 km/h (3 Bft) 98,11 %
02.10.2019 11:06 13,8 C 13,9 C 13,9 C 90 % 1004,5 hPa 0,0 l/m 10,6 km/h (2 Bft) W-SW 244 0 min 0,000 mm 0,6 UV-I 102 W/m 12,2 C 11,5 C 16,1 km/h (3 Bft) 100,00 %
02.10.2019 11:08 13,8 C 13,3 C 14,4 C 90 % 1004,6 hPa 0,0 l/m 9,4 km/h (2 Bft) S-SW 196 0 min 0,000 mm 0,6 UV-I 104 W/m 12,2 C 12,1 C 14,5 km/h (3 Bft) 100,00 %
02.10.2019 11:10 13,8 C 13,3 C 14,4 C 90 % 1004,5 hPa 0,0 l/m 9,9 km/h (2 Bft) W-SW 257 0 min 0,000 mm 0,6 UV-I 110 W/m 12,2 C 11,8 C 17,7 km/h (3 Bft) 100,00 %
02.10.2019 11:12 13,8 C 13,3 C 14,4 C 90 % 1004,6 hPa 0,0 l/m 8,8 km/h (2 Bft) S-SW 211 0 min 0,000 mm 0,6 UV-I 121 W/m 12,2 C 12,4 C 12,9 km/h (3 Bft) 100,00 %
02.10.2019 11:14 13,8 C 13,3 C 14,4 C 90 % 1004,6 hPa 0,2 l/m 11,5 km/h (2 Bft) S-SW 211 0 min 0,000 mm 0,8 UV-I 140 W/m 12,2 C 11,1 C 19,3 km/h (3 Bft) 98,11 %
02.10.2019 11:16 13,8 C 13,3 C 15,0 C 90 % 1004,7 hPa 0,0 l/m 10,4 km/h (2 Bft) SW 218 0 min 0,000 mm 0,9 UV-I 158 W/m 12,2 C 11,6 C 16,1 km/h (3 Bft) 100,00 %
02.10.2019 11:18 13,9 C 13,9 C 14,4 C 90 % 1004,6 hPa 0,0 l/m 10,4 km/h (2 Bft) SW 225 0 min 0,000 mm 0,9 UV-I 162 W/m 12,3 C 11,7 C 14,5 km/h (3 Bft) 100,00 %
02.10.2019 11:20 13,9 C 13,9 C 14,4 C 90 % 1004,8 hPa 0,0 l/m 10,4 km/h (2 Bft) W-SW 248 0 min 0,000 mm 0,9 UV-I 153 W/m 12,3 C 11,7 C 16,1 km/h (3 Bft) 98,00 %
02.10.2019 11:22 13,9 C 13,3 C 14,4 C 90 % 1004,7 hPa 0,0 l/m 10,6 km/h (2 Bft) SW 229 0 min 0,000 mm 0,9 UV-I 148 W/m 12,3 C 11,6 C 17,7 km/h (3 Bft) 100,00 %
02.10.2019 11:24 13,9 C 13,3 C 14,4 C 90 % 1004,7 hPa 0,0 l/m 11,8 km/h (2 Bft) SW 221 0 min 0,000 mm 0,9 UV-I 145 W/m 12,3 C 11,1 C 17,7 km/h (3 Bft) 98,11 %
02.10.2019 11:26 13,9 C 13,9 C 14,4 C 90 % 1004,7 hPa 0,0 l/m 13,3 km/h (3 Bft) S-SW 213 0 min 0,000 mm 0,9 UV-I 147 W/m 12,3 C 10,5 C 22,5 km/h (4 Bft) 95,12 %
02.10.2019 11:28 13,9 C 13,3 C 14,4 C 90 % 1004,7 hPa 0,0 l/m 11,0 km/h (2 Bft) SW 217 0 min 0,000 mm 1,0 UV-I 169 W/m 12,3 C 11,4 C 17,7 km/h (3 Bft) 98,00 %
02.10.2019 11:30 14,0 C 13,3 C 15,0 C 90 % 1004,7 hPa 0,0 l/m 10,4 km/h (2 Bft) S 191 0 min 0,000 mm 1,0 UV-I 176 W/m 12,4 C 11,8 C 16,1 km/h (3 Bft) 97,87 %
02.10.2019 11:32 14,1 C 13,9 C 14,4 C 90 % 1004,7 hPa 0,0 l/m 13,9 km/h (3 Bft) SW 234 0 min 0,000 mm 1,0 UV-I 172 W/m 12,5 C 10,5 C 20,9 km/h (4 Bft) 94,00 %
02.10.2019 11:34 14,1 C 13,9 C 15,0 C 90 % 1004,7 hPa 0,0 l/m 13,6 km/h (3 Bft) W-SW 240 0 min 0,000 mm 1,0 UV-I 169 W/m 12,5 C 10,6 C 20,9 km/h (4 Bft) 100,00 %
02.10.2019 11:36 14,2 C 13,9 C 14,4 C 90 % 1004,7 hPa 0,0 l/m 13,2 km/h (3 Bft) SW 217 0 min 0,000 mm 1,0 UV-I 169 W/m 12,6 C 10,9 C 20,9 km/h (4 Bft) 100,00 %
02.10.2019 11:38 14,2 C 13,9 C 14,4 C 89 % 1004,7 hPa 0,0 l/m 16,5 km/h (3 Bft) S-SW 208 0 min 0,000 mm 1,0 UV-I 172 W/m 12,4 C 9,7 C 22,5 km/h (4 Bft) 97,06 %
02.10.2019 11:40 14,2 C 13,9 C 14,4 C 89 % 1004,7 hPa 0,0 l/m 15,9 km/h (3 Bft) SW 225 0 min 0,000 mm 1,0 UV-I 174 W/m 12,4 C 9,9 C 30,6 km/h (5 Bft) 97,56 %
02.10.2019 11:42 14,2 C 13,9 C 14,4 C 89 % 1004,7 hPa 0,0 l/m 16,1 km/h (3 Bft) W 262 0 min 0,000 mm 1,0 UV-I 171 W/m 12,4 C 9,9 C 27,4 km/h (4 Bft) 98,11 %
02.10.2019 11:44 14,3 C 13,9 C 15,0 C 89 % 1004,7 hPa 0,0 l/m 13,4 km/h (3 Bft) W-SW 245 0 min 0,000 mm 1,0 UV-I 171 W/m 12,5 C 10,9 C 22,5 km/h (4 Bft) 95,12 %
02.10.2019 11:46 14,3 C 13,3 C 15,0 C 89 % 1004,8 hPa 0,0 l/m 12,4 km/h (3 Bft) S-SW 203 0 min 0,000 mm 1,0 UV-I 172 W/m 12,5 C 11,3 C 17,7 km/h (3 Bft) 94,00 %
02.10.2019 11:48 14,3 C 13,9 C 15,0 C 89 % 1004,8 hPa 0,0 l/m 17,9 km/h (3 Bft) SW 236 0 min 0,000 mm 1,0 UV-I 168 W/m 12,5 C 9,4 C 25,7 km/h (4 Bft) 95,74 %
02.10.2019 11:50 14,3 C 13,9 C 14,4 C 89 % 1004,8 hPa 0,0 l/m 14,3 km/h (3 Bft) SW 232 0 min 0,000 mm 1,0 UV-I 169 W/m 12,5 C 10,6 C 20,9 km/h (4 Bft) 93,18 %
02.10.2019 11:52 14,3 C 13,9 C 14,4 C 89 % 1004,7 hPa 0,2 l/m 21,4 km/h (4 Bft) W-SW 251 0 min 0,000 mm 1,1 UV-I 177 W/m 12,5 C 8,5 C 29,0 km/h (5 Bft) 94,34 %
02.10.2019 11:54 14,3 C 13,9 C 15,0 C 89 % 1004,8 hPa 0,0 l/m 13,3 km/h (3 Bft) W-SW 246 0 min 0,000 mm 1,1 UV-I 175 W/m 12,5 C 11,0 C 22,5 km/h (4 Bft) 94,74 %
02.10.2019 11:56 14,3 C 13,9 C 15,0 C 89 % 1004,8 hPa 0,0 l/m 15,1 km/h (3 Bft) W-SW 239 0 min 0,000 mm 1,0 UV-I 169 W/m 12,5 C 10,3 C 20,9 km/h (4 Bft) 95,74 %
02.10.2019 11:58 14,3 C 13,9 C 15,0 C 89 % 1004,8 hPa 0,0 l/m 14,5 km/h (3 Bft) W-SW 242 0 min 0,000 mm 1,0 UV-I 166 W/m 12,5 C 10,5 C 24,1 km/h (4 Bft) 98,00 %
02.10.2019 12:00 14,3 C 13,9 C 15,0 C 89 % 1004,9 hPa 0,0 l/m 15,5 km/h (3 Bft) W-SW 257 0 min 0,102 mm 1,0 UV-I 161 W/m 12,5 C 10,2 C 24,1 km/h (4 Bft) 97,87 %
02.10.2019 12:02 14,3 C 13,9 C 14,4 C 89 % 1004,9 hPa 0,0 l/m 14,0 km/h (3 Bft) W-SW 244 0 min 0,000 mm 1,0 UV-I 150 W/m 12,5 C 10,7 C 20,9 km/h (4 Bft) 98,00 %
02.10.2019 12:04 14,3 C 13,9 C 14,4 C 89 % 1004,9 hPa 0,0 l/m 17,2 km/h (3 Bft) SW 215 0 min 0,000 mm 0,9 UV-I 145 W/m 12,5 C 9,6 C 24,1 km/h (4 Bft) 96,00 %
02.10.2019 12:06 14,3 C 13,9 C 14,4 C 88 % 1004,9 hPa 0,0 l/m 15,3 km/h (3 Bft) W-NW 284 0 min 0,000 mm 0,9 UV-I 142 W/m 12,3 C 10,2 C 25,7 km/h (4 Bft) 95,74 %
02.10.2019 12:08 14,3 C 13,9 C 14,4 C 88 % 1004,9 hPa 0,0 l/m 15,6 km/h (3 Bft) W-SW 257 0 min 0,000 mm 0,9 UV-I 138 W/m 12,3 C 10,1 C 24,1 km/h (4 Bft) 97,37 %
02.10.2019 12:10 14,3 C 13,9 C 14,4 C 88 % 1005,0 hPa 0,0 l/m 16,7 km/h (3 Bft) SW 234 0 min 0,000 mm 0,9 UV-I 131 W/m 12,3 C 9,8 C 24,1 km/h (4 Bft) 96,23 %
02.10.2019 12:12 14,3 C 13,9 C 14,4 C 88 % 1005,0 hPa 0,0 l/m 18,7 km/h (3 Bft) SW 222 0 min 0,000 mm 0,9 UV-I 134 W/m 12,3 C 9,2 C 29,0 km/h (5 Bft) 100,00 %
02.10.2019 12:14 14,3 C 13,9 C 14,4 C 88 % 1005,0 hPa 0,0 l/m 16,7 km/h (3 Bft) W 277 0 min 0,000 mm 0,9 UV-I 140 W/m 12,3 C 9,8 C 25,7 km/h (4 Bft) 100,00 %
02.10.2019 12:16 14,2 C 13,9 C 14,4 C 87 % 1004,9 hPa 0,0 l/m 21,7 km/h (4 Bft) W-SW 251 0 min 0,000 mm 0,9 UV-I 144 W/m 12,1 C 8,3 C 29,0 km/h (5 Bft) 100,00 %
02.10.2019 12:18 14,2 C 13,9 C 14,4 C 87 % 1004,9 hPa 0,0 l/m 19,2 km/h (3 Bft) W-SW 245 0 min 0,000 mm 0,9 UV-I 150 W/m 12,1 C 8,9 C 25,7 km/h (4 Bft) 100,00 %
02.10.2019 12:20 14,1 C 13,9 C 14,4 C 86 % 1004,9 hPa 0,0 l/m 14,9 km/h (3 Bft) W-SW 250 0 min 0,000 mm 0,9 UV-I 157 W/m 11,8 C 10,1 C 24,1 km/h (4 Bft) 100,00 %
02.10.2019 12:22 14,1 C 13,9 C 14,4 C 87 % 1004,9 hPa 0,0 l/m 16,8 km/h (3 Bft) SW 229 0 min 0,000 mm 0,9 UV-I 158 W/m 12,0 C 9,5 C 30,6 km/h (5 Bft) 100,00 %
02.10.2019 12:24 14,1 C 13,9 C 14,4 C 87 % 1005,0 hPa 0,0 l/m 16,7 km/h (3 Bft) SW 225 0 min 0,000 mm 0,9 UV-I 147 W/m 12,0 C 9,5 C 25,7 km/h (4 Bft) 100,00 %
02.10.2019 12:26 14,1 C 13,9 C 14,4 C 87 % 1005,0 hPa 0,0 l/m 11,1 km/h (2 Bft) SW 234 0 min 0,000 mm 0,9 UV-I 146 W/m 12,0 C 11,6 C 20,9 km/h (4 Bft) 100,00 %
02.10.2019 12:28 14,1 C 13,9 C 14,4 C 87 % 1005,0 hPa 0,0 l/m 18,0 km/h (3 Bft) W-SW 241 0 min 0,000 mm 0,9 UV-I 157 W/m 12,0 C 9,1 C 29,0 km/h (5 Bft) 96,00 %
02.10.2019 12:30 14,1 C 13,9 C 14,4 C 86 % 1005,0 hPa 0,0 l/m 18,4 km/h (3 Bft) W 278 0 min 0,000 mm 1,0 UV-I 164 W/m 11,8 C 9,0 C 29,0 km/h (5 Bft) 96,00 %
02.10.2019 12:32 14,1 C 13,9 C 14,4 C 86 % 1005,0 hPa 0,0 l/m 17,0 km/h (3 Bft) SW 222 0 min 0,000 mm 0,9 UV-I 160 W/m 11,8 C 9,4 C 24,1 km/h (4 Bft) 100,00 %
02.10.2019 12:34 14,1 C 13,9 C 14,4 C 86 % 1005,0 hPa 0,0 l/m 20,3 km/h (4 Bft) W-SW 240 0 min 0,000 mm 0,9 UV-I 163 W/m 11,8 C 8,5 C 29,0 km/h (5 Bft) 100,00 %
02.10.2019 12:36 14,1 C 13,9 C 14,4 C 86 % 1005,0 hPa 0,0 l/m 18,5 km/h (3 Bft) W-SW 258 0 min 0,000 mm 1,0 UV-I 168 W/m 11,8 C 9,0 C 27,4 km/h (4 Bft) 97,37 %
02.10.2019 12:38 14,1 C 13,9 C 14,4 C 85 % 1005,0 hPa 0,0 l/m 21,4 km/h (4 Bft) S-SW 202 0 min 0,000 mm 0,9 UV-I 167 W/m 11,6 C 8,2 C 29,0 km/h (5 Bft) 100,00 %
02.10.2019 12:40 14,2 C 13,9 C 14,4 C 85 % 1005,0 hPa 0,0 l/m 15,6 km/h (3 Bft) SW 231 0 min 0,000 mm 0,9 UV-I 163 W/m 11,7 C 10,0 C 22,5 km/h (4 Bft) 100,00 %
02.10.2019 12:42 14,2 C 13,9 C 14,4 C 84 % 1005,0 hPa 0,0 l/m 16,8 km/h (3 Bft) SW 235 0 min 0,000 mm 0,9 UV-I 157 W/m 11,5 C 9,6 C 24,1 km/h (4 Bft) 100,00 %
02.10.2019 12:44 14,2 C 13,9 C 14,4 C 84 % 1004,9 hPa 0,0 l/m 18,9 km/h (3 Bft) SW 220 0 min 0,000 mm 0,9 UV-I 158 W/m 11,5 C 9,0 C 30,6 km/h (5 Bft) 100,00 %
02.10.2019 12:46 14,2 C 13,9 C 14,4 C 84 % 1004,9 hPa 0,0 l/m 16,9 km/h (3 Bft) SW 225 0 min 0,000 mm 1,0 UV-I 171 W/m 11,5 C 9,6 C 25,7 km/h (4 Bft) 98,00 %
02.10.2019 12:48 14,2 C 13,9 C 14,4 C 84 % 1004,9 hPa 0,0 l/m 17,8 km/h (3 Bft) SW 231 0 min 0,000 mm 1,0 UV-I 177 W/m 11,5 C 9,3 C 27,4 km/h (4 Bft) 94,44 %
02.10.2019 12:50 14,3 C 13,9 C 14,4 C 84 % 1004,9 hPa 0,0 l/m 13,6 km/h (3 Bft) SW 225 0 min 0,000 mm 1,0 UV-I 176 W/m 11,6 C 10,8 C 22,5 km/h (4 Bft) 98,08 %
02.10.2019 12:52 14,3 C 13,9 C 14,4 C 83 % 1004,9 hPa 0,0 l/m 17,6 km/h (3 Bft) W-SW 241 0 min 0,000 mm 1,0 UV-I 175 W/m 11,5 C 9,5 C 29,0 km/h (5 Bft) 97,92 %
02.10.2019 12:54 14,3 C 13,9 C 14,4 C 83 % 1005,0 hPa 0,0 l/m 14,4 km/h (3 Bft) W-SW 240 0 min 0,000 mm 1,0 UV-I 174 W/m 11,5 C 10,6 C 20,9 km/h (4 Bft) 97,73 %
02.10.2019 12:56 14,3 C 13,9 C 14,4 C 83 % 1004,9 hPa 0,0 l/m 16,9 km/h (3 Bft) SW 223 0 min 0,000 mm 1,0 UV-I 170 W/m 11,5 C 9,7 C 24,1 km/h (4 Bft) 97,87 %
02.10.2019 12:58 14,4 C 13,9 C 14,4 C 83 % 1005,0 hPa 0,0 l/m 18,6 km/h (3 Bft) W-SW 248 0 min 0,000 mm 0,9 UV-I 162 W/m 11,5 C 9,4 C 25,7 km/h (4 Bft) 96,23 %
02.10.2019 13:00 14,4 C 13,9 C 14,4 C 83 % 1005,0 hPa 0,0 l/m 15,4 km/h (3 Bft) W-SW 241 0 min 0,000 mm 0,9 UV-I 162 W/m 11,5 C 10,3 C 22,5 km/h (4 Bft) 97,56 %
02.10.2019 13:02 14,4 C 13,9 C 14,4 C 83 % 1005,0 hPa 0,0 l/m 18,4 km/h (3 Bft) SW 233 0 min 0,101 mm 0,9 UV-I 166 W/m 11,5 C 9,4 C 27,4 km/h (4 Bft) 97,87 %
02.10.2019 13:04 14,4 C 13,9 C 14,4 C 83 % 1005,0 hPa 0,0 l/m 17,8 km/h (3 Bft) W-SW 239 0 min 0,000 mm 0,9 UV-I 171 W/m 11,5 C 9,6 C 29,0 km/h (5 Bft) 96,00 %
02.10.2019 13:06 14,5 C 13,9 C 14,4 C 83 % 1005,0 hPa 0,0 l/m 18,2 km/h (3 Bft) W-SW 244 0 min 0,000 mm 1,0 UV-I 176 W/m 11,6 C 9,6 C 29,0 km/h (5 Bft) 95,74 %
02.10.2019 13:08 14,6 C 13,9 C 14,4 C 82 % 1005,0 hPa 0,0 l/m 14,7 km/h (3 Bft) SW 229 0 min 0,000 mm 1,0 UV-I 182 W/m 11,6 C 10,8 C 25,7 km/h (4 Bft) 97,37 %
02.10.2019 13:10 14,6 C 13,9 C 15,0 C 83 % 1004,9 hPa 0,0 l/m 11,6 km/h (2 Bft) SW 232 0 min 0,000 mm 1,0 UV-I 186 W/m 11,7 C 12,0 C 19,3 km/h (3 Bft) 96,43 %
02.10.2019 13:12 14,6 C 13,9 C 15,0 C 83 % 1005,0 hPa 0,0 l/m 15,7 km/h (3 Bft) SW 230 0 min 0,000 mm 1,1 UV-I 196 W/m 11,7 C 10,5 C 25,7 km/h (4 Bft) 97,37 %
02.10.2019 13:14 14,7 C 13,9 C 15,6 C 84 % 1005,0 hPa 0,0 l/m 12,6 km/h (3 Bft) W-SW 244 0 min 0,000 mm 1,1 UV-I 209 W/m 12,0 C 11,7 C 22,5 km/h (4 Bft) 98,21 %
02.10.2019 13:16 14,7 C 13,9 C 15,6 C 83 % 1004,9 hPa 0,0 l/m 11,3 km/h (2 Bft) W-SW 244 0 min 0,000 mm 1,2 UV-I 218 W/m 11,8 C 12,2 C 20,9 km/h (4 Bft) 95,74 %
02.10.2019 13:18 14,8 C 13,9 C 15,6 C 83 % 1005,0 hPa 0,0 l/m 11,3 km/h (2 Bft) SW 214 0 min 0,000 mm 1,2 UV-I 213 W/m 11,9 C 12,3 C 19,3 km/h (3 Bft) 95,74 %
02.10.2019 13:20 14,8 C 13,9 C 15,6 C 83 % 1005,0 hPa 0,0 l/m 15,9 km/h (3 Bft) W-SW 246 0 min 0,000 mm 1,1 UV-I 200 W/m 11,9 C 10,7 C 22,5 km/h (4 Bft) 95,74 %
02.10.2019 13:22 14,9 C 13,9 C 15,6 C 83 % 1004,9 hPa 0,0 l/m 11,4 km/h (2 Bft) W-SW 239 0 min 0,000 mm 1,0 UV-I 183 W/m 12,0 C 12,4 C 19,3 km/h (3 Bft) 95,45 %
02.10.2019 13:24 14,9 C 13,9 C 15,6 C 82 % 1004,9 hPa 0,0 l/m 15,2 km/h (3 Bft) W-SW 252 0 min 0,000 mm 1,0 UV-I 172 W/m 11,9 C 11,0 C 22,5 km/h (4 Bft) 95,45 %
02.10.2019 13:26 14,9 C 13,9 C 15,6 C 82 % 1004,9 hPa 0,0 l/m 11,9 km/h (2 Bft) SW 226 0 min 0,000 mm 1,0 UV-I 169 W/m 11,9 C 12,2 C 19,3 km/h (3 Bft) 94,34 %
02.10.2019 13:29 14,9 C 13,9 C 15,0 C 81 % 1004,9 hPa 0,0 l/m 12,8 km/h (3 Bft) SW 214 0 min 0,000 mm 1,0 UV-I 175 W/m 11,7 C 11,8 C 19,3 km/h (3 Bft) 92,31 %
02.10.2019 13:30 14,9 C 13,9 C 15,0 C 81 % 1004,9 hPa 0,0 l/m 17,7 km/h (3 Bft) SW 220 0 min 0,000 mm 1,0 UV-I 185 W/m 11,7 C 10,2 C 27,4 km/h (4 Bft) 93,33 %
02.10.2019 13:32 15,0 C 13,9 C 15,0 C 81 % 1004,9 hPa 0,0 l/m 10,6 km/h (2 Bft) W 263 0 min 0,000 mm 1,1 UV-I 195 W/m 11,8 C 12,9 C 19,3 km/h (3 Bft) 93,44 %
02.10.2019 13:34 15,1 C 13,9 C 15,6 C 81 % 1004,9 hPa 0,0 l/m 16,7 km/h (3 Bft) W-SW 239 0 min 0,000 mm 1,1 UV-I 207 W/m 11,9 C 10,8 C 22,5 km/h (4 Bft) 92,31 %
02.10.2019 13:36 15,1 C 13,9 C 15,6 C 81 % 1004,9 hPa 0,0 l/m 12,1 km/h (2 Bft) W-SW 251 0 min 0,000 mm 1,2 UV-I 218 W/m 11,9 C 12,3 C 19,3 km/h (3 Bft) 92,00 %
02.10.2019 13:39 15,2 C 13,9 C 15,6 C 81 % 1004,9 hPa 0,0 l/m 14,5 km/h (3 Bft) W 260 0 min 0,000 mm 1,2 UV-I 222 W/m 12,0 C 11,6 C 20,9 km/h (4 Bft) 93,67 %
02.10.2019 13:40 15,2 C 13,9 C 15,6 C 81 % 1004,9 hPa 0,0 l/m 13,3 km/h (3 Bft) W-SW 240 0 min 0,000 mm 1,2 UV-I 224 W/m 12,0 C 12,0 C 17,7 km/h (3 Bft) 91,67 %
02.10.2019 13:42 15,2 C 13,9 C 15,6 C 81 % 1004,9 hPa 0,0 l/m 12,4 km/h (3 Bft) W 267 0 min 0,000 mm 1,2 UV-I 226 W/m 12,0 C 12,3 C 22,5 km/h (4 Bft) 94,64 %
02.10.2019 13:44 15,3 C 13,9 C 15,6 C 81 % 1005,0 hPa 0,0 l/m 18,2 km/h (3 Bft) W-SW 240 0 min 0,000 mm 1,2 UV-I 222 W/m 12,1 C 10,6 C 27,4 km/h (4 Bft) 95,12 %
02.10.2019 13:46 15,3 C 13,9 C 15,6 C 81 % 1005,0 hPa 0,0 l/m 15,1 km/h (3 Bft) W-SW 250 0 min 0,000 mm 1,2 UV-I 214 W/m 12,1 C 11,5 C 20,9 km/h (4 Bft) 95,74 %
02.10.2019 13:48 15,3 C 13,9 C 15,6 C 80 % 1005,0 hPa 0,0 l/m 18,7 km/h (3 Bft) W-SW 238 0 min 0,000 mm 1,1 UV-I 203 W/m 11,9 C 10,5 C 30,6 km/h (5 Bft) 93,62 %
02.10.2019 13:50 15,3 C 13,9 C 15,0 C 80 % 1004,9 hPa 0,0 l/m 13,9 km/h (3 Bft) W 271 0 min 0,000 mm 1,1 UV-I 188 W/m 11,9 C 11,9 C 22,5 km/h (4 Bft) 92,00 %
02.10.2019 13:52 15,3 C 13,9 C 15,0 C 80 % 1005,0 hPa 0,0 l/m 17,9 km/h (3 Bft) W 270 0 min 0,000 mm 0,9 UV-I 171 W/m 11,9 C 10,7 C 30,6 km/h (5 Bft) 100,00 %
02.10.2019 13:54 15,2 C 13,9 C 15,0 C 80 % 1004,9 hPa 0,0 l/m 15,8 km/h (3 Bft) W 262 0 min 0,000 mm 0,9 UV-I 160 W/m 11,8 C 11,2 C 22,5 km/h (4 Bft) 96,00 %
02.10.2019 13:56 15,2 C 13,9 C 15,0 C 81 % 1004,9 hPa 0,0 l/m 15,7 km/h (3 Bft) W 273 0 min 0,000 mm 0,9 UV-I 158 W/m 12,0 C 11,2 C 24,1 km/h (4 Bft) 97,56 %
02.10.2019 13:59 15,1 C 13,9 C 15,0 C 81 % 1004,9 hPa 0,0 l/m 13,8 km/h (3 Bft) W-SW 253 0 min 0,000 mm 0,8 UV-I 148 W/m 11,9 C 11,7 C 20,9 km/h (4 Bft) 97,40 %
02.10.2019 14:00 15,1 C 13,9 C 14,4 C 81 % 1004,9 hPa 0,0 l/m 15,4 km/h (3 Bft) W-SW 252 0 min 0,000 mm 0,8 UV-I 144 W/m 11,9 C 11,2 C 20,9 km/h (4 Bft) 100,00 %
02.10.2019 14:02 15,1 C 13,9 C 14,4 C 81 % 1005,0 hPa 0,0 l/m 15,9 km/h (3 Bft) W 269 0 min 0,127 mm 0,8 UV-I 149 W/m 11,9 C 11,0 C 22,5 km/h (4 Bft) 100,00 %
02.10.2019 14:04 15,0 C 13,9 C 14,4 C 82 % 1005,0 hPa 0,0 l/m 16,2 km/h (3 Bft) W-SW 256 0 min 0,000 mm 0,9 UV-I 159 W/m 12,0 C 10,8 C 20,9 km/h (4 Bft) 100,00 %
02.10.2019 14:06 15,0 C 13,9 C 15,0 C 83 % 1004,9 hPa 0,0 l/m 12,5 km/h (3 Bft) W-SW 240 0 min 0,000 mm 0,9 UV-I 166 W/m 12,1 C 12,1 C 19,3 km/h (3 Bft) 100,00 %
02.10.2019 14:08 14,9 C 13,9 C 15,0 C 83 % 1004,9 hPa 0,0 l/m 14,3 km/h (3 Bft) SW 228 0 min 0,000 mm 0,9 UV-I 169 W/m 12,0 C 11,3 C 22,5 km/h (4 Bft) 100,00 %
02.10.2019 14:10 14,9 C 13,9 C 15,0 C 83 % 1004,9 hPa 0,0 l/m 15,0 km/h (3 Bft) W 262 0 min 0,000 mm 0,9 UV-I 171 W/m 12,0 C 11,1 C 22,5 km/h (4 Bft) 100,00 %
02.10.2019 14:12 14,9 C 13,9 C 15,0 C 83 % 1004,8 hPa 0,0 l/m 12,1 km/h (2 Bft) SW 214 0 min 0,000 mm 1,0 UV-I 184 W/m 12,0 C 12,1 C 19,3 km/h (3 Bft) 100,00 %
02.10.2019 14:14 14,9 C 13,9 C 15,0 C 83 % 1004,8 hPa 0,0 l/m 16,1 km/h (3 Bft) W-SW 239 0 min 0,000 mm 1,0 UV-I 197 W/m 12,0 C 10,7 C 25,7 km/h (4 Bft) 100,00 %
02.10.2019 14:16 14,9 C 13,9 C 15,0 C 83 % 1004,9 hPa 0,0 l/m 14,3 km/h (3 Bft) W 278 0 min 0,000 mm 1,0 UV-I 201 W/m 12,0 C 11,3 C 24,1 km/h (4 Bft) 100,00 %
02.10.2019 14:18 14,9 C 13,9 C 15,6 C 83 % 1004,9 hPa 0,0 l/m 12,0 km/h (2 Bft) W-NW 297 0 min 0,000 mm 1,0 UV-I 195 W/m 12,0 C 12,2 C 20,9 km/h (4 Bft) 100,00 %
02.10.2019 14:20 15,0 C 13,9 C 15,6 C 83 % 1004,9 hPa 0,0 l/m 12,8 km/h (3 Bft) W 265 0 min 0,000 mm 1,0 UV-I 189 W/m 12,1 C 12,0 C 17,7 km/h (3 Bft) 100,00 %
02.10.2019 14:22 15,0 C 13,9 C 15,6 C 83 % 1004,8 hPa 0,0 l/m 12,3 km/h (3 Bft) W-SW 244 0 min 0,000 mm 1,0 UV-I 191 W/m 12,1 C 12,2 C 20,9 km/h (4 Bft) 100,00 %
02.10.2019 14:24 15,1 C 13,9 C 15,6 C 83 % 1004,8 hPa 0,0 l/m 12,4 km/h (3 Bft) SW 232 0 min 0,000 mm 1,0 UV-I 192 W/m 12,2 C 12,2 C 24,1 km/h (4 Bft) 100,00 %
02.10.2019 14:26 15,1 C 13,9 C 15,6 C 83 % 1004,9 hPa 0,0 l/m 13,0 km/h (3 Bft) W-SW 238 0 min 0,000 mm 1,0 UV-I 191 W/m 12,2 C 12,0 C 20,9 km/h (4 Bft) 100,00 %
02.10.2019 14:28 15,1 C 13,9 C 15,6 C 83 % 1004,8 hPa 0,0 l/m 10,7 km/h (2 Bft) W-SW 243 0 min 0,000 mm 1,0 UV-I 190 W/m 12,2 C 12,9 C 16,1 km/h (3 Bft) 98,00 %
02.10.2019 14:30 15,1 C 13,9 C 15,6 C 82 % 1004,8 hPa 0,0 l/m 15,2 km/h (3 Bft) SW 236 0 min 0,000 mm 1,0 UV-I 185 W/m 12,0 C 11,2 C 24,1 km/h (4 Bft) 100,00 %
02.10.2019 14:32 15,1 C 13,9 C 15,6 C 82 % 1004,8 hPa 0,0 l/m 12,3 km/h (3 Bft) W 274 0 min 0,000 mm 0,9 UV-I 176 W/m 12,0 C 12,3 C 17,7 km/h (3 Bft) 94,74 %
02.10.2019 14:34 15,1 C 13,9 C 15,6 C 82 % 1004,7 hPa 0,0 l/m 12,3 km/h (3 Bft) W-SW 238 0 min 0,000 mm 0,9 UV-I 171 W/m 12,0 C 12,3 C 17,7 km/h (3 Bft) 100,00 %
02.10.2019 14:36 15,1 C 13,9 C 15,6 C 83 % 1004,7 hPa 0,0 l/m 9,6 km/h (2 Bft) W-SW 238 0 min 0,000 mm 0,9 UV-I 171 W/m 12,2 C 13,4 C 14,5 km/h (3 Bft) 100,00 %
02.10.2019 14:38 15,1 C 13,9 C 15,6 C 82 % 1004,7 hPa 0,0 l/m 11,8 km/h (2 Bft) W-SW 256 0 min 0,000 mm 0,9 UV-I 182 W/m 12,0 C 12,5 C 17,7 km/h (3 Bft) 98,00 %
02.10.2019 14:40 15,2 C 13,9 C 16,1 C 83 % 1004,7 hPa 0,0 l/m 9,7 km/h (2 Bft) SW 225 0 min 0,000 mm 1,0 UV-I 197 W/m 12,3 C 13,5 C 16,1 km/h (3 Bft) 100,00 %
02.10.2019 14:42 15,2 C 13,9 C 16,1 C 83 % 1004,7 hPa 0,0 l/m 9,3 km/h (2 Bft) SW 227 0 min 0,000 mm 1,0 UV-I 207 W/m 12,3 C 13,7 C 14,5 km/h (3 Bft) 100,00 %
02.10.2019 14:44 15,3 C 13,9 C 16,7 C 83 % 1004,8 hPa 0,0 l/m 9,6 km/h (2 Bft) SW 223 0 min 0,000 mm 1,0 UV-I 204 W/m 12,4 C 13,6 C 14,5 km/h (3 Bft) 100,00 %
02.10.2019 14:46 15,3 C 13,9 C 16,7 C 82 % 1004,8 hPa 0,0 l/m 10,0 km/h (2 Bft) S-SW 200 0 min 0,000 mm 1,0 UV-I 201 W/m 12,2 C 13,4 C 17,7 km/h (3 Bft) 97,62 %
02.10.2019 14:48 15,4 C 13,9 C 16,7 C 82 % 1004,7 hPa 0,0 l/m 11,2 km/h (2 Bft) SW 232 0 min 0,000 mm 1,0 UV-I 211 W/m 12,3 C 13,0 C 19,3 km/h (3 Bft) 98,00 %
02.10.2019 14:50 15,4 C 13,9 C 16,7 C 82 % 1004,7 hPa 0,0 l/m 11,9 km/h (2 Bft) W-SW 244 0 min 0,000 mm 1,1 UV-I 227 W/m 12,3 C 12,8 C 19,3 km/h (3 Bft) 97,14 %
02.10.2019 14:52 15,5 C 13,9 C 16,7 C 81 % 1004,7 hPa 0,0 l/m 17,6 km/h (3 Bft) W-SW 256 0 min 0,000 mm 1,1 UV-I 236 W/m 12,3 C 11,0 C 30,6 km/h (5 Bft) 97,78 %
02.10.2019 14:54 15,6 C 13,9 C 16,7 C 81 % 1004,7 hPa 0,0 l/m 10,2 km/h (2 Bft) SW 223 0 min 0,000 mm 1,1 UV-I 233 W/m 12,3 C 13,7 C 17,7 km/h (3 Bft) 98,31 %
02.10.2019 14:56 15,6 C 13,9 C 17,2 C 81 % 1004,6 hPa 0,0 l/m 9,6 km/h (2 Bft) W 261 0 min 0,000 mm 1,1 UV-I 229 W/m 12,3 C 14,0 C 16,1 km/h (3 Bft) 95,74 %
02.10.2019 14:58 15,7 C 13,9 C 17,2 C 80 % 1004,6 hPa 0,0 l/m 13,9 km/h (3 Bft) W 262 0 min 0,000 mm 1,1 UV-I 229 W/m 12,3 C 12,4 C 27,4 km/h (4 Bft) 95,12 %
02.10.2019 15:00 15,7 C 13,9 C 17,2 C 80 % 1004,7 hPa 0,0 l/m 15,9 km/h (3 Bft) W-SW 242 0 min 0,000 mm 1,1 UV-I 235 W/m 12,3 C 11,8 C 24,1 km/h (4 Bft) 97,73 %
02.10.2019 15:02 15,8 C 13,9 C 17,8 C 79 % 1004,7 hPa 0,0 l/m 13,0 km/h (3 Bft) W-SW 246 0 min 0,127 mm 1,1 UV-I 235 W/m 12,2 C 12,8 C 27,4 km/h (4 Bft) 96,23 %
02.10.2019 15:04 15,8 C 13,9 C 17,8 C 79 % 1004,6 hPa 0,0 l/m 16,2 km/h (3 Bft) W-SW 248 0 min 0,000 mm 1,1 UV-I 224 W/m 12,2 C 11,8 C 25,7 km/h (4 Bft) 98,00 %
02.10.2019 15:06 15,8 C 13,9 C 17,8 C 78 % 1004,6 hPa 0,0 l/m 17,6 km/h (3 Bft) W 271 0 min 0,000 mm 1,0 UV-I 209 W/m 12,0 C 11,4 C 35,4 km/h (5 Bft) 97,87 %
02.10.2019 15:08 15,8 C 13,9 C 17,8 C 78 % 1004,5 hPa 0,0 l/m 16,8 km/h (3 Bft) W 262 0 min 0,000 mm 0,9 UV-I 197 W/m 12,0 C 11,6 C 24,1 km/h (4 Bft) 97,56 %
02.10.2019 15:10 15,8 C 13,9 C 17,2 C 78 % 1004,5 hPa 0,0 l/m 16,1 km/h (3 Bft) W 273 0 min 0,000 mm 0,9 UV-I 187 W/m 12,0 C 11,8 C 27,4 km/h (4 Bft) 100,00 %
02.10.2019 15:12 15,8 C 13,9 C 17,2 C 78 % 1004,6 hPa 0,0 l/m 14,1 km/h (3 Bft) W 272 0 min 0,000 mm 0,8 UV-I 175 W/m 12,0 C 12,5 C 17,7 km/h (3 Bft) 100,00 %
02.10.2019 15:14 15,8 C 13,9 C 17,2 C 78 % 1004,6 hPa 0,0 l/m 19,7 km/h (3 Bft) W 279 0 min 0,000 mm 0,8 UV-I 165 W/m 12,0 C 10,9 C 29,0 km/h (5 Bft) 98,21 %
02.10.2019 15:16 15,8 C 13,9 C 17,2 C 78 % 1004,6 hPa 0,0 l/m 15,5 km/h (3 Bft) W 267 0 min 0,000 mm 0,7 UV-I 159 W/m 12,0 C 12,0 C 24,1 km/h (4 Bft) 100,00 %
02.10.2019 15:18 15,8 C 13,9 C 17,2 C 79 % 1004,6 hPa 0,0 l/m 12,4 km/h (3 Bft) W-SW 249 0 min 0,000 mm 0,8 UV-I 163 W/m 12,2 C 13,0 C 20,9 km/h (4 Bft) 97,14 %
02.10.2019 15:20 15,8 C 13,9 C 17,2 C 79 % 1004,5 hPa 0,0 l/m 12,8 km/h (3 Bft) W-NW 296 0 min 0,000 mm 0,8 UV-I 169 W/m 12,2 C 12,9 C 25,7 km/h (4 Bft) 100,00 %
02.10.2019 15:22 15,8 C 13,9 C 17,2 C 78 % 1004,6 hPa 0,0 l/m 17,4 km/h (3 Bft) W 260 0 min 0,000 mm 0,8 UV-I 171 W/m 12,0 C 11,5 C 29,0 km/h (5 Bft) 98,11 %
02.10.2019 15:24 15,7 C 13,9 C 17,2 C 77 % 1004,5 hPa 0,0 l/m 16,5 km/h (3 Bft) W 264 0 min 0,000 mm 0,8 UV-I 166 W/m 11,7 C 11,6 C 24,1 km/h (4 Bft) 100,00 %
02.10.2019 15:26 15,7 C 13,9 C 17,2 C 78 % 1004,5 hPa 0,0 l/m 14,9 km/h (3 Bft) W-SW 256 0 min 0,000 mm 0,7 UV-I 157 W/m 11,9 C 12,1 C 25,7 km/h (4 Bft) 98,18 %
02.10.2019 15:28 15,7 C 13,9 C 17,2 C 77 % 1004,5 hPa 0,0 l/m 14,6 km/h (3 Bft) W 271 0 min 0,000 mm 0,7 UV-I 155 W/m 11,7 C 12,2 C 24,1 km/h (4 Bft) 97,62 %
02.10.2019 15:30 15,7 C 13,9 C 17,2 C 77 % 1004,5 hPa 0,0 l/m 13,1 km/h (3 Bft) W-SW 243 0 min 0,000 mm 0,7 UV-I 155 W/m 11,7 C 12,7 C 29,0 km/h (5 Bft) 95,12 %
02.10.2019 15:32 15,7 C 13,9 C 17,2 C 78 % 1004,5 hPa 0,0 l/m 14,2 km/h (3 Bft) W 270 0 min 0,000 mm 0,7 UV-I 156 W/m 11,9 C 12,3 C 20,9 km/h (4 Bft) 98,00 %
02.10.2019 15:34 15,7 C 13,9 C 17,2 C 77 % 1004,4 hPa 0,0 l/m 13,2 km/h (3 Bft) W-SW 252 0 min 0,000 mm 0,7 UV-I 160 W/m 11,7 C 12,6 C 22,5 km/h (4 Bft) 95,74 %
02.10.2019 15:36 15,7 C 13,9 C 17,2 C 77 % 1004,4 hPa 0,0 l/m 17,8 km/h (3 Bft) W 261 0 min 0,000 mm 0,7 UV-I 160 W/m 11,7 C 11,2 C 27,4 km/h (4 Bft) 96,43 %
02.10.2019 15:38 15,7 C 13,9 C 17,2 C 77 % 1004,4 hPa 0,0 l/m 17,2 km/h (3 Bft) W 259 0 min 0,000 mm 0,7 UV-I 160 W/m 11,7 C 11,4 C 20,9 km/h (4 Bft) 97,56 %
02.10.2019 15:40 15,7 C 13,9 C 17,2 C 77 % 1004,4 hPa 0,0 l/m 16,5 km/h (3 Bft) W-SW 254 0 min 0,000 mm 0,7 UV-I 162 W/m 11,7 C 11,6 C 22,5 km/h (4 Bft) 97,37 %
02.10.2019 15:42 15,7 C 13,9 C 17,2 C 77 % 1004,4 hPa 0,0 l/m 13,4 km/h (3 Bft) SW 232 0 min 0,000 mm 0,7 UV-I 162 W/m 11,7 C 12,6 C 24,1 km/h (4 Bft) 98,25 %
02.10.2019 15:44 15,7 C 13,9 C 16,7 C 77 % 1004,4 hPa 0,0 l/m 17,8 km/h (3 Bft) SW 219 0 min 0,000 mm 0,7 UV-I 155 W/m 11,7 C 11,2 C 25,7 km/h (4 Bft) 98,00 %
02.10.2019 15:46 15,7 C 13,9 C 16,7 C 77 % 1004,4 hPa 0,0 l/m 11,7 km/h (2 Bft) W-SW 251 0 min 0,000 mm 0,6 UV-I 146 W/m 11,7 C 13,2 C 17,7 km/h (3 Bft) 94,74 %
02.10.2019 15:48 15,7 C 13,9 C 16,7 C 77 % 1004,4 hPa 0,0 l/m 17,0 km/h (3 Bft) W 263 0 min 0,000 mm 0,6 UV-I 135 W/m 11,7 C 11,4 C 30,6 km/h (5 Bft) 98,00 %
02.10.2019 15:50 15,6 C 13,9 C 16,7 C 77 % 1004,4 hPa 0,0 l/m 15,1 km/h (3 Bft) W-SW 244 0 min 0,000 mm 0,6 UV-I 133 W/m 11,6 C 11,9 C 24,1 km/h (4 Bft) 96,23 %
02.10.2019 15:52 15,6 C 13,9 C 16,7 C 76 % 1004,4 hPa 0,0 l/m 17,4 km/h (3 Bft) W-SW 246 0 min 0,000 mm 0,6 UV-I 138 W/m 11,4 C 11,2 C 25,7 km/h (4 Bft) 100,00 %
02.10.2019 15:54 15,6 C 13,9 C 16,7 C 77 % 1004,4 hPa 0,0 l/m 15,7 km/h (3 Bft) SW 214 0 min 0,000 mm 0,6 UV-I 142 W/m 11,6 C 11,7 C 25,7 km/h (4 Bft) 96,23 %
02.10.2019 15:56 15,6 C 13,9 C 16,7 C 76 % 1004,4 hPa 0,0 l/m 15,9 km/h (3 Bft) W-SW 237 0 min 0,000 mm 0,6 UV-I 143 W/m 11,4 C 11,6 C 27,4 km/h (4 Bft) 97,37 %
02.10.2019 15:58 15,6 C 13,9 C 16,7 C 77 % 1004,4 hPa 0,0 l/m 14,5 km/h (3 Bft) SW 225 0 min 0,000 mm 0,6 UV-I 147 W/m 11,6 C 12,1 C 19,3 km/h (3 Bft) 95,83 %
02.10.2019 16:00 15,6 C 13,9 C 16,7 C 76 % 1004,4 hPa 0,0 l/m 18,3 km/h (3 Bft) SW 232 0 min 0,127 mm 0,6 UV-I 148 W/m 11,4 C 11,0 C 27,4 km/h (4 Bft) 100,00 %
02.10.2019 16:02 15,6 C 13,9 C 16,7 C 76 % 1004,4 hPa 0,0 l/m 19,3 km/h (3 Bft) W-SW 246 0 min 0,000 mm 0,5 UV-I 145 W/m 11,4 C 10,7 C 30,6 km/h (5 Bft) 97,96 %
02.10.2019 16:04 15,6 C 13,9 C 16,7 C 76 % 1004,4 hPa 0,0 l/m 18,6 km/h (3 Bft) W-SW 243 0 min 0,000 mm 0,5 UV-I 140 W/m 11,4 C 10,9 C 24,1 km/h (4 Bft) 95,24 %
02.10.2019 16:06 15,6 C 13,9 C 16,7 C 76 % 1004,4 hPa 0,0 l/m 21,1 km/h (4 Bft) W-SW 252 0 min 0,000 mm 0,5 UV-I 133 W/m 11,4 C 10,3 C 35,4 km/h (5 Bft) 98,00 %
02.10.2019 16:08 15,6 C 13,9 C 16,7 C 76 % 1004,5 hPa 0,0 l/m 20,7 km/h (4 Bft) W 269 0 min 0,000 mm 0,5 UV-I 128 W/m 11,4 C 10,4 C 29,0 km/h (5 Bft) 98,00 %
02.10.2019 16:10 15,6 C 13,9 C 16,7 C 76 % 1004,5 hPa 0,0 l/m 11,7 km/h (2 Bft) W-SW 252 0 min 0,000 mm 0,5 UV-I 125 W/m 11,4 C 13,1 C 17,7 km/h (3 Bft) 100,00 %
02.10.2019 16:12 15,6 C 13,9 C 16,7 C 76 % 1004,5 hPa 0,0 l/m 16,1 km/h (3 Bft) W 273 0 min 0,000 mm 0,5 UV-I 125 W/m 11,4 C 11,6 C 22,5 km/h (4 Bft) 98,00 %
02.10.2019 16:14 15,6 C 13,9 C 16,7 C 77 % 1004,5 hPa 0,0 l/m 15,6 km/h (3 Bft) SW 234 0 min 0,000 mm 0,5 UV-I 123 W/m 11,6 C 11,7 C 24,1 km/h (4 Bft) 98,00 %
02.10.2019 16:16 15,5 C 13,9 C 16,7 C 77 % 1004,5 hPa 0,0 l/m 14,1 km/h (3 Bft) W 278 0 min 0,000 mm 0,3 UV-I 121 W/m 11,5 C 12,1 C 22,5 km/h (4 Bft) 96,00 %
02.10.2019 16:18 15,5 C 13,9 C 16,1 C 76 % 1004,5 hPa 0,0 l/m 18,7 km/h (3 Bft) W-SW 249 0 min 0,000 mm 0,0 UV-I 118 W/m 11,3 C 10,7 C 30,6 km/h (5 Bft) 95,74 %
02.10.2019 16:20 15,5 C 13,9 C 16,1 C 77 % 1004,5 hPa 0,0 l/m 14,0 km/h (3 Bft) W-SW 245 0 min 0,000 mm 0,0 UV-I 114 W/m 11,5 C 12,1 C 22,5 km/h (4 Bft) 95,74 %
02.10.2019 16:22 15,5 C 13,9 C 16,1 C 77 % 1004,5 hPa 0,0 l/m 15,7 km/h (3 Bft) W 273 0 min 0,000 mm 0,0 UV-I 110 W/m 11,5 C 11,6 C 25,7 km/h (4 Bft) 100,00 %
02.10.2019 16:24 15,4 C 13,9 C 16,1 C 76 % 1004,4 hPa 0,0 l/m 17,1 km/h (3 Bft) W 263 0 min 0,000 mm 0,0 UV-I 107 W/m 11,2 C 11,0 C 22,5 km/h (4 Bft) 97,73 %
02.10.2019 16:26 15,4 C 13,9 C 16,1 C 77 % 1004,4 hPa 0,0 l/m 18,2 km/h (3 Bft) SW 235 0 min 0,000 mm 0,0 UV-I 105 W/m 11,4 C 10,7 C 30,6 km/h (5 Bft) 95,74 %
02.10.2019 16:28 15,4 C 13,9 C 16,1 C 77 % 1004,4 hPa 0,0 l/m 16,9 km/h (3 Bft) SW 231 0 min 0,000 mm 0,0 UV-I 107 W/m 11,4 C 11,1 C 29,0 km/h (5 Bft) 98,11 %
02.10.2019 16:30 15,4 C 13,9 C 16,1 C 77 % 1004,5 hPa 0,0 l/m 14,4 km/h (3 Bft) SW 232 0 min 0,000 mm 0,0 UV-I 112 W/m 11,4 C 11,9 C 24,1 km/h (4 Bft) 95,74 %
02.10.2019 16:32 15,4 C 13,9 C 16,1 C 77 % 1004,5 hPa 0,0 l/m 16,6 km/h (3 Bft) W-SW 257 0 min 0,000 mm 0,0 UV-I 116 W/m 11,4 C 11,2 C 25,7 km/h (4 Bft) 95,74 %
02.10.2019 16:34 15,4 C 13,9 C 16,1 C 77 % 1004,5 hPa 0,0 l/m 15,6 km/h (3 Bft) W-SW 246 0 min 0,000 mm 0,0 UV-I 120 W/m 11,4 C 11,5 C 25,7 km/h (4 Bft) 97,22 %
02.10.2019 16:36 15,4 C 13,9 C 16,1 C 77 % 1004,4 hPa 0,0 l/m 14,3 km/h (3 Bft) SW 227 0 min 0,000 mm 0,0 UV-I 120 W/m 11,4 C 11,9 C 24,1 km/h (4 Bft) 98,08 %
02.10.2019 16:38 15,4 C 13,9 C 16,1 C 77 % 1004,4 hPa 0,0 l/m 11,8 km/h (2 Bft) W-SW 237 0 min 0,000 mm 0,0 UV-I 116 W/m 11,4 C 12,8 C 20,9 km/h (4 Bft) 98,11 %
02.10.2019 16:40 15,4 C 13,9 C 16,1 C 77 % 1004,5 hPa 0,0 l/m 13,5 km/h (3 Bft) S-SW 205 0 min 0,000 mm 0,0 UV-I 109 W/m 11,4 C 12,2 C 20,9 km/h (4 Bft) 100,00 %
02.10.2019 16:42 15,3 C 13,9 C 16,1 C 77 % 1004,5 hPa 0,0 l/m 20,0 km/h (4 Bft) W-SW 256 0 min 0,000 mm 0,0 UV-I 100 W/m 11,3 C 10,1 C 27,4 km/h (4 Bft) 100,00 %
02.10.2019 16:44 15,3 C 13,9 C 16,1 C 76 % 1004,5 hPa 0,0 l/m 18,6 km/h (3 Bft) W 260 0 min 0,000 mm 0,0 UV-I 94 W/m 11,1 C 10,5 C 29,0 km/h (5 Bft) 98,00 %
02.10.2019 16:46 15,3 C 13,9 C 16,1 C 77 % 1004,5 hPa 0,0 l/m 18,9 km/h (3 Bft) S-SW 211 0 min 0,000 mm 0,0 UV-I 91 W/m 11,3 C 10,4 C 25,7 km/h (4 Bft) 97,87 %
02.10.2019 16:48 15,3 C 13,9 C 16,1 C 77 % 1004,5 hPa 0,0 l/m 16,8 km/h (3 Bft) W-SW 251 0 min 0,000 mm 0,0 UV-I 92 W/m 11,3 C 11,0 C 27,4 km/h (4 Bft) 98,21 %
02.10.2019 16:50 15,3 C 13,9 C 15,6 C 77 % 1004,4 hPa 0,0 l/m 19,2 km/h (3 Bft) W 262 0 min 0,000 mm 0,0 UV-I 93 W/m 11,3 C 10,3 C 24,1 km/h (4 Bft) 96,55 %
02.10.2019 16:52 15,3 C 13,9 C 15,6 C 77 % 1004,4 hPa 0,0 l/m 15,5 km/h (3 Bft) SW 223 0 min 0,000 mm 0,0 UV-I 93 W/m 11,3 C 11,4 C 19,3 km/h (3 Bft) 98,11 %
02.10.2019 16:54 15,3 C 13,9 C 15,6 C 77 % 1004,4 hPa 0,0 l/m 20,6 km/h (4 Bft) W 259 0 min 0,000 mm 0,0 UV-I 92 W/m 11,3 C 10,0 C 27,4 km/h (4 Bft) 97,37 %
02.10.2019 16:56 15,2 C 13,9 C 15,6 C 77 % 1004,4 hPa 0,0 l/m 17,0 km/h (3 Bft) W-SW 246 0 min 0,000 mm 0,0 UV-I 88 W/m 11,2 C 10,8 C 24,1 km/h (4 Bft) 96,92 %
02.10.2019 16:58 15,2 C 13,9 C 15,6 C 78 % 1004,4 hPa 0,0 l/m 14,5 km/h (3 Bft) SW 226 0 min 0,000 mm 0,0 UV-I 82 W/m 11,4 C 11,6 C 22,5 km/h (4 Bft) 97,37 %
02.10.2019 17:00 15,2 C 13,9 C 15,6 C 78 % 1004,5 hPa 0,0 l/m 12,7 km/h (3 Bft) SW 233 0 min 0,000 mm 0,0 UV-I 77 W/m 11,4 C 12,2 C 20,9 km/h (4 Bft) 98,00 %
02.10.2019 17:02 15,2 C 13,9 C 15,6 C 78 % 1004,5 hPa 0,0 l/m 14,3 km/h (3 Bft) SW 236 0 min 0,102 mm 0,0 UV-I 72 W/m 11,4 C 11,7 C 22,5 km/h (4 Bft) 96,23 %
02.10.2019 17:04 15,2 C 13,9 C 15,6 C 78 % 1004,5 hPa 0,0 l/m 17,7 km/h (3 Bft) W-SW 237 0 min 0,000 mm 0,0 UV-I 69 W/m 11,4 C 10,6 C 25,7 km/h (4 Bft) 97,56 %
02.10.2019 17:06 15,2 C 13,9 C 15,6 C 79 % 1004,4 hPa 0,0 l/m 13,2 km/h (3 Bft) W-SW 245 0 min 0,000 mm 0,0 UV-I 70 W/m 11,6 C 12,1 C 20,9 km/h (4 Bft) 98,00 %
02.10.2019 17:08 15,1 C 13,9 C 15,6 C 78 % 1004,5 hPa 0,0 l/m 14,4 km/h (3 Bft) W 271 0 min 0,000 mm 0,0 UV-I 73 W/m 11,3 C 11,5 C 22,5 km/h (4 Bft) 97,56 %
02.10.2019 17:10 15,1 C 13,9 C 15,6 C 79 % 1004,5 hPa 0,0 l/m 16,8 km/h (3 Bft) SW 236 0 min 0,000 mm 0,0 UV-I 75 W/m 11,5 C 10,8 C 22,5 km/h (4 Bft) 98,11 %
02.10.2019 17:12 15,1 C 13,9 C 15,6 C 79 % 1004,5 hPa 0,0 l/m 15,6 km/h (3 Bft) SW 227 0 min 0,000 mm 0,0 UV-I 72 W/m 11,5 C 11,1 C 24,1 km/h (4 Bft) 95,74 %
02.10.2019 17:14 15,1 C 13,9 C 15,6 C 79 % 1004,5 hPa 0,0 l/m 16,3 km/h (3 Bft) W-SW 255 0 min 0,000 mm 0,0 UV-I 73 W/m 11,5 C 10,9 C 22,5 km/h (4 Bft) 98,00 %
02.10.2019 17:16 15,1 C 13,9 C 15,6 C 79 % 1004,5 hPa 0,0 l/m 10,6 km/h (2 Bft) W 268 0 min 0,000 mm 0,0 UV-I 74 W/m 11,5 C 13,0 C 17,7 km/h (3 Bft) 97,87 %
02.10.2019 17:18 15,1 C 13,9 C 15,6 C 79 % 1004,5 hPa 0,0 l/m 12,4 km/h (3 Bft) W-SW 252 0 min 0,000 mm 0,0 UV-I 76 W/m 11,5 C 12,2 C 22,5 km/h (4 Bft) 97,22 %
02.10.2019 17:20 15,0 C 13,9 C 15,6 C 79 % 1004,5 hPa 0,0 l/m 11,3 km/h (2 Bft) SW 227 0 min 0,000 mm 0,0 UV-I 76 W/m 11,4 C 12,6 C 17,7 km/h (3 Bft) 96,61 %
02.10.2019 17:22 15,0 C 13,9 C 15,6 C 79 % 1004,5 hPa 0,0 l/m 11,6 km/h (2 Bft) W-SW 248 0 min 0,000 mm 0,0 UV-I 77 W/m 11,4 C 12,4 C 20,9 km/h (4 Bft) 94,29 %
02.10.2019 17:24 15,0 C 13,9 C 15,6 C 79 % 1004,5 hPa 0,0 l/m 12,3 km/h (3 Bft) SW 231 0 min 0,000 mm 0,0 UV-I 77 W/m 11,4 C 12,2 C 17,7 km/h (3 Bft) 94,34 %
02.10.2019 17:26 14,9 C 13,9 C 15,6 C 80 % 1004,5 hPa 0,0 l/m 14,3 km/h (3 Bft) SW 225 0 min 0,000 mm 0,0 UV-I 79 W/m 11,5 C 11,3 C 19,3 km/h (3 Bft) 92,68 %
02.10.2019 17:28 15,0 C 13,9 C 15,6 C 79 % 1004,5 hPa 0,0 l/m 16,4 km/h (3 Bft) SW 235 0 min 0,000 mm 0,0 UV-I 77 W/m 11,4 C 10,7 C 22,5 km/h (4 Bft) 94,00 %
02.10.2019 17:30 15,0 C 13,9 C 15,6 C 80 % 1004,5 hPa 0,0 l/m 11,5 km/h (2 Bft) W-SW 250 0 min 0,000 mm 0,0 UV-I 76 W/m 11,6 C 12,5 C 19,3 km/h (3 Bft) 96,00 %
02.10.2019 17:32 14,9 C 13,9 C 15,6 C 80 % 1004,5 hPa 0,0 l/m 13,3 km/h (3 Bft) W-SW 238 0 min 0,000 mm 0,0 UV-I 75 W/m 11,5 C 11,7 C 22,5 km/h (4 Bft) 96,00 %
02.10.2019 17:34 14,9 C 13,9 C 15,6 C 80 % 1004,5 hPa 0,0 l/m 10,7 km/h (2 Bft) SW 223 0 min 0,000 mm 0,0 UV-I 83 W/m 11,5 C 12,7 C 16,1 km/h (3 Bft) 93,62 %
02.10.2019 17:36 14,9 C 13,9 C 15,6 C 80 % 1004,5 hPa 0,0 l/m 11,9 km/h (2 Bft) SW 234 2 min 0,000 mm 0,0 UV-I 104 W/m 11,5 C 12,2 C 22,5 km/h (4 Bft) 92,68 %
02.10.2019 17:38 14,9 C 13,9 C 15,6 C 80 % 1004,6 hPa 0,0 l/m 10,6 km/h (2 Bft) SW 227 2 min 0,000 mm 0,0 UV-I 100 W/m 11,5 C 12,7 C 20,9 km/h (4 Bft) 94,34 %
02.10.2019 17:40 15,0 C 13,9 C 15,6 C 80 % 1004,6 hPa 0,0 l/m 11,7 km/h (2 Bft) W-SW 245 0 min 0,000 mm 0,0 UV-I 85 W/m 11,6 C 12,4 C 17,7 km/h (3 Bft) 92,11 %
02.10.2019 17:42 15,0 C 13,9 C 15,6 C 80 % 1004,6 hPa 0,0 l/m 14,1 km/h (3 Bft) W-SW 243 0 min 0,000 mm 0,0 UV-I 78 W/m 11,6 C 11,5 C 20,9 km/h (4 Bft) 92,86 %
02.10.2019 17:44 15,0 C 13,9 C 15,6 C 79 % 1004,7 hPa 0,0 l/m 13,9 km/h (3 Bft) W-SW 250 0 min 0,000 mm 0,0 UV-I 80 W/m 11,4 C 11,6 C 20,9 km/h (4 Bft) 95,12 %
02.10.2019 17:46 15,0 C 13,9 C 15,6 C 79 % 1004,7 hPa 0,0 l/m 12,8 km/h (3 Bft) SW 223 2 min 0,000 mm 0,0 UV-I 80 W/m 11,4 C 12,0 C 19,3 km/h (3 Bft) 92,68 %
02.10.2019 17:48 15,0 C 13,9 C 15,6 C 79 % 1004,7 hPa 0,0 l/m 14,0 km/h (3 Bft) W 261 2 min 0,000 mm 0,0 UV-I 77 W/m 11,4 C 11,5 C 20,9 km/h (4 Bft) 90,57 %
02.10.2019 17:50 15,0 C 13,9 C 15,6 C 79 % 1004,8 hPa 0,0 l/m 15,1 km/h (3 Bft) W-SW 239 2 min 0,000 mm 0,0 UV-I 80 W/m 11,4 C 11,2 C 20,9 km/h (4 Bft) 94,87 %
02.10.2019 17:52 15,0 C 13,9 C 15,6 C 79 % 1004,7 hPa 0,0 l/m 14,1 km/h (3 Bft) W-SW 241 2 min 0,000 mm 0,0 UV-I 75 W/m 11,4 C 11,5 C 19,3 km/h (3 Bft) 95,12 %
02.10.2019 17:54 15,0 C 13,9 C 15,6 C 79 % 1004,7 hPa 0,0 l/m 14,2 km/h (3 Bft) SW 217 2 min 0,000 mm 0,0 UV-I 74 W/m 11,4 C 11,5 C 19,3 km/h (3 Bft) 88,71 %
02.10.2019 17:56 15,0 C 13,9 C 15,6 C 79 % 1004,8 hPa 0,0 l/m 13,6 km/h (3 Bft) SW 228 2 min 0,000 mm 0,0 UV-I 71 W/m 11,4 C 11,7 C 22,5 km/h (4 Bft) 95,92 %
02.10.2019 17:58 15,0 C 13,9 C 15,0 C 78 % 1004,8 hPa 0,0 l/m 19,1 km/h (3 Bft) S-SW 204 2 min 0,000 mm 0,0 UV-I 66 W/m 11,2 C 10,0 C 30,6 km/h (5 Bft) 95,83 %
02.10.2019 18:00 14,9 C 13,9 C 15,0 C 79 % 1004,8 hPa 0,0 l/m 12,5 km/h (3 Bft) W-SW 240 2 min 0,000 mm 0,0 UV-I 61 W/m 11,3 C 12,0 C 22,5 km/h (4 Bft) 91,43 %
02.10.2019 18:02 14,9 C 13,9 C 15,0 C 79 % 1004,9 hPa 0,0 l/m 13,3 km/h (3 Bft) SW 223 2 min 0,076 mm 0,0 UV-I 56 W/m 11,3 C 11,7 C 22,5 km/h (4 Bft) 98,31 %
02.10.2019 18:04 14,9 C 13,9 C 15,0 C 79 % 1004,9 hPa 0,0 l/m 15,1 km/h (3 Bft) W 273 0 min 0,000 mm 0,0 UV-I 51 W/m 11,3 C 11,0 C 24,1 km/h (4 Bft) 95,65 %
02.10.2019 18:06 14,9 C 13,9 C 15,0 C 79 % 1005,0 hPa 0,0 l/m 13,1 km/h (3 Bft) W-SW 254 0 min 0,000 mm 0,0 UV-I 45 W/m 11,3 C 11,7 C 20,9 km/h (4 Bft) 96,92 %
02.10.2019 18:08 14,8 C 13,9 C 15,0 C 79 % 1005,0 hPa 0,0 l/m 16,4 km/h (3 Bft) SW 234 0 min 0,000 mm 0,0 UV-I 42 W/m 11,2 C 10,5 C 22,5 km/h (4 Bft) 100,00 %
02.10.2019 18:10 14,8 C 13,9 C 15,0 C 79 % 1004,9 hPa 0,0 l/m 17,8 km/h (3 Bft) W 267 0 min 0,000 mm 0,0 UV-I 39 W/m 11,2 C 10,1 C 25,7 km/h (4 Bft) 100,00 %
02.10.2019 18:12 14,8 C 13,9 C 14,4 C 79 % 1004,9 hPa 0,0 l/m 12,2 km/h (2 Bft) SW 231 0 min 0,000 mm 0,0 UV-I 36 W/m 11,2 C 12,0 C 17,7 km/h (3 Bft) 98,00 %
02.10.2019 18:14 14,7 C 13,9 C 14,4 C 79 % 1004,9 hPa 0,0 l/m 14,8 km/h (3 Bft) W-SW 249 0 min 0,000 mm 0,0 UV-I 35 W/m 11,1 C 10,9 C 19,3 km/h (3 Bft) 100,00 %
02.10.2019 18:16 14,7 C 13,9 C 14,4 C 79 % 1004,9 hPa 0,0 l/m 16,1 km/h (3 Bft) W-SW 254 2 min 0,000 mm 0,0 UV-I 33 W/m 11,1 C 10,5 C 24,1 km/h (4 Bft) 100,00 %
02.10.2019 18:18 14,7 C 13,9 C 14,4 C 79 % 1004,9 hPa 0,0 l/m 13,2 km/h (3 Bft) W-SW 250 2 min 0,000 mm 0,0 UV-I 32 W/m 11,1 C 11,5 C 20,9 km/h (4 Bft) 97,87 %
02.10.2019 18:20 14,7 C 13,9 C 14,4 C 79 % 1005,0 hPa 0,0 l/m 11,3 km/h (2 Bft) W-SW 250 2 min 0,000 mm 0,0 UV-I 32 W/m 11,1 C 12,2 C 17,7 km/h (3 Bft) 100,00 %
02.10.2019 18:22 14,7 C 13,9 C 14,4 C 79 % 1005,0 hPa 0,0 l/m 14,0 km/h (3 Bft) W 263 2 min 0,000 mm 0,0 UV-I 31 W/m 11,1 C 11,2 C 20,9 km/h (4 Bft) 100,00 %
02.10.2019 18:24 14,7 C 13,9 C 14,4 C 79 % 1005,0 hPa 0,0 l/m 14,7 km/h (3 Bft) W 259 2 min 0,000 mm 0,0 UV-I 29 W/m 11,1 C 10,9 C 20,9 km/h (4 Bft) 100,00 %
02.10.2019 18:26 14,6 C 13,9 C 14,4 C 79 % 1005,1 hPa 0,0 l/m 14,0 km/h (3 Bft) W 281 2 min 0,000 mm 0,0 UV-I 27 W/m 11,0 C 11,1 C 20,9 km/h (4 Bft) 100,00 %
02.10.2019 18:28 14,6 C 13,9 C 14,4 C 80 % 1005,0 hPa 0,0 l/m 12,6 km/h (3 Bft) W 263 2 min 0,000 mm 0,0 UV-I 25 W/m 11,2 C 11,6 C 19,3 km/h (3 Bft) 97,44 %
02.10.2019 18:30 14,6 C 13,9 C 14,4 C 80 % 1005,1 hPa 0,0 l/m 12,0 km/h (2 Bft) W 259 2 min 0,000 mm 0,0 UV-I 22 W/m 11,2 C 11,8 C 17,7 km/h (3 Bft) 100,00 %
02.10.2019 18:32 14,5 C 13,9 C 13,9 C 80 % 1005,0 hPa 0,0 l/m 12,2 km/h (2 Bft) W 280 0 min 0,000 mm 0,0 UV-I 18 W/m 11,1 C 11,6 C 19,3 km/h (3 Bft) 100,00 %
02.10.2019 18:34 14,4 C 13,9 C 13,9 C 80 % 1005,1 hPa 0,0 l/m 14,6 km/h (3 Bft) W 266 0 min 0,000 mm 0,0 UV-I 16 W/m 11,0 C 10,6 C 25,7 km/h (4 Bft) 100,00 %
02.10.2019 18:36 14,4 C 13,9 C 13,9 C 80 % 1005,1 hPa 0,0 l/m 14,4 km/h (3 Bft) W-SW 251 0 min 0,000 mm 0,0 UV-I 12 W/m 11,0 C 10,7 C 22,5 km/h (4 Bft) 100,00 %
02.10.2019 18:38 14,4 C 13,9 C 13,9 C 80 % 1005,2 hPa 0,0 l/m 12,8 km/h (3 Bft) W-SW 254 0 min 0,000 mm 0,0 UV-I 11 W/m 11,0 C 11,3 C 17,7 km/h (3 Bft) 96,15 %
02.10.2019 18:40 14,4 C 13,9 C 13,9 C 80 % 1005,2 hPa 0,0 l/m 16,2 km/h (3 Bft) W 265 0 min 0,000 mm 0,0 UV-I 9 W/m 11,0 C 10,1 C 27,4 km/h (4 Bft) 100,00 %
02.10.2019 18:42 14,3 C 13,9 C 13,9 C 81 % 1005,1 hPa 0,0 l/m 15,6 km/h (3 Bft) SW 223 0 min 0,000 mm 0,0 UV-I 9 W/m 11,1 C 10,1 C 22,5 km/h (4 Bft) 97,87 %
02.10.2019 18:44 14,3 C 13,9 C 13,9 C 81 % 1005,2 hPa 0,0 l/m 14,2 km/h (3 Bft) SW 236 0 min 0,000 mm 0,0 UV-I 8 W/m 11,1 C 10,6 C 20,9 km/h (4 Bft) 100,00 %
02.10.2019 18:46 14,3 C 13,9 C 13,9 C 81 % 1005,2 hPa 0,0 l/m 10,9 km/h (2 Bft) W-SW 240 0 min 0,000 mm 0,0 UV-I 7 W/m 11,1 C 11,9 C 16,1 km/h (3 Bft) 100,00 %
02.10.2019 18:48 14,3 C 13,9 C 13,9 C 81 % 1005,3 hPa 0,0 l/m 15,1 km/h (3 Bft) W 266 0 min 0,000 mm 0,0 UV-I 5 W/m 11,1 C 10,3 C 20,9 km/h (4 Bft) 100,00 %
02.10.2019 18:50 14,3 C 13,9 C 13,9 C 81 % 1005,3 hPa 0,0 l/m 11,9 km/h (2 Bft) W-SW 255 0 min 0,000 mm 0,0 UV-I 5 W/m 11,1 C 11,5 C 16,1 km/h (3 Bft) 100,00 %
02.10.2019 18:52 14,3 C 13,9 C 13,9 C 81 % 1005,4 hPa 0,0 l/m 9,7 km/h (2 Bft) W 265 0 min 0,000 mm 0,0 UV-I 3 W/m 11,1 C 12,5 C 16,1 km/h (3 Bft) 100,00 %
02.10.2019 18:54 14,2 C 13,9 C 13,9 C 82 % 1005,4 hPa 0,0 l/m 12,8 km/h (3 Bft) W-SW 246 0 min 0,000 mm 0,0 UV-I 0 W/m 11,2 C 11,0 C 17,7 km/h (3 Bft) 100,00 %
02.10.2019 18:56 14,2 C 13,9 C 13,9 C 82 % 1005,4 hPa 0,0 l/m 14,0 km/h (3 Bft) W-SW 254 0 min 0,000 mm 0,0 UV-I 0 W/m 11,2 C 10,6 C 20,9 km/h (4 Bft) 98,00 %
02.10.2019 18:58 14,2 C 13,9 C 13,9 C 82 % 1005,5 hPa 0,0 l/m 11,6 km/h (2 Bft) W 261 0 min 0,000 mm 0,0 UV-I 0 W/m 11,2 C 11,5 C 16,1 km/h (3 Bft) 100,00 %
02.10.2019 19:00 14,2 C 13,9 C 13,9 C 82 % 1005,6 hPa 0,0 l/m 14,6 km/h (3 Bft) W 269 0 min 0,000 mm 0,0 UV-I 0 W/m 11,2 C 10,4 C 22,5 km/h (4 Bft) 97,37 %
02.10.2019 19:02 14,2 C 13,9 C 13,9 C 82 % 1005,6 hPa 0,0 l/m 12,8 km/h (3 Bft) W-NW 286 0 min 0,051 mm 0,0 UV-I 0 W/m 11,2 C 11,0 C 17,7 km/h (3 Bft) 100,00 %
02.10.2019 19:04 14,2 C 13,9 C 13,9 C 81 % 1005,6 hPa 0,0 l/m 10,5 km/h (2 Bft) W-SW 245 0 min 0,000 mm 0,0 UV-I 0 W/m 11,0 C 12,0 C 14,5 km/h (3 Bft) 98,44 %
02.10.2019 19:06 14,2 C 13,9 C 13,9 C 81 % 1005,7 hPa 0,0 l/m 14,6 km/h (3 Bft) W 264 0 min 0,000 mm 0,0 UV-I 0 W/m 11,0 C 10,4 C 22,5 km/h (4 Bft) 97,62 %
02.10.2019 19:08 14,2 C 13,9 C 13,9 C 81 % 1005,7 hPa 0,0 l/m 13,4 km/h (3 Bft) W 261 0 min 0,000 mm 0,0 UV-I 0 W/m 11,0 C 10,8 C 19,3 km/h (3 Bft) 98,00 %
02.10.2019 19:10 14,3 C 13,9 C 13,9 C 81 % 1005,7 hPa 0,0 l/m 11,0 km/h (2 Bft) W-NW 297 0 min 0,000 mm 0,0 UV-I 0 W/m 11,1 C 11,9 C 17,7 km/h (3 Bft) 94,00 %
02.10.2019 19:12 14,3 C 13,9 C 14,4 C 81 % 1005,7 hPa 0,0 l/m 14,8 km/h (3 Bft) W-NW 291 0 min 0,000 mm 0,0 UV-I 0 W/m 11,1 C 10,4 C 30,6 km/h (5 Bft) 95,74 %
02.10.2019 19:14 14,3 C 13,9 C 14,4 C 80 % 1005,8 hPa 0,0 l/m 16,7 km/h (3 Bft) W-NW 286 0 min 0,000 mm 0,0 UV-I 0 W/m 10,9 C 9,8 C 30,6 km/h (5 Bft) 96,23 %
02.10.2019 19:16 14,3 C 13,9 C 13,9 C 80 % 1005,9 hPa 0,0 l/m 15,7 km/h (3 Bft) W-SW 240 0 min 0,000 mm 0,0 UV-I 0 W/m 10,9 C 10,1 C 27,4 km/h (4 Bft) 97,73 %
02.10.2019 19:18 14,3 C 13,9 C 13,3 C 80 % 1005,9 hPa 0,0 l/m 22,5 km/h (4 Bft) W-NW 288 0 min 0,000 mm 0,0 UV-I 0 W/m 10,9 C 8,2 C 30,6 km/h (5 Bft) 97,56 %
02.10.2019 19:20 14,1 C 13,9 C 12,8 C 81 % 1005,9 hPa 0,0 l/m 16,1 km/h (3 Bft) W-SW 239 0 min 0,000 mm 0,0 UV-I 0 W/m 10,9 C 9,7 C 29,0 km/h (5 Bft) 98,11 %
02.10.2019 19:22 13,9 C 13,9 C 12,8 C 82 % 1005,9 hPa 0,0 l/m 15,0 km/h (3 Bft) W 260 0 min 0,000 mm 0,0 UV-I 0 W/m 10,9 C 9,9 C 24,1 km/h (4 Bft) 92,68 %
02.10.2019 19:24 13,8 C 13,9 C 12,8 C 82 % 1005,9 hPa 0,0 l/m 9,6 km/h (2 Bft) W-SW 248 0 min 0,000 mm 0,0 UV-I 0 W/m 10,8 C 12,0 C 22,5 km/h (4 Bft) 96,23 %
02.10.2019 19:26 13,7 C 13,9 C 12,8 C 84 % 1005,9 hPa 0,0 l/m 8,3 km/h (2 Bft) W-SW 255 0 min 0,000 mm 0,0 UV-I 0 W/m 11,0 C 12,6 C 14,5 km/h (3 Bft) 94,74 %
02.10.2019 19:28 13,6 C 13,9 C 12,8 C 84 % 1005,9 hPa 0,0 l/m 7,9 km/h (2 Bft) W 262 0 min 0,000 mm 0,0 UV-I 0 W/m 10,9 C 12,7 C 12,9 km/h (3 Bft) 95,74 %
02.10.2019 19:30 13,6 C 13,9 C 12,8 C 84 % 1005,9 hPa 0,0 l/m 10,5 km/h (2 Bft) W-NW 296 0 min 0,000 mm 0,0 UV-I 0 W/m 10,9 C 11,3 C 16,1 km/h (3 Bft) 97,56 %
02.10.2019 19:32 13,6 C 13,9 C 12,8 C 85 % 1006,0 hPa 0,0 l/m 5,0 km/h (1 Bft) W 279 0 min 0,000 mm 0,0 UV-I 0 W/m 11,1 C 13,6 C 9,7 km/h (2 Bft) 98,21 %
02.10.2019 19:34 13,5 C 13,9 C 12,8 C 85 % 1006,1 hPa 0,0 l/m 4,3 km/h (1 Bft) W-NW 286 0 min 0,000 mm 0,0 UV-I 0 W/m 11,0 C 13,5 C 11,3 km/h (2 Bft) 98,11 %
02.10.2019 19:36 13,4 C 13,9 C 12,8 C 85 % 1006,1 hPa 0,0 l/m 3,2 km/h (1 Bft) N-NW 340 0 min 0,000 mm 0,0 UV-I 0 W/m 10,9 C 13,4 C 6,4 km/h (2 Bft) 97,37 %
02.10.2019 19:38 13,4 C 13,9 C 12,8 C 86 % 1006,1 hPa 0,0 l/m 6,3 km/h (2 Bft) W 276 0 min 0,000 mm 0,0 UV-I 0 W/m 11,1 C 13,4 C 12,9 km/h (3 Bft) 96,23 %
02.10.2019 19:40 13,3 C 13,9 C 12,8 C 86 % 1006,2 hPa 0,0 l/m 3,7 km/h (1 Bft) W-NW 286 0 min 0,000 mm 0,0 UV-I 0 W/m 11,0 C 13,3 C 8,0 km/h (2 Bft) 98,00 %
02.10.2019 19:42 13,3 C 13,9 C 12,8 C 86 % 1006,2 hPa 0,0 l/m 5,6 km/h (1 Bft) W 267 0 min 0,000 mm 0,0 UV-I 0 W/m 11,0 C 13,3 C 11,3 km/h (2 Bft) 97,87 %
02.10.2019 19:44 13,2 C 13,9 C 12,8 C 86 % 1006,2 hPa 0,0 l/m 4,1 km/h (1 Bft) W-NW 298 0 min 0,000 mm 0,0 UV-I 0 W/m 10,9 C 13,2 C 6,4 km/h (2 Bft) 95,24 %
02.10.2019 19:46 13,2 C 13,9 C 12,8 C 86 % 1006,2 hPa 0,0 l/m 3,3 km/h (1 Bft) W 274 0 min 0,000 mm 0,0 UV-I 0 W/m 10,9 C 13,2 C 6,4 km/h (2 Bft) 97,87 %
02.10.2019 19:48 13,2 C 13,9 C 12,8 C 86 % 1006,2 hPa 0,0 l/m 2,0 km/h (1 Bft) W 273 0 min 0,000 mm 0,0 UV-I 0 W/m 10,9 C 13,2 C 4,8 km/h (1 Bft) 98,00 %
02.10.2019 19:50 13,2 C 13,9 C 12,8 C 87 % 1006,2 hPa 0,0 l/m 3,2 km/h (1 Bft) W 274 0 min 0,000 mm 0,0 UV-I 0 W/m 11,1 C 13,2 C 6,4 km/h (2 Bft) 97,14 %
02.10.2019 19:52 13,1 C 13,9 C 12,8 C 87 % 1006,3 hPa 0,0 l/m 4,9 km/h (1 Bft) W-NW 286 0 min 0,000 mm 0,0 UV-I 0 W/m 11,0 C 13,1 C 9,7 km/h (2 Bft) 92,86 %
02.10.2019 19:54 13,0 C 13,9 C 12,8 C 87 % 1006,2 hPa 0,0 l/m 6,7 km/h (2 Bft) W 271 0 min 0,000 mm 0,0 UV-I 0 W/m 10,9 C 12,8 C 12,9 km/h (3 Bft) 97,87 %
02.10.2019 19:56 12,9 C 13,9 C 12,8 C 87 % 1006,3 hPa 0,0 l/m 6,0 km/h (2 Bft) W-SW 258 0 min 0,000 mm 0,0 UV-I 0 W/m 10,8 C 12,9 C 11,3 km/h (2 Bft) 97,87 %
02.10.2019 19:58 12,9 C 13,9 C 12,8 C 87 % 1006,3 hPa 0,0 l/m 9,1 km/h (2 Bft) NW 313 0 min 0,000 mm 0,0 UV-I 0 W/m 10,8 C 11,3 C 16,1 km/h (3 Bft) 100,00 %
02.10.2019 20:00 12,9 C 13,9 C 12,8 C 87 % 1006,3 hPa 0,0 l/m 8,0 km/h (2 Bft) W-SW 257 0 min 0,025 mm 0,0 UV-I 0 W/m 10,8 C 11,9 C 12,9 km/h (3 Bft) 97,87 %
02.10.2019 20:02 12,8 C 13,9 C 12,8 C 88 % 1006,3 hPa 0,0 l/m 8,5 km/h (2 Bft) W-NW 301 0 min 0,000 mm 0,0 UV-I 0 W/m 10,9 C 11,5 C 12,9 km/h (3 Bft) 100,00 %
02.10.2019 20:04 12,8 C 13,9 C 12,8 C 88 % 1006,3 hPa 0,0 l/m 9,3 km/h (2 Bft) W 277 0 min 0,000 mm 0,0 UV-I 0 W/m 10,9 C 11,1 C 14,5 km/h (3 Bft) 97,37 %
02.10.2019 20:06 12,8 C 13,9 C 12,8 C 88 % 1006,4 hPa 0,0 l/m 9,3 km/h (2 Bft) W 264 0 min 0,000 mm 0,0 UV-I 0 W/m 10,9 C 11,1 C 16,1 km/h (3 Bft) 98,53 %
02.10.2019 20:08 12,7 C 13,9 C 12,8 C 88 % 1006,4 hPa 0,0 l/m 8,0 km/h (2 Bft) W 272 0 min 0,000 mm 0,0 UV-I 0 W/m 10,8 C 11,7 C 11,3 km/h (2 Bft) 97,37 %
02.10.2019 20:10 12,7 C 13,9 C 12,8 C 88 % 1006,4 hPa 0,0 l/m 9,9 km/h (2 Bft) W-NW 291 0 min 0,000 mm 0,0 UV-I 0 W/m 10,8 C 10,6 C 16,1 km/h (3 Bft) 100,00 %
02.10.2019 20:12 12,7 C 13,9 C 12,8 C 88 % 1006,5 hPa 0,0 l/m 8,0 km/h (2 Bft) W-SW 253 0 min 0,000 mm 0,0 UV-I 0 W/m 10,8 C 11,7 C 12,9 km/h (3 Bft) 100,00 %
02.10.2019 20:14 12,7 C 13,9 C 12,8 C 88 % 1006,5 hPa 0,0 l/m 8,6 km/h (2 Bft) W 268 0 min 0,000 mm 0,0 UV-I 0 W/m 10,8 C 11,3 C 16,1 km/h (3 Bft) 100,00 %
02.10.2019 20:16 12,7 C 13,9 C 12,8 C 88 % 1006,5 hPa 0,0 l/m 11,0 km/h (2 Bft) W 281 0 min 0,000 mm 0,0 UV-I 0 W/m 10,8 C 10,1 C 12,9 km/h (3 Bft) 100,00 %
02.10.2019 20:18 12,6 C 13,9 C 12,8 C 89 % 1006,6 hPa 0,0 l/m 12,1 km/h (2 Bft) W 274 0 min 0,000 mm 0,0 UV-I 0 W/m 10,8 C 9,5 C 19,3 km/h (3 Bft) 100,00 %
02.10.2019 20:20 12,6 C 13,9 C 12,8 C 89 % 1006,6 hPa 0,0 l/m 9,3 km/h (2 Bft) W 261 0 min 0,000 mm 0,0 UV-I 0 W/m 10,8 C 10,8 C 14,5 km/h (3 Bft) 100,00 %
02.10.2019 20:22 12,6 C 13,9 C 12,8 C 89 % 1006,6 hPa 0,0 l/m 11,6 km/h (2 Bft) W 273 0 min 0,000 mm 0,0 UV-I 0 W/m 10,8 C 9,7 C 14,5 km/h (3 Bft) 100,00 %
02.10.2019 20:24 12,6 C 13,9 C 12,8 C 89 % 1006,7 hPa 0,0 l/m 10,4 km/h (2 Bft) W 265 0 min 0,000 mm 0,0 UV-I 0 W/m 10,8 C 10,3 C 14,5 km/h (3 Bft) 100,00 %
02.10.2019 20:26 12,6 C 13,9 C 12,2 C 89 % 1006,7 hPa 0,0 l/m 12,7 km/h (3 Bft) W-NW 302 0 min 0,000 mm 0,0 UV-I 0 W/m 10,8 C 9,2 C 17,7 km/h (3 Bft) 100,00 %
02.10.2019 20:29 12,5 C 13,9 C 12,2 C 89 % 1006,8 hPa 0,0 l/m 8,9 km/h (2 Bft) NW 308 0 min 0,000 mm 0,0 UV-I 0 W/m 10,7 C 11,0 C 14,5 km/h (3 Bft) 98,68 %
02.10.2019 20:30 12,5 C 13,9 C 12,2 C 89 % 1006,8 hPa 0,0 l/m 11,7 km/h (2 Bft) W 266 0 min 0,000 mm 0,0 UV-I 0 W/m 10,7 C 9,5 C 19,3 km/h (3 Bft) 100,00 %
02.10.2019 20:32 12,4 C 13,9 C 12,2 C 90 % 1006,9 hPa 0,0 l/m 5,6 km/h (1 Bft) W-NW 288 0 min 0,000 mm 0,0 UV-I 0 W/m 10,8 C 12,4 C 9,7 km/h (2 Bft) 96,00 %
02.10.2019 20:34 12,4 C 13,9 C 12,2 C 90 % 1006,9 hPa 0,0 l/m 6,2 km/h (2 Bft) W-NW 284 0 min 0,000 mm 0,0 UV-I 0 W/m 10,8 C 12,4 C 12,9 km/h (3 Bft) 97,56 %
02.10.2019 20:36 12,4 C 13,9 C 12,2 C 90 % 1006,9 hPa 0,0 l/m 7,0 km/h (2 Bft) W 267 0 min 0,000 mm 0,0 UV-I 0 W/m 10,8 C 12,0 C 12,9 km/h (3 Bft) 97,73 %
02.10.2019 20:38 12,3 C 13,9 C 12,2 C 90 % 1007,0 hPa 0,0 l/m 8,1 km/h (2 Bft) W-SW 254 0 min 0,000 mm 0,0 UV-I 0 W/m 10,7 C 11,2 C 14,5 km/h (3 Bft) 94,34 %
02.10.2019 20:40 12,3 C 13,9 C 12,2 C 90 % 1007,0 hPa 0,0 l/m 9,4 km/h (2 Bft) W-NW 286 0 min 0,000 mm 0,0 UV-I 0 W/m 10,7 C 10,5 C 16,1 km/h (3 Bft) 97,87 %
02.10.2019 20:42 12,3 C 13,9 C 12,2 C 90 % 1007,0 hPa 0,0 l/m 5,7 km/h (1 Bft) W 280 0 min 0,000 mm 0,0 UV-I 0 W/m 10,7 C 12,3 C 9,7 km/h (2 Bft) 97,37 %
02.10.2019 20:44 12,3 C 13,9 C 12,2 C 91 % 1007,2 hPa 0,0 l/m 9,1 km/h (2 Bft) W 262 0 min 0,000 mm 0,0 UV-I 0 W/m 10,9 C 10,6 C 16,1 km/h (3 Bft) 98,39 %
02.10.2019 20:46 12,3 C 13,9 C 12,2 C 91 % 1007,1 hPa 0,0 l/m 6,1 km/h (2 Bft) W 267 0 min 0,000 mm 0,0 UV-I 0 W/m 10,9 C 12,3 C 12,9 km/h (3 Bft) 97,56 %
02.10.2019 20:48 12,3 C 13,9 C 12,2 C 91 % 1007,2 hPa 0,0 l/m 4,9 km/h (1 Bft) W 275 0 min 0,000 mm 0,0 UV-I 0 W/m 10,9 C 12,3 C 9,7 km/h (2 Bft) 97,87 %
02.10.2019 20:50 12,3 C 13,9 C 12,2 C 91 % 1007,2 hPa 0,0 l/m 10,3 km/h (2 Bft) W 279 0 min 0,000 mm 0,0 UV-I 0 W/m 10,9 C 10,0 C 16,1 km/h (3 Bft) 96,23 %
02.10.2019 20:52 12,2 C 13,9 C 12,2 C 91 % 1007,2 hPa 0,0 l/m 10,0 km/h (2 Bft) W 261 0 min 0,000 mm 0,0 UV-I 0 W/m 10,8 C 10,0 C 20,9 km/h (4 Bft) 95,12 %
02.10.2019 20:54 12,2 C 13,9 C 11,7 C 91 % 1007,3 hPa 0,0 l/m 8,7 km/h (2 Bft) W 273 0 min 0,000 mm 0,0 UV-I 0 W/m 10,8 C 10,7 C 20,9 km/h (4 Bft) 95,74 %
02.10.2019 20:56 12,2 C 13,9 C 11,7 C 91 % 1007,4 hPa 0,0 l/m 9,1 km/h (2 Bft) W 260 0 min 0,000 mm 0,0 UV-I 0 W/m 10,8 C 10,5 C 17,7 km/h (3 Bft) 97,87 %
02.10.2019 20:58 12,2 C 13,9 C 12,2 C 91 % 1007,5 hPa 0,2 l/m 8,2 km/h (2 Bft) W-SW 252 0 min 0,000 mm 0,0 UV-I 0 W/m 10,8 C 11,0 C 12,9 km/h (3 Bft) 94,00 %
02.10.2019 21:00 12,2 C 13,9 C 11,7 C 91 % 1007,5 hPa 0,0 l/m 13,4 km/h (3 Bft) W 262 0 min 0,000 mm 0,0 UV-I 0 W/m 10,8 C 8,4 C 20,9 km/h (4 Bft) 97,87 %
02.10.2019 21:02 12,1 C 13,9 C 11,7 C 91 % 1007,6 hPa 0,0 l/m 13,9 km/h (3 Bft) W 262 0 min 0,026 mm 0,0 UV-I 0 W/m 10,7 C 8,1 C 25,7 km/h (4 Bft) 97,44 %
02.10.2019 21:04 12,1 C 13,9 C 11,7 C 91 % 1007,6 hPa 0,0 l/m 10,4 km/h (2 Bft) W 273 0 min 0,000 mm 0,0 UV-I 0 W/m 10,7 C 9,7 C 16,1 km/h (3 Bft) 97,73 %
02.10.2019 21:06 12,1 C 13,9 C 11,7 C 91 % 1007,6 hPa 0,0 l/m 10,5 km/h (2 Bft) W-SW 257 0 min 0,000 mm 0,0 UV-I 0 W/m 10,7 C 9,7 C 19,3 km/h (3 Bft) 98,00 %
02.10.2019 21:08 12,0 C 13,9 C 11,7 C 92 % 1007,6 hPa 0,0 l/m 8,5 km/h (2 Bft) W-SW 257 0 min 0,000 mm 0,0 UV-I 0 W/m 10,7 C 10,6 C 12,9 km/h (3 Bft) 98,00 %
02.10.2019 21:10 12,0 C 13,9 C 11,7 C 92 % 1007,7 hPa 0,0 l/m 9,7 km/h (2 Bft) W 264 0 min 0,000 mm 0,0 UV-I 0 W/m 10,7 C 10,0 C 12,9 km/h (3 Bft) 97,87 %
02.10.2019 21:12 11,9 C 13,9 C 11,7 C 92 % 1007,7 hPa 0,0 l/m 13,4 km/h (3 Bft) W 279 0 min 0,000 mm 0,0 UV-I 0 W/m 10,6 C 8,1 C 22,5 km/h (4 Bft) 98,00 %
02.10.2019 21:14 11,9 C 13,9 C 11,7 C 92 % 1007,8 hPa 0,0 l/m 10,3 km/h (2 Bft) W 268 0 min 0,000 mm 0,0 UV-I 0 W/m 10,6 C 9,5 C 17,7 km/h (3 Bft) 98,00 %
02.10.2019 21:16 11,9 C 13,9 C 11,7 C 92 % 1007,8 hPa 0,0 l/m 12,3 km/h (3 Bft) W 261 0 min 0,000 mm 0,0 UV-I 0 W/m 10,6 C 8,6 C 27,4 km/h (4 Bft) 97,56 %
02.10.2019 21:18 11,9 C 13,9 C 11,7 C 92 % 1007,9 hPa 0,0 l/m 13,1 km/h (3 Bft) W 266 0 min 0,000 mm 0,0 UV-I 0 W/m 10,6 C 8,2 C 20,9 km/h (4 Bft) 97,87 %
02.10.2019 21:20 11,9 C 13,9 C 11,7 C 92 % 1007,9 hPa 0,0 l/m 13,9 km/h (3 Bft) W 278 0 min 0,000 mm 0,0 UV-I 0 W/m 10,6 C 7,9 C 25,7 km/h (4 Bft) 94,34 %
02.10.2019 21:22 11,8 C 13,9 C 11,7 C 92 % 1008,0 hPa 0,0 l/m 14,6 km/h (3 Bft) W 260 0 min 0,000 mm 0,0 UV-I 0 W/m 10,5 C 7,5 C 25,7 km/h (4 Bft) 93,62 %
02.10.2019 21:24 11,8 C 13,9 C 11,7 C 92 % 1008,0 hPa 0,2 l/m 13,3 km/h (3 Bft) W 267 0 min 0,000 mm 0,0 UV-I 0 W/m 10,5 C 8,0 C 20,9 km/h (4 Bft) 95,12 %
02.10.2019 21:26 11,8 C 13,9 C 11,7 C 92 % 1008,1 hPa 0,0 l/m 10,4 km/h (2 Bft) W 263 0 min 0,000 mm 0,0 UV-I 0 W/m 10,5 C 9,4 C 16,1 km/h (3 Bft) 98,00 %
02.10.2019 21:28 11,8 C 13,9 C 11,7 C 92 % 1008,1 hPa 0,0 l/m 12,1 km/h (2 Bft) W 271 0 min 0,000 mm 0,0 UV-I 0 W/m 10,5 C 8,5 C 22,5 km/h (4 Bft) 92,00 %
02.10.2019 21:30 11,7 C 13,9 C 11,7 C 92 % 1008,1 hPa 0,0 l/m 16,3 km/h (3 Bft) W 277 0 min 0,000 mm 0,0 UV-I 0 W/m 10,4 C 6,7 C 25,7 km/h (4 Bft) 92,68 %
02.10.2019 21:32 11,5 C 13,9 C 11,1 C 92 % 1008,2 hPa 0,0 l/m 18,9 km/h (3 Bft) W 269 0 min 0,000 mm 0,0 UV-I 0 W/m 10,2 C 5,6 C 29,0 km/h (5 Bft) 92,31 %
02.10.2019 21:34 11,3 C 13,9 C 11,1 C 92 % 1008,2 hPa 0,0 l/m 13,3 km/h (3 Bft) W-SW 255 0 min 0,000 mm 0,0 UV-I 0 W/m 10,0 C 7,4 C 17,7 km/h (3 Bft) 96,15 %
02.10.2019 21:36 11,2 C 13,9 C 11,1 C 92 % 1008,3 hPa 0,0 l/m 17,8 km/h (3 Bft) W-SW 242 0 min 0,000 mm 0,0 UV-I 0 W/m 9,9 C 5,6 C 32,2 km/h (5 Bft) 94,87 %
02.10.2019 21:38 11,1 C 13,9 C 10,6 C 92 % 1008,4 hPa 0,2 l/m 17,0 km/h (3 Bft) W 276 0 min 0,000 mm 0,0 UV-I 0 W/m 9,8 C 5,7 C 33,8 km/h (5 Bft) 96,23 %
02.10.2019 21:40 11,0 C 13,9 C 10,6 C 92 % 1008,5 hPa 0,0 l/m 15,3 km/h (3 Bft) W 278 0 min 0,000 mm 0,0 UV-I 0 W/m 9,8 C 6,2 C 22,5 km/h (4 Bft) 94,00 %
02.10.2019 21:42 10,9 C 13,9 C 10,6 C 92 % 1008,5 hPa 0,0 l/m 19,2 km/h (3 Bft) W-SW 258 0 min 0,000 mm 0,0 UV-I 0 W/m 9,7 C 4,7 C 30,6 km/h (5 Bft) 94,74 %
02.10.2019 21:44 10,8 C 13,9 C 10,6 C 92 % 1008,5 hPa 0,0 l/m 13,2 km/h (3 Bft) W-NW 282 0 min 0,000 mm 0,0 UV-I 0 W/m 9,6 C 6,9 C 20,9 km/h (4 Bft) 91,94 %
02.10.2019 21:46 10,8 C 13,9 C 10,6 C 92 % 1008,6 hPa 0,0 l/m 14,9 km/h (3 Bft) W-NW 294 0 min 0,000 mm 0,0 UV-I 0 W/m 9,6 C 6,1 C 22,5 km/h (4 Bft) 93,62 %
02.10.2019 21:48 10,7 C 13,9 C 10,6 C 92 % 1008,6 hPa 0,0 l/m 14,2 km/h (3 Bft) W-NW 294 0 min 0,000 mm 0,0 UV-I 0 W/m 9,5 C 6,3 C 25,7 km/h (4 Bft) 95,45 %
02.10.2019 21:50 10,7 C 13,9 C 10,6 C 92 % 1008,7 hPa 0,0 l/m 15,4 km/h (3 Bft) W 263 0 min 0,000 mm 0,0 UV-I 0 W/m 9,5 C 5,8 C 30,6 km/h (5 Bft) 94,00 %
02.10.2019 21:52 10,6 C 13,9 C 10,6 C 92 % 1008,9 hPa 0,0 l/m 18,3 km/h (3 Bft) W 275 0 min 0,000 mm 0,0 UV-I 0 W/m 9,4 C 4,6 C 29,0 km/h (5 Bft) 97,56 %
02.10.2019 21:54 10,5 C 13,9 C 10,6 C 92 % 1009,0 hPa 0,0 l/m 14,0 km/h (3 Bft) W-SW 258 0 min 0,000 mm 0,0 UV-I 0 W/m 9,3 C 6,2 C 25,7 km/h (4 Bft) 98,00 %
02.10.2019 21:56 10,5 C 13,9 C 10,6 C 92 % 1009,1 hPa 0,0 l/m 17,2 km/h (3 Bft) W 270 0 min 0,000 mm 0,0 UV-I 0 W/m 9,3 C 4,9 C 27,4 km/h (4 Bft) 95,74 %
02.10.2019 21:58 10,4 C 13,9 C 10,6 C 92 % 1009,1 hPa 0,2 l/m 12,9 km/h (3 Bft) SW 236 0 min 0,000 mm 0,0 UV-I 0 W/m 9,2 C 6,5 C 19,3 km/h (3 Bft) 97,73 %
02.10.2019 22:00 10,3 C 13,9 C 10,0 C 92 % 1009,2 hPa 0,0 l/m 18,4 km/h (3 Bft) W 268 0 min 0,025 mm 0,0 UV-I 0 W/m 9,1 C 4,2 C 29,0 km/h (5 Bft) 98,00 %
02.10.2019 22:02 10,2 C 13,9 C 10,0 C 92 % 1009,3 hPa 0,0 l/m 18,5 km/h (3 Bft) W-SW 249 0 min 0,000 mm 0,0 UV-I 0 W/m 9,0 C 4,0 C 32,2 km/h (5 Bft) 97,37 %
02.10.2019 22:04 10,2 C 13,9 C 10,0 C 92 % 1009,3 hPa 0,0 l/m 14,5 km/h (3 Bft) W-SW 249 0 min 0,000 mm 0,0 UV-I 0 W/m 9,0 C 5,6 C 25,7 km/h (4 Bft) 98,21 %
02.10.2019 22:06 10,2 C 13,9 C 10,0 C 92 % 1009,4 hPa 0,0 l/m 12,1 km/h (2 Bft) W 263 0 min 0,000 mm 0,0 UV-I 0 W/m 9,0 C 6,7 C 16,1 km/h (3 Bft) 97,87 %
02.10.2019 22:09 10,1 C 13,9 C 10,0 C 92 % 1009,4 hPa 0,0 l/m 20,5 km/h (4 Bft) W-NW 284 0 min 0,000 mm 0,0 UV-I 0 W/m 8,9 C 3,3 C 41,8 km/h (6 Bft) 97,18 %
02.10.2019 22:10 10,1 C 13,9 C 10,0 C 92 % 1009,4 hPa 0,0 l/m 14,2 km/h (3 Bft) SW 234 0 min 0,000 mm 0,0 UV-I 0 W/m 8,9 C 5,6 C 16,1 km/h (3 Bft) 100,00 %
02.10.2019 22:12 10,0 C 13,9 C 10,0 C 92 % 1009,5 hPa 0,0 l/m 13,5 km/h (3 Bft) W-SW 240 0 min 0,000 mm 0,0 UV-I 0 W/m 8,8 C 5,8 C 25,7 km/h (4 Bft) 98,08 %
02.10.2019 22:14 10,0 C 13,3 C 10,0 C 92 % 1009,7 hPa 0,0 l/m 11,7 km/h (2 Bft) W-NW 294 0 min 0,000 mm 0,0 UV-I 0 W/m 8,8 C 6,7 C 22,5 km/h (4 Bft) 96,00 %
02.10.2019 22:16 10,0 C 13,3 C 10,0 C 93 % 1009,7 hPa 0,0 l/m 17,0 km/h (3 Bft) W 266 0 min 0,000 mm 0,0 UV-I 0 W/m 8,9 C 4,3 C 24,1 km/h (4 Bft) 97,44 %
02.10.2019 22:19 9,9 C 13,3 C 10,0 C 92 % 1009,9 hPa 0,0 l/m 19,8 km/h (3 Bft) W 262 0 min 0,000 mm 0,0 UV-I 0 W/m 8,7 C 3,2 C 35,4 km/h (5 Bft) 98,51 %
02.10.2019 22:20 9,9 C 13,3 C 10,0 C 92 % 1009,9 hPa 0,0 l/m 21,8 km/h (4 Bft) W 278 0 min 0,000 mm 0,0 UV-I 0 W/m 8,7 C 2,6 C 33,8 km/h (5 Bft) 97,06 %
02.10.2019 22:22 9,9 C 13,3 C 10,0 C 92 % 1009,9 hPa 0,0 l/m 20,1 km/h (4 Bft) W 274 0 min 0,000 mm 0,0 UV-I 0 W/m 8,7 C 3,1 C 29,0 km/h (5 Bft) 100,00 %
02.10.2019 22:24 9,9 C 13,3 C 10,0 C 92 % 1010,1 hPa 0,0 l/m 22,9 km/h (4 Bft) W-SW 255 0 min 0,000 mm 0,0 UV-I 0 W/m 8,7 C 2,3 C 41,8 km/h (6 Bft) 100,00 %
02.10.2019 22:26 9,8 C 13,3 C 9,4 C 92 % 1010,1 hPa 0,0 l/m 22,6 km/h (4 Bft) W-NW 290 0 min 0,000 mm 0,0 UV-I 0 W/m 8,6 C 2,2 C 38,6 km/h (5 Bft) 100,00 %
02.10.2019 22:28 9,8 C 13,3 C 9,4 C 92 % 1010,2 hPa 0,0 l/m 20,8 km/h (4 Bft) W 273 0 min 0,000 mm 0,0 UV-I 0 W/m 8,6 C 2,8 C 32,2 km/h (5 Bft) 100,00 %
02.10.2019 22:30 9,8 C 13,3 C 9,4 C 92 % 1010,2 hPa 0,0 l/m 21,4 km/h (4 Bft) W 263 0 min 0,000 mm 0,0 UV-I 0 W/m 8,6 C 2,6 C 29,0 km/h (5 Bft) 100,00 %
02.10.2019 22:32 9,8 C 13,3 C 9,4 C 92 % 1010,3 hPa 0,0 l/m 21,0 km/h (4 Bft) W 276 0 min 0,000 mm 0,0 UV-I 0 W/m 8,6 C 2,7 C 33,8 km/h (5 Bft) 100,00 %
02.10.2019 22:34 9,8 C 13,3 C 9,4 C 92 % 1010,4 hPa 0,0 l/m 18,8 km/h (3 Bft) W-SW 246 0 min 0,000 mm 0,0 UV-I 0 W/m 8,6 C 3,4 C 33,8 km/h (5 Bft) 100,00 %
02.10.2019 22:36 9,7 C 13,3 C 9,4 C 92 % 1010,5 hPa 0,0 l/m 17,6 km/h (3 Bft) W 267 0 min 0,000 mm 0,0 UV-I 0 W/m 8,5 C 3,7 C 38,6 km/h (5 Bft) 100,00 %
02.10.2019 22:38 9,7 C 13,3 C 9,4 C 91 % 1010,6 hPa 0,0 l/m 23,1 km/h (4 Bft) W 264 0 min 0,000 mm 0,0 UV-I 0 W/m 8,3 C 1,9 C 38,6 km/h (5 Bft) 100,00 %
02.10.2019 22:40 9,7 C 13,3 C 9,4 C 91 % 1010,6 hPa 0,0 l/m 19,7 km/h (3 Bft) W 264 0 min 0,000 mm 0,0 UV-I 0 W/m 8,3 C 3,0 C 30,6 km/h (5 Bft) 100,00 %
02.10.2019 22:42 9,7 C 13,3 C 9,4 C 91 % 1010,6 hPa 0,2 l/m 21,0 km/h (4 Bft) W 261 0 min 0,000 mm 0,0 UV-I 0 W/m 8,3 C 2,6 C 37,0 km/h (5 Bft) 100,00 %
02.10.2019 22:44 9,6 C 13,3 C 9,4 C 91 % 1010,6 hPa 0,0 l/m 15,9 km/h (3 Bft) W 272 0 min 0,000 mm 0,0 UV-I 0 W/m 8,2 C 4,3 C 22,5 km/h (4 Bft) 100,00 %
02.10.2019 22:46 9,5 C 13,3 C 9,4 C 91 % 1010,7 hPa 0,2 l/m 16,9 km/h (3 Bft) S-SO 162 0 min 0,000 mm 0,0 UV-I 0 W/m 8,1 C 3,8 C 30,6 km/h (5 Bft) 100,00 %
02.10.2019 22:48 9,4 C 13,3 C 9,4 C 92 % 1010,8 hPa 0,0 l/m 15,4 km/h (3 Bft) W 273 0 min 0,000 mm 0,0 UV-I 0 W/m 8,2 C 4,2 C 22,5 km/h (4 Bft) 96,55 %
02.10.2019 22:50 9,4 C 13,3 C 9,4 C 92 % 1010,9 hPa 0,2 l/m 16,2 km/h (3 Bft) W 271 0 min 0,000 mm 0,0 UV-I 0 W/m 8,2 C 3,9 C 33,8 km/h (5 Bft) 100,00 %
02.10.2019 22:52 9,3 C 13,3 C 8,9 C 92 % 1010,9 hPa 0,2 l/m 15,9 km/h (3 Bft) W 275 0 min 0,000 mm 0,0 UV-I 0 W/m 8,1 C 3,9 C 32,2 km/h (5 Bft) 100,00 %
02.10.2019 22:54 9,3 C 13,3 C 8,9 C 92 % 1010,9 hPa 0,2 l/m 18,5 km/h (3 Bft) W-NW 283 0 min 0,000 mm 0,0 UV-I 0 W/m 8,1 C 2,9 C 29,0 km/h (5 Bft) 94,44 %
02.10.2019 22:56 9,2 C 13,3 C 8,9 C 92 % 1011,0 hPa 0,0 l/m 21,1 km/h (4 Bft) W 264 0 min 0,000 mm 0,0 UV-I 0 W/m 8,0 C 1,9 C 32,2 km/h (5 Bft) 100,00 %
02.10.2019 22:59 9,2 C 13,3 C 8,9 C 92 % 1011,1 hPa 0,2 l/m 22,0 km/h (4 Bft) SW 234 0 min 0,000 mm 0,0 UV-I 0 W/m 8,0 C 1,6 C 32,2 km/h (5 Bft) 98,73 %
02.10.2019 23:00 9,2 C 13,3 C 8,9 C 92 % 1011,1 hPa 0,0 l/m 21,9 km/h (4 Bft) W 261 0 min 0,000 mm 0,0 UV-I 0 W/m 8,0 C 1,6 C 37,0 km/h (5 Bft) 100,00 %
02.10.2019 23:02 9,1 C 13,3 C 8,9 C 92 % 1011,2 hPa 0,0 l/m 20,5 km/h (4 Bft) W-NW 294 0 min 0,025 mm 0,0 UV-I 0 W/m 7,9 C 2,0 C 32,2 km/h (5 Bft) 100,00 %
02.10.2019 23:04 9,1 C 13,3 C 8,9 C 92 % 1011,3 hPa 0,0 l/m 19,2 km/h (3 Bft) W 279 0 min 0,000 mm 0,0 UV-I 0 W/m 7,9 C 2,4 C 29,0 km/h (5 Bft) 100,00 %
02.10.2019 23:06 9,1 C 13,3 C 8,9 C 92 % 1011,3 hPa 0,0 l/m 22,3 km/h (4 Bft) W 259 0 min 0,000 mm 0,0 UV-I 0 W/m 7,9 C 1,4 C 32,2 km/h (5 Bft) 100,00 %
02.10.2019 23:09 9,1 C 13,3 C 8,9 C 92 % 1011,6 hPa 0,0 l/m 20,2 km/h (4 Bft) W 278 0 min 0,000 mm 0,0 UV-I 0 W/m 7,9 C 2,1 C 32,2 km/h (5 Bft) 100,00 %
02.10.2019 23:10 9,1 C 13,3 C 8,9 C 92 % 1011,6 hPa 0,0 l/m 15,5 km/h (3 Bft) W 261 0 min 0,000 mm 0,0 UV-I 0 W/m 7,9 C 3,8 C 22,5 km/h (4 Bft) 95,83 %
02.10.2019 23:12 9,1 C 13,3 C 8,9 C 92 % 1011,6 hPa 0,0 l/m 21,1 km/h (4 Bft) W-NW 282 0 min 0,000 mm 0,0 UV-I 0 W/m 7,9 C 1,8 C 40,2 km/h (6 Bft) 100,00 %
02.10.2019 23:14 9,0 C 13,3 C 8,9 C 92 % 1011,7 hPa 0,0 l/m 18,0 km/h (3 Bft) W 277 0 min 0,000 mm 0,0 UV-I 0 W/m 7,8 C 2,7 C 35,4 km/h (5 Bft) 100,00 %
02.10.2019 23:16 9,0 C 13,3 C 8,9 C 92 % 1011,8 hPa 0,0 l/m 16,8 km/h (3 Bft) SW 234 0 min 0,000 mm 0,0 UV-I 0 W/m 7,8 C 3,2 C 29,0 km/h (5 Bft) 100,00 %
02.10.2019 23:18 8,9 C 13,3 C 8,9 C 92 % 1011,9 hPa 0,0 l/m 20,9 km/h (4 Bft) W-SW 239 0 min 0,000 mm 0,0 UV-I 0 W/m 7,7 C 1,6 C 35,4 km/h (5 Bft) 98,00 %
02.10.2019 23:20 8,9 C 13,3 C 8,9 C 92 % 1011,9 hPa 0,0 l/m 19,9 km/h (4 Bft) W-SW 246 0 min 0,000 mm 0,0 UV-I 0 W/m 7,7 C 1,9 C 29,0 km/h (5 Bft) 98,00 %
02.10.2019 23:22 8,9 C 13,3 C 8,9 C 92 % 1011,9 hPa 0,0 l/m 17,4 km/h (3 Bft) W 281 0 min 0,000 mm 0,0 UV-I 0 W/m 7,7 C 2,8 C 40,2 km/h (6 Bft) 97,87 %
02.10.2019 23:24 8,9 C 13,3 C 8,9 C 91 % 1012,0 hPa 0,0 l/m 22,4 km/h (4 Bft) W 272 0 min 0,000 mm 0,0 UV-I 0 W/m 7,5 C 1,1 C 38,6 km/h (5 Bft) 95,74 %
02.10.2019 23:26 8,9 C 13,3 C 8,3 C 91 % 1012,2 hPa 0,0 l/m 19,8 km/h (3 Bft) W 269 0 min 0,000 mm 0,0 UV-I 0 W/m 7,5 C 1,9 C 32,2 km/h (5 Bft) 93,18 %
02.10.2019 23:28 8,9 C 13,3 C 8,9 C 91 % 1012,2 hPa 0,0 l/m 17,4 km/h (3 Bft) W 279 0 min 0,000 mm 0,0 UV-I 0 W/m 7,5 C 2,8 C 46,7 km/h (6 Bft) 95,56 %
02.10.2019 23:30 8,9 C 13,3 C 8,3 C 91 % 1012,3 hPa 0,0 l/m 20,2 km/h (4 Bft) W-NW 291 0 min 0,000 mm 0,0 UV-I 0 W/m 7,5 C 1,8 C 30,6 km/h (5 Bft) 96,15 %
02.10.2019 23:32 8,9 C 13,3 C 8,3 C 91 % 1012,3 hPa 0,0 l/m 20,9 km/h (4 Bft) W-SW 257 0 min 0,000 mm 0,0 UV-I 0 W/m 7,5 C 1,6 C 35,4 km/h (5 Bft) 97,78 %
02.10.2019 23:34 8,8 C 13,3 C 8,3 C 91 % 1012,4 hPa 0,0 l/m 19,6 km/h (3 Bft) NW 315 0 min 0,000 mm 0,0 UV-I 0 W/m 7,4 C 1,9 C 30,6 km/h (5 Bft) 93,62 %
02.10.2019 23:36 8,8 C 13,3 C 8,3 C 91 % 1012,4 hPa 0,0 l/m 21,6 km/h (4 Bft) W-SW 254 0 min 0,000 mm 0,0 UV-I 0 W/m 7,4 C 1,2 C 40,2 km/h (6 Bft) 95,12 %
02.10.2019 23:39 8,8 C 13,3 C 8,3 C 90 % 1012,6 hPa 0,2 l/m 24,7 km/h (4 Bft) W 271 0 min 0,000 mm 0,0 UV-I 0 W/m 7,3 C 0,3 C 41,8 km/h (6 Bft) 94,52 %
02.10.2019 23:40 8,7 C 13,3 C 8,3 C 90 % 1012,6 hPa 0,0 l/m 18,2 km/h (3 Bft) W 273 0 min 0,000 mm 0,0 UV-I 0 W/m 7,2 C 2,3 C 27,4 km/h (4 Bft) 100,00 %
02.10.2019 23:42 8,7 C 13,3 C 8,3 C 90 % 1012,7 hPa 0,0 l/m 18,2 km/h (3 Bft) W-NW 300 0 min 0,000 mm 0,0 UV-I 0 W/m 7,2 C 2,3 C 38,6 km/h (5 Bft) 92,68 %
02.10.2019 23:44 8,7 C 13,3 C 8,3 C 90 % 1012,7 hPa 0,0 l/m 17,8 km/h (3 Bft) W 265 0 min 0,000 mm 0,0 UV-I 0 W/m 7,2 C 2,4 C 24,1 km/h (4 Bft) 95,65 %
02.10.2019 23:46 8,6 C 13,3 C 8,3 C 90 % 1012,7 hPa 0,0 l/m 17,5 km/h (3 Bft) W 273 0 min 0,000 mm 0,0 UV-I 0 W/m 7,1 C 2,4 C 25,7 km/h (4 Bft) 96,55 %
02.10.2019 23:48 8,6 C 13,3 C 8,3 C 90 % 1012,7 hPa 0,0 l/m 22,0 km/h (4 Bft) W 279 0 min 0,000 mm 0,0 UV-I 0 W/m 7,1 C 0,8 C 35,4 km/h (5 Bft) 97,87 %
02.10.2019 23:50 8,6 C 13,3 C 8,3 C 90 % 1012,8 hPa 0,0 l/m 17,0 km/h (3 Bft) W-NW 298 0 min 0,000 mm 0,0 UV-I 0 W/m 7,1 C 2,6 C 29,0 km/h (5 Bft) 94,74 %
02.10.2019 23:52 8,6 C 13,3 C 8,3 C 90 % 1012,9 hPa 0,0 l/m 16,0 km/h (3 Bft) W 279 0 min 0,000 mm 0,0 UV-I 0 W/m 7,1 C 3,0 C 25,7 km/h (4 Bft) 97,73 %
02.10.2019 23:54 8,5 C 13,3 C 8,3 C 90 % 1012,9 hPa 0,0 l/m 22,8 km/h (4 Bft) W-SW 245 0 min 0,000 mm 0,0 UV-I 0 W/m 7,0 C 0,4 C 40,2 km/h (6 Bft) 98,31 %
02.10.2019 23:56 8,4 C 13,3 C 7,8 C 90 % 1012,9 hPa 0,0 l/m 17,9 km/h (3 Bft) W 262 0 min 0,000 mm 0,0 UV-I 0 W/m 6,9 C 2,0 C 30,6 km/h (5 Bft) 94,74 %
02.10.2019 23:58 8,3 C 13,3 C 7,8 C 90 % 1013,0 hPa 0,0 l/m 18,4 km/h (3 Bft) W 281 0 min 0,000 mm 0,0 UV-I 0 W/m 6,8 C 1,7 C 25,7 km/h (4 Bft) 96,23 %
_ Min-Zeit 23:58 00:00 23:56 15:52 07:02 - 19:48 - - - - - - 23:58 23:39 00:02 17:54
Minimum _ 8,3 C 13,3 C 7,8 C 76 % 1003,2 hPa - 2,0 km/h (1 Bft) - - - - - - 6,8 C 0,3 C 4,8 km/h (1 Bft) 88,71 %
_ Max-Zeit 05:18 10:42 15:02 22:16 23:58 07:46 23:39 - - 17:36 14:02 13:16 14:52 11:36 04:04 23:28 00:04
Maximum _ 16,0 C 13,9 C 17,8 C 93 % 1013,0 hPa 0,2 l/m 24,7 km/h
W (4 Bft)
- - 2 min 0,127 mm 1,2 UV-I 236 W/m 12,6 C 15,8 C 46,7 km/h
W-SW (6 Bft)
100,00 %
Durchschnitt _ 14,0 C 13,6 C 14,0 C 84 % 1005,2 hPa #3,4 l/m 12,5 km/h (3 Bft) W-SW - #38 min. #1,295 mm 0,8 UV-I 108 W/m 11,3 C 11,1 C 19,7 km/h (3 Bft) 97,38 %